[[{"header":{"parameterUnit":"m.s-1","parameterCategory":1,"la1":31.0,"la2":29.5877,"lo1":-88.7671,"lo2":-86.6584,"dx":0.0162,"dy":0.0185,"nx":115,"ny":88,"refTime":"2023-01-11T18:00:00:Z","depth":0,"parameterNumber":2,"parameterNumberName":"U-component_of_WINDS"},"data":[0.0,0.0,0.0,0.0,0.0,0.0,0.0,0.0,0.0,0.0,0.0,0.0,0.0,0.0,0.0,0.0,0.0,0.0,0.0,0.0,0.0,0.0,0.0,0.0,0.0,0.0,0.0,0.0,0.0,0.0,0.0,0.0,0.0,0.0,0.0,0.0,0.0,0.0,0.0,0.0,0.0,0.0,0.0,0.0,0.0,0.0,0.0,0.0,0.0,0.0,0.0,0.0,0.0,0.0,0.0,0.0,0.0,0.0,0.0,0.0,0.0,0.0,0.0,0.0,0.0,0.0,0.0,0.0,0.0,0.0,0.0,0.0,0.0,0.0,0.0,0.0,0.0,0.0,0.0,0.0,0.0,0.0,0.0,0.0,0.0,0.0,0.0,0.0,0.0,0.0,0.0,0.0,0.0,0.0,0.0,0.0,0.0,0.0,0.0,0.0,0.0,0.0,0.0,0.0,0.0,0.0,0.0,0.0,0.0,0.0,0.0,0.0,0.0,0.0,0.0,0.0,0.0,0.0,0.0,0.0,0.0,0.0,0.0,0.0,0.0,0.0,0.0,0.0,0.0,0.0,0.0,0.0,0.0,0.0,0.0,0.0,0.0,0.0,0.0,0.0,0.0,0.0,0.0,0.0,0.0,0.0,0.0,0.0,0.0,0.0,0.0,0.0,0.0,0.0,0.0,0.0,0.0,0.0,0.0,0.0,0.0,0.0,0.0,0.0,0.0,0.0,0.0,0.0,0.0,0.0,0.0,0.0,0.0,0.0,0.0,0.0,0.0,0.0,0.0,0.0,0.0,0.0,0.0,0.0,0.0,0.0,0.0,0.0,0.0,0.0,0.0,0.0,0.0,0.0,0.0,0.0,0.0,0.0,0.0,0.0,0.0,0.0,0.0,0.0,0.0,0.0,0.0,0.0,0.0,0.0,0.0,0.0,0.0,0.0,0.0,0.0,0.0,0.0,0.0,0.0,0.0,0.0,0.0,0.0,0.0,0.0,0.0,0.0,0.0,0.0,0.0,0.0,0.0,0.0,0.0,0.0,0.0,0.0,0.0,0.0,0.0,0.0,0.0,0.0,0.0,0.0,0.0,0.0,0.0,0.0,0.0,0.0,0.0,0.0,0.0,0.0,0.0,0.0,0.0,0.0,0.0,0.0,0.0,0.0,0.0,0.0,0.0,0.0,0.0,0.0,0.0,0.0,0.0,0.0,0.0,0.0,0.0,0.0,0.0,0.0,0.0,0.0,0.0,0.0,0.0,0.0,0.0,0.0,0.0,0.0,0.0,0.0,0.0,0.0,0.0,0.0,0.0,0.0,0.0,0.0,0.0,0.0,0.0,0.0,0.0,0.0,0.0,0.0,0.0,0.0,0.0,0.0,0.0,0.0,0.0,0.0,0.0,0.0,0.0,0.0,0.0,0.0,0.0,0.0,0.0,0.0,0.0,0.0,0.0,0.0,0.0,0.0,0.0,0.0,0.0,0.0,0.0,0.0,0.0,0.0,0.0,0.0,0.0,0.0,0.0,0.0,0.0,0.0,0.0,0.0,0.0,0.0,0.0,0.0,0.0,0.0,0.0,0.0,0.0,0.0,0.0,0.0,0.0,0.0,0.0,0.0,0.0,0.0,0.0,0.0,0.0,0.0,0.0,0.0,0.0,0.0,0.0,0.0,0.0,0.0,0.0,0.0,0.0,0.0,0.0,0.0,0.0,0.0,0.0,0.0,0.0,0.0,0.0,0.0,0.0,0.0,0.0,0.0,0.0,0.0,0.0,0.0,0.0,0.0,0.0,0.0,0.0,0.0,0.0,0.0,0.0,0.0,0.0,0.0,0.0,0.0,0.0,0.0,0.0,0.0,0.0,0.0,0.0,0.0,0.0,0.0,0.0,0.0,0.0,0.0,0.0,0.0,0.0,0.0,0.0,0.0,0.0,0.0,0.0,0.0,0.0,0.0,0.0,0.0,0.0,0.0,0.0,0.0,0.0,0.0,0.0,0.0,0.0,0.0,0.0,0.0,0.0,0.0,0.0,0.0,0.0,0.0,0.0,0.0,0.0,0.0,0.0,0.0,0.0,0.0,0.0,0.0,0.0,0.0,0.0,0.0,0.0,0.0,0.0,0.0,0.0,0.0,0.0,0.0,0.0,0.0,0.0,0.0,0.0,0.0,0.0,0.0,0.0,0.0,0.0,0.0,0.0,0.0,0.0,0.0,0.0,0.0,0.0,0.0,0.0,0.0,0.0,0.0,0.0,0.0,0.0,0.0,0.0,0.0,0.0,0.0,0.0,0.0,0.0,0.0,0.0,0.0,0.0,0.0,0.0,0.0,0.0,0.0,0.0,0.0,0.0,0.0,0.0,0.0,0.0,0.0,0.0,0.0,0.0,0.0,0.0,0.0,0.0,0.0,0.0,0.0,0.0,0.0,0.0,0.0,0.0,0.0,0.0,0.0,0.0,0.0,0.0,0.0,0.0,0.0,0.0,0.0,0.0,0.0,0.0,0.0,0.0,0.0,0.0,0.0,0.0,0.0,0.0,0.0,0.0,0.0,0.0,0.0,0.0,0.0,0.0,0.0,0.0,0.0,0.0,0.0,0.0,0.0,0.0,0.0,0.0,0.0,0.0,0.0,0.0,0.0,0.0,0.0,0.0,0.0,0.0,0.0,0.0,0.0,0.0,0.0,0.0,0.0,0.0,0.0,0.0,0.0,0.0,0.0,0.0,0.0,0.0,0.0,0.0,0.0,0.0,0.0,0.0,0.0,0.0,0.0,0.0,0.0,0.0,0.0,0.0,0.0,0.0,0.0,0.0,0.0,0.0,0.0,0.0,0.0,0.0,0.0,0.0,0.0,0.0,0.0,0.0,0.0,0.0,0.0,0.0,0.0,0.0,0.0,0.0,0.0,0.0,0.0,0.0,0.0,0.0,0.0,0.0,0.0,0.0,0.0,0.0,0.0,0.0,0.0,0.0,0.0,0.0,0.0,0.0,0.0,0.0,0.0,0.0,0.0,0.0,0.0,0.0,0.0,0.0,0.0,0.0,0.0,0.0,0.0,0.0,0.0,0.0,0.0,0.0,0.0,0.0,0.0,0.0,0.0,0.0,0.0,0.0,0.0,0.0,0.0,0.0,0.0,0.0,0.0,0.0,0.0,0.0,0.0,0.0,0.0,0.0,0.0,0.0,0.0,0.0,0.0,0.0,0.0,0.0,0.0,0.0,0.0,0.0,0.0,0.0,0.0,0.0,0.0,0.0,0.0,0.0,0.0,0.0,0.0,0.0,0.0,0.0,0.0,0.0,0.0,0.0,0.0,0.0,0.0,0.0,0.0,0.0,0.0,0.0,0.0,0.0,0.0,0.0,0.0,0.0,0.0,0.0,0.0,0.0,0.0,0.0,0.0,0.0,0.0,0.0,0.0,0.0,0.0,0.0,0.0,0.0,0.0,0.0,0.0,0.0,0.0,0.0,0.0,0.0,0.0,0.0,0.0,0.0,0.0,0.0,0.0,0.0,0.0,0.0,0.0,0.0,0.0,0.0,0.0,0.0,0.0,0.0,0.0,0.0,0.0,0.0,0.0,0.0,0.0,0.0,0.0,0.0,0.0,0.0,0.0,0.0,0.0,0.0,0.0,0.0,0.0,0.0,0.0,0.0,0.0,0.0,0.0,0.0,0.0,0.0,0.0,0.0,0.0,0.0,0.0,0.0,0.0,0.0,0.0,0.0,0.0,0.0,0.0,0.0,0.0,0.0,0.0,0.0,0.0,0.0,0.0,0.0,0.0,0.0,0.0,0.0,0.0,0.0,0.0,0.0,0.0,0.0,0.0,0.0,0.0,0.0,0.0,0.0,0.0,0.0,0.0,0.0,0.0,0.0,0.0,0.0,0.0,0.0,0.0,0.0,0.0,0.0,0.0,0.0,0.0,0.0,0.0,0.0,0.0,0.0,0.0,0.0,0.0,0.0,0.0,0.0,0.0,0.0,0.0,0.0,0.0,0.0,0.0,0.0,0.0,0.0,0.0,0.0,0.0,0.0,0.0,0.0,0.0,0.0,0.0,0.0,0.0,0.0,0.0,0.0,0.0,0.0,0.0,0.0,0.0,0.0,0.0,0.0,0.0,0.0,0.0,0.0,0.0,0.0,0.0,0.0,0.0,0.0,0.0,0.0,0.0,0.0,0.0,0.0,0.0,0.0,0.0,0.0,0.0,0.0,0.0,0.0,0.0,0.0,0.0,0.0,0.0,0.0,0.0,0.0,0.0,0.654,0.0,0.0,0.0,0.6723,0.0,0.0,0.0,0.0,0.0,0.0,0.0,0.0,0.0,0.0,0.0,0.0,0.0,0.0,0.0,0.0,0.0,0.0,0.0,0.0,0.0,0.0,0.0,0.0,0.0,0.0,0.0,0.0,0.0,0.0,0.0,0.0,0.0,0.0,0.0,0.0,0.0,0.0,0.0,0.0,0.0,0.0,0.0,0.0,0.0,0.0,0.0,0.0,0.0,0.0,0.0,0.0,0.0,0.0,0.0,0.0,0.0,0.0,0.0,0.0,0.0,0.0,0.0,0.0,0.0,0.0,0.0,0.0,0.0,0.0,0.0,0.0,0.0,0.0,0.0,0.0,0.0,0.0,0.0,0.0,0.0,0.0,0.0,0.0,0.0,0.0,0.0,0.0,0.0,0.0,0.0,0.0,0.0,0.0,0.0,0.0,0.0,0.0,0.0,0.0,0.0,0.0,0.0,0.0,0.0,0.0,0.0,0.0,0.0,0.0,0.6569,0.6595,0.6877,0.6898,0.668,0.0,0.0,0.0,0.0,0.0,0.0,0.0,0.0,0.0,0.0,0.0,0.0,0.0,0.0,0.0,0.0,0.0,0.0,0.0,0.0,0.0,0.0,0.0,0.0,0.0,0.0,0.0,0.0,0.0,0.0,0.0,0.0,0.0,0.0,0.0,0.0,0.0,0.0,0.0,0.0,0.0,0.0,0.0,0.0,0.0,0.0,0.0,0.0,0.0,0.0,0.0,0.0,0.0,0.0,0.0,0.0,0.0,0.0,0.0,0.0,0.0,0.0,0.0,0.0,0.0,0.0,0.0,0.0,0.0,0.0,0.0,0.0,0.0,0.0,0.0,0.0,0.0,0.0,0.0,0.0,0.0,0.0,0.0,0.0,0.0,0.0,0.0,0.0,0.0,0.0,0.0,0.0,0.0,0.0,0.0,0.0,0.0,0.0,0.0,0.0,0.0,0.0,0.0,0.0,0.0,0.0,0.0,0.0,0.0,0.0,0.0,0.0,0.6731,0.671,0.6732,0.0,0.0,0.0,0.0,0.0,0.0,0.0,0.0,0.0,0.0,0.0,0.0,0.0,0.0,0.0,0.0,0.0,0.0,0.0,0.0,0.0,0.0,0.0,0.0,0.0,0.0,0.0,0.0,0.0,0.0,0.0,0.0,0.0,0.0,0.0,0.0,0.0,0.0,0.0,0.0,0.0,0.0,0.0,0.0,0.0,0.0,0.0,0.0,0.0,0.0,0.0,0.0,0.0,0.0,0.0,0.0,0.0,0.0,0.0,0.0,0.0,0.0,0.0,0.0,0.0,0.0,0.0,0.0,0.0,0.0,0.0,0.0,0.0,0.0,0.0,0.0,0.0,0.0,0.0,0.0,0.0,0.0,0.0,0.0,0.0,0.0,0.0,0.0,0.0,0.0,0.0,0.0,0.0,0.0,0.0,0.0,0.0,0.0,0.0,0.0,0.0,0.0,0.0,0.0,0.0,0.0,0.0,0.0,0.0,0.0,0.694,0.7493,0.7,0.0,0.6786,0.0,0.0,0.0,0.0,0.0,0.0,0.0,0.0,0.0,0.0,0.0,0.0,0.0,0.0,0.0,0.0,0.0,0.0,0.0,0.0,0.0,0.0,0.0,0.0,0.0,0.0,0.0,0.0,0.0,0.0,0.0,0.0,0.0,0.0,0.0,0.0,0.0,0.0,0.0,0.0,0.0,0.0,0.0,0.0,0.0,0.0,0.0,0.0,0.0,0.0,0.0,0.0,0.0,0.0,0.0,0.0,0.0,0.0,0.0,0.0,0.0,0.0,0.0,0.0,0.0,0.0,0.0,0.0,0.0,0.0,0.0,0.0,0.0,0.0,0.0,0.0,0.0,0.0,0.0,0.0,0.0,0.0,0.0,0.0,0.0,0.0,0.0,0.0,0.0,0.0,0.0,0.0,0.0,0.0,0.0,0.0,0.0,0.0,0.0,0.0,0.0,0.0,0.0,0.0,0.0,0.0,0.0,0.0,0.0,0.0,0.7518,0.8116,0.7584,0.7339,0.0,0.0,0.0,0.0,0.0,0.0,0.0,0.0,0.0,0.0,0.0,0.0,0.0,0.0,0.0,0.0,0.0,0.0,0.0,0.0,0.0,0.0,0.0,0.0,0.0,0.0,0.0,0.0,0.0,0.0,0.0,0.0,0.0,0.0,0.0,0.0,0.0,0.0,0.0,0.0,0.0,0.0,0.0,0.0,0.0,0.0,0.0,0.0,0.0,0.0,0.0,0.0,0.0,0.0,0.0,0.0,0.0,0.0,0.0,0.0,0.0,0.0,0.0,0.0,0.0,0.0,0.0,0.0,0.0,0.0,0.0,0.0,0.0,0.0,0.0,0.0,0.0,0.0,0.0,0.0,0.0,0.0,0.0,0.0,0.0,0.0,0.0,0.0,0.0,0.0,0.0,0.0,0.0,0.0,0.0,0.0,0.0,0.0,0.0,0.0,0.0,0.0,0.0,0.0,0.0,0.0,0.0,0.0,0.0,0.0,0.7765,0.8112,0.8539,0.8377,0.814,0.7922,0.0,0.0,0.0,0.0,0.0,0.0,0.0,0.0,0.0,0.0,0.0,0.0,0.0,0.0,0.0,0.0,0.0,0.0,0.0,0.0,0.0,0.0,0.0,0.0,0.0,0.0,0.0,0.0,0.0,0.0,0.0,0.0,0.0,0.0,0.0,0.0,0.0,0.0,0.0,0.0,0.0,0.0,0.0,0.0,0.0,0.0,0.0,0.0,0.0,0.0,0.0,0.0,0.0,0.0,0.0,0.0,0.0,0.0,0.0,0.0,0.0,0.0,0.0,0.0,0.0,0.0,0.0,0.0,0.0,0.0,0.0,0.0,0.0,0.0,0.0,0.0,0.0,0.0,0.0,0.0,0.0,0.0,0.0,0.0,0.0,0.0,0.0,0.0,0.0,0.0,0.0,0.0,0.0,0.0,0.0,0.0,0.0,0.0,0.0,0.0,0.0,0.0,0.0,0.0,0.0,0.0,0.0,0.0,0.7816,0.8301,0.8646,0.8813,0.93,0.9068,0.0,0.0,0.0,0.0,0.0,0.0,0.0,0.0,0.0,0.0,0.0,0.0,0.0,0.0,0.0,0.0,0.0,0.0,0.0,0.0,0.0,0.0,0.0,0.0,0.0,0.0,0.0,0.0,0.0,0.0,0.0,0.0,0.0,0.0,0.0,0.0,0.0,0.0,0.0,0.0,0.0,0.0,0.0,0.0,0.0,0.0,0.0,0.0,0.0,0.0,0.0,0.0,0.0,0.0,0.0,0.0,0.0,0.0,0.0,0.0,0.0,0.0,0.0,0.0,0.0,0.0,0.0,0.0,0.0,0.0,0.0,0.0,0.0,0.0,0.0,0.0,0.0,0.0,0.0,0.0,0.0,0.0,0.0,0.0,0.0,0.0,0.0,0.0,0.0,0.0,0.0,0.0,0.0,0.0,0.0,0.0,0.0,0.0,0.0,0.0,0.0,0.0,0.0,0.0,0.0,0.0,0.0,0.0,0.0,0.888,0.9506,0.9855,0.9936,0.9788,0.9494,0.0,0.0,0.0,0.0,0.0,0.0,0.0,0.0,0.0,0.0,0.0,0.0,0.0,0.0,0.0,0.0,0.0,0.0,0.0,0.0,0.0,0.0,0.0,0.0,0.0,0.0,0.0,0.0,0.0,0.0,0.0,0.0,0.0,0.0,0.0,0.0,0.0,0.0,0.0,0.0,0.0,0.0,0.0,0.0,0.0,0.0,0.0,0.0,0.0,0.0,0.0,0.0,0.0,0.0,0.0,0.0,0.0,0.0,0.0,0.0,0.0,0.0,0.0,0.0,0.0,0.0,0.0,0.0,0.0,0.0,0.0,0.0,0.0,0.0,0.0,0.0,0.0,0.0,0.0,0.0,0.0,0.0,0.0,0.0,0.0,0.0,0.0,0.0,0.0,0.0,0.0,0.0,0.0,0.0,0.0,0.0,0.0,0.0,0.0,0.0,0.0,0.0,0.0,0.0,0.0,0.0,0.0,0.0,0.0,0.9858,1.0346,1.0614,1.0667,1.0278,0.9956,0.0,0.0,0.0,0.0,0.0,0.0,0.0,0.0,0.0,0.0,0.0,0.0,0.0,0.0,0.0,0.0,0.0,0.0,0.0,0.0,0.0,0.0,0.0,0.0,0.0,0.0,0.0,0.0,0.0,0.0,0.0,0.0,0.0,0.0,0.0,0.0,0.0,0.0,0.0,0.0,0.0,0.0,0.0,0.0,0.0,0.0,0.0,0.0,0.0,0.0,0.0,0.0,0.0,0.0,0.0,0.0,0.0,0.0,0.0,0.0,0.0,0.0,0.0,0.0,0.0,0.0,0.0,0.0,0.0,0.0,0.0,0.0,0.0,0.0,0.0,0.0,0.0,0.0,0.0,0.0,0.0,0.0,0.0,0.0,0.0,0.0,0.0,0.0,0.0,0.0,0.0,0.0,0.0,0.0,0.0,0.0,0.0,0.0,0.0,0.0,0.0,0.0,0.0,0.0,0.0,0.0,0.0,0.0,0.9998,1.066,1.0806,1.0921,1.0918,1.0852,1.0529,0.0,0.0,0.0,0.0,0.0,0.0,0.0,0.0,0.0,0.0,0.0,0.0,0.0,0.0,0.0,0.0,0.0,0.0,0.0,0.0,0.0,0.0,0.0,0.0,0.0,0.0,0.0,0.0,0.0,0.0,0.0,0.0,0.0,0.0,0.0,0.0,0.0,0.0,0.0,0.0,0.0,0.0,0.0,0.0,0.0,0.0,0.0,0.0,0.0,0.0,0.0,0.0,0.0,0.0,0.0,0.0,0.0,0.0,0.0,0.0,0.0,0.0,0.0,0.0,0.0,0.0,0.0,0.0,0.0,0.0,0.0,0.0,0.0,0.0,0.0,0.0,0.0,0.0,0.0,0.0,0.0,0.0,0.0,0.0,0.0,0.0,0.0,0.0,0.0,0.0,0.0,0.0,0.0,0.0,0.0,0.0,0.0,0.0,0.0,0.0,0.0,0.0,0.0,0.0,0.0,0.0,0.0,0.0,0.0,1.1405,1.1901,1.218,1.22,1.1726,1.136,0.0,0.0,0.0,0.0,0.0,0.0,0.0,0.0,0.0,0.0,0.0,0.0,0.0,0.0,0.0,0.0,0.0,0.0,0.0,0.0,0.0,0.0,0.0,0.0,0.0,0.0,0.0,0.0,0.0,0.0,0.0,0.0,0.0,0.0,0.0,0.0,0.0,0.0,0.0,0.0,0.0,0.0,0.0,0.0,0.0,0.0,0.0,0.0,0.0,0.0,0.0,0.0,0.0,0.0,0.0,0.0,0.0,0.0,0.0,0.0,0.0,0.0,0.0,0.0,0.0,0.0,0.0,0.0,0.0,0.0,0.0,0.0,0.0,0.0,0.0,0.0,0.0,0.0,0.0,0.0,0.0,0.0,0.0,0.0,0.0,0.0,0.0,0.0,0.0,0.0,0.0,0.0,0.0,0.0,0.0,0.0,0.0,0.0,0.0,0.0,0.0,0.0,0.0,0.0,0.0,0.0,0.0,0.0,0.0,1.366,1.3814,1.3963,1.4023,1.3333,1.2698,1.2133,0.0,0.0,0.0,0.0,0.0,0.0,0.0,0.0,0.0,0.0,0.0,0.0,0.0,0.0,0.0,0.0,0.0,0.0,0.0,0.0,0.0,0.0,0.0,0.0,0.0,0.0,0.0,0.0,0.0,0.0,0.0,0.0,0.0,0.0,0.0,0.0,0.0,0.0,0.0,0.0,0.0,0.0,0.0,0.0,0.0,0.0,0.0,0.0,0.0,0.0,0.0,0.0,0.0,0.0,0.0,0.0,0.0,0.0,0.0,0.0,0.0,0.0,0.0,0.0,0.0,0.0,0.0,0.0,0.0,0.0,0.0,0.0,0.0,0.0,0.0,0.0,0.0,0.0,0.0,0.0,0.0,0.0,0.0,0.0,0.0,0.0,0.0,0.0,0.0,0.0,0.0,0.0,0.0,0.0,0.0,0.0,0.0,0.0,0.0,0.0,0.0,0.0,0.0,0.0,0.0,0.0,0.0,0.0,1.7104,1.6502,1.6215,1.6231,1.54,1.44,0.0,0.0,0.0,0.0,0.0,0.0,0.0,0.0,0.0,0.0,0.0,0.0,0.0,0.0,0.0,0.0,0.0,0.0,0.0,0.0,0.0,0.0,0.0,0.0,0.0,0.0,0.0,0.0,0.0,0.0,0.0,0.0,0.0,0.0,0.0,0.0,0.0,0.0,0.0,0.0,0.0,0.0,0.0,0.0,0.0,0.0,0.0,0.0,0.0,0.0,0.0,0.0,0.0,0.0,0.0,0.0,0.0,0.0,0.0,0.0,0.0,0.0,0.0,0.0,0.0,0.0,0.0,0.0,0.0,0.0,0.0,0.0,0.0,0.0,0.0,0.0,0.0,0.0,0.0,0.0,0.0,0.0,0.0,0.0,0.0,0.0,0.0,0.0,0.0,0.0,0.0,0.0,0.0,0.0,0.0,0.0,0.0,0.0,0.0,0.0,0.0,0.0,0.0,0.0,0.0,0.0,0.0,0.0,0.0,1.9756,2.059,2.0081,1.8215,1.657,1.5535,0.0,0.0,0.0,0.0,0.0,0.0,0.0,0.0,0.0,0.0,0.0,0.0,0.0,0.0,0.0,0.0,0.0,0.0,0.0,0.0,0.0,0.0,0.0,0.0,0.0,0.0,0.0,0.0,0.0,0.0,0.0,0.0,0.0,0.0,0.0,0.0,0.0,0.0,0.0,0.0,0.0,0.0,0.0,0.0,0.0,0.0,0.0,0.0,0.0,0.0,0.0,0.0,0.0,0.0,0.0,0.0,0.0,0.0,0.0,0.0,0.0,0.0,0.0,0.0,0.0,0.0,0.0,0.0,0.0,0.0,0.0,0.0,0.0,0.0,0.0,0.0,0.0,0.0,0.0,0.0,0.0,0.0,0.0,0.0,0.0,0.0,0.0,0.0,0.0,0.0,0.0,0.0,0.0,0.0,0.0,0.0,0.0,0.0,0.0,0.0,0.0,0.0,0.0,0.0,0.0,0.0,0.0,0.0,1.9229,2.1325,2.2619,2.2398,2.0606,1.8941,1.7541,0.0,0.0,0.0,0.0,0.0,0.0,0.0,0.0,0.0,0.0,0.0,0.0,0.0,0.0,0.0,0.0,0.0,0.0,0.0,0.0,0.0,0.0,0.0,0.0,0.0,0.0,0.0,0.0,0.0,0.0,0.0,0.0,0.0,0.0,0.0,0.0,0.0,0.0,0.0,0.0,0.0,0.0,0.0,0.0,0.0,0.0,0.0,0.0,0.0,0.0,0.0,0.0,0.0,0.0,0.0,0.0,0.0,0.0,0.0,0.0,0.0,0.0,0.0,0.0,0.0,0.0,0.0,0.0,0.0,0.0,0.0,0.0,0.0,0.0,0.0,0.0,0.0,0.0,0.0,0.0,0.0,0.0,0.0,0.0,0.0,0.0,0.0,0.0,0.0,0.0,0.0,0.0,0.0,0.0,0.0,0.0,0.0,0.0,0.0,0.0,0.0,0.0,0.0,0.0,0.0,0.0,0.0,0.0,2.0707,2.2189,2.3383,2.3717,2.3088,2.1617,1.9724,0.0,0.0,0.0,0.0,0.0,0.0,0.0,0.0,0.0,0.0,0.0,0.0,0.0,0.0,0.0,0.0,0.0,0.0,0.0,0.0,0.0,0.0,0.0,0.0,0.0,0.0,0.0,0.0,0.0,0.0,0.0,0.0,0.0,0.0,0.0,0.0,0.0,0.0,0.0,0.0,0.0,0.0,0.0,0.0,0.0,0.0,0.0,0.0,0.0,0.0,0.0,0.0,0.0,0.0,0.0,0.0,0.0,0.0,0.0,0.0,0.0,0.0,0.0,0.0,0.0,0.0,0.0,0.0,0.0,0.0,0.0,0.0,0.0,0.0,0.0,0.0,0.0,0.0,0.0,0.0,0.0,0.0,0.0,0.0,0.0,0.0,0.0,0.0,0.0,0.0,0.0,0.0,0.0,0.0,0.0,0.0,0.0,0.0,0.0,0.0,0.0,0.0,0.0,0.0,0.0,0.0,0.0,0.0,2.1649,2.3452,2.428,2.4617,2.4483,2.1747,1.9769,0.0,0.0,0.0,0.0,0.0,0.0,0.0,0.0,0.0,0.0,0.0,0.0,0.0,0.0,0.0,0.0,0.0,0.0,0.0,0.0,0.0,0.0,0.0,0.0,0.0,0.0,0.0,0.0,0.0,0.0,0.0,0.0,0.0,0.0,0.0,0.0,0.0,0.0,0.0,0.0,0.0,0.0,0.0,0.0,0.0,0.0,0.0,0.0,1.8619,0.0,0.0,0.0,0.0,0.0,0.0,0.0,0.0,0.0,0.0,0.0,0.0,0.0,0.0,0.0,0.0,0.0,0.0,0.0,0.0,0.0,0.0,0.0,0.0,0.0,0.0,0.0,0.0,0.0,0.0,0.0,0.0,0.0,0.0,0.0,0.0,0.0,0.0,0.0,0.0,0.0,0.0,0.0,0.0,0.0,0.0,0.0,0.0,0.0,0.0,0.0,0.0,0.0,0.0,0.0,0.0,0.0,0.0,0.0,2.2106,2.3389,2.4372,2.4721,2.4367,2.2193,2.0553,0.0,0.0,0.0,0.0,0.0,0.0,0.0,0.0,0.0,0.0,0.0,0.0,0.0,0.0,0.0,0.0,0.0,0.0,0.0,0.0,0.0,0.0,0.0,0.0,0.0,0.0,0.0,0.0,0.0,0.0,0.0,0.0,0.0,0.0,0.0,0.0,0.0,0.0,0.0,0.0,0.0,0.0,0.0,0.0,0.0,0.0,0.0,0.0,0.0,0.0,0.0,0.0,0.0,0.0,0.0,0.0,0.0,0.0,0.0,0.0,0.0,0.0,0.0,0.0,0.0,0.0,0.0,0.0,0.0,0.0,0.0,0.0,0.0,0.0,0.0,0.0,0.0,0.0,0.0,0.0,0.0,0.0,0.0,0.0,0.0,0.0,0.0,0.0,0.0,0.0,0.0,0.0,0.0,0.0,0.0,0.0,0.0,0.0,0.0,0.0,0.0,0.0,0.0,0.0,0.0,0.0,0.0,2.1351,2.2573,2.3192,2.4247,2.4563,2.4036,2.2802,2.1583,2.0407,0.0,0.0,0.0,0.0,0.0,0.0,0.0,0.0,0.0,0.0,0.0,0.0,0.0,0.0,0.0,0.0,0.0,0.0,0.0,0.0,0.0,0.0,0.0,0.0,0.0,0.0,0.0,0.0,0.0,0.0,0.0,0.0,0.0,0.0,0.0,0.0,0.0,0.0,1.3406,1.6592,0.0,0.0,0.0,0.0,0.0,0.0,0.0,0.0,2.2914,0.0,0.0,0.0,0.0,0.0,0.0,0.0,0.0,0.0,0.0,0.0,0.0,0.0,0.0,0.0,0.0,0.0,0.0,0.0,0.0,0.0,0.0,0.0,0.0,0.0,0.0,0.0,0.0,0.0,0.0,0.0,0.0,0.0,0.0,0.0,0.0,0.0,0.0,0.0,0.0,0.0,0.0,0.0,0.0,0.0,0.0,0.0,0.0,0.0,0.0,0.0,0.0,0.0,0.0,0.0,0.0,2.1492,2.2886,2.3879,2.4464,2.4708,2.474,2.4621,2.3421,2.2417,2.1598,0.0,0.0,0.0,0.0,0.0,0.0,0.0,0.0,0.0,0.0,0.0,0.0,0.0,0.0,0.0,0.0,0.0,0.0,0.0,0.0,0.0,0.0,0.0,0.0,0.0,0.0,0.0,0.0,0.0,0.0,0.0,0.0,0.0,0.0,0.0,0.0,0.0,0.0,0.0,1.8573,2.1062,0.0,0.0,0.0,0.0,0.0,0.0,0.0,0.0,2.4997,0.0,0.0,0.0,0.0,0.0,0.0,0.0,0.0,0.0,0.0,0.0,0.0,0.0,0.0,0.0,0.0,0.0,0.0,0.0,0.0,0.0,0.0,0.0,0.0,0.0,0.0,0.0,0.0,0.0,0.0,0.0,0.0,0.0,0.0,0.0,0.0,0.0,0.0,0.0,0.0,0.0,0.0,0.0,0.0,0.0,0.0,0.0,0.0,0.0,0.0,0.0,0.0,0.0,0.0,0.0,2.1423,2.3423,2.4544,2.4837,2.4824,2.4969,2.5272,2.374,2.2754,0.0,0.0,0.0,0.0,0.0,0.0,0.0,0.0,0.0,0.0,0.0,0.0,0.0,0.0,0.0,0.0,0.0,0.0,0.0,0.0,0.0,0.0,0.0,0.0,0.0,0.0,0.0,0.0,0.0,0.0,0.0,0.0,0.0,0.0,0.0,0.0,0.0,0.0,0.0,0.0,2.0913,2.3493,2.6299,0.0,0.0,0.0,0.0,0.0,0.0,2.8226,2.7307,0.0,0.0,0.0,0.0,0.0,0.0,0.0,0.0,0.0,0.0,0.0,0.0,0.0,0.0,0.0,0.0,0.0,0.0,0.0,0.0,0.0,0.0,0.0,0.0,0.0,0.0,0.0,0.0,0.0,0.0,0.0,0.0,0.0,0.0,0.0,0.0,0.0,0.0,0.0,0.0,0.0,0.0,0.0,0.0,0.0,0.0,0.0,0.0,0.0,0.0,0.0,0.0,0.0,0.0,0.0,2.1394,2.3818,2.5079,2.5079,2.4909,2.5141,2.5732,2.3923,2.2888,0.0,0.0,0.0,0.0,0.0,0.0,0.0,0.0,0.0,0.0,0.0,0.0,0.0,0.0,0.0,0.0,0.0,0.0,0.0,0.0,0.0,0.0,0.0,0.0,0.0,0.0,0.0,0.0,0.0,0.0,0.0,0.0,0.0,0.0,0.0,0.0,0.0,0.0,0.0,0.0,0.0,2.5763,2.8743,2.8819,0.0,0.0,0.0,0.0,3.0145,3.0047,0.0,0.0,0.0,0.0,0.0,0.0,0.0,0.0,0.0,0.0,0.0,0.0,0.0,0.0,0.0,0.0,0.0,0.0,0.0,0.0,0.0,0.0,0.0,0.0,0.0,0.0,0.0,0.0,0.0,0.0,0.0,0.0,0.0,0.0,0.0,0.0,0.0,0.0,0.0,0.0,0.0,0.0,0.0,0.0,0.0,0.0,0.0,0.0,0.0,0.0,0.0,0.0,0.0,0.0,0.0,0.0,2.2682,2.466,2.5703,2.566,2.5154,2.5181,2.5747,2.3911,2.2888,0.0,0.0,0.0,0.0,0.0,0.0,0.0,0.0,0.0,0.0,0.0,0.0,0.0,0.0,0.0,0.0,0.0,0.0,0.0,0.0,0.0,0.0,0.0,0.0,0.0,0.0,0.0,0.0,0.0,0.0,0.0,0.0,0.0,0.0,0.0,0.0,0.0,0.0,0.0,0.0,0.0,2.7099,2.9465,3.044,3.0936,0.0,0.0,3.2764,3.3358,3.2523,0.0,0.0,0.0,0.0,0.0,0.0,0.0,0.0,0.0,0.0,0.0,0.0,0.0,0.0,0.0,0.0,0.0,0.0,0.0,0.0,0.0,0.0,0.0,0.0,0.0,0.0,0.0,0.0,0.0,0.0,0.0,0.0,0.0,0.0,0.0,0.0,0.0,0.0,0.0,0.0,0.0,0.0,0.0,0.0,0.0,0.0,0.0,0.0,0.0,0.0,0.0,0.0,0.0,0.0,0.0,2.1369,2.2917,2.517,2.6371,2.6342,2.5732,2.5718,2.6342,2.4486,2.3287,0.0,0.0,0.0,0.0,0.0,0.0,0.0,0.0,0.0,0.0,0.0,0.0,0.0,0.0,0.0,0.0,0.0,0.0,0.0,0.0,0.0,0.0,0.0,0.0,0.0,0.0,0.0,0.0,0.0,0.0,0.0,0.0,0.0,0.0,0.0,0.0,0.0,0.0,0.0,0.0,0.0,0.0,2.9607,3.0997,0.0,0.0,0.0,3.2737,3.3138,0.0,0.0,0.0,0.0,0.0,0.0,0.0,0.0,0.0,0.0,0.0,0.0,0.0,0.0,0.0,0.0,0.0,0.0,0.0,0.0,0.0,0.0,0.0,0.0,0.0,0.0,0.0,0.0,0.0,0.0,0.0,0.0,0.0,0.0,0.0,0.0,0.0,0.0,0.0,0.0,0.0,0.0,0.0,0.0,0.0,0.0,0.0,0.0,0.0,0.0,0.0,0.0,0.0,0.0,0.0,0.0,0.0,2.3157,2.556,2.6807,2.6778,2.6153,2.6123,2.6734,2.5064,0.0,0.0,0.0,0.0,0.0,0.0,0.0,0.0,0.0,0.0,0.0,0.0,0.0,0.0,0.0,0.0,0.0,0.0,0.0,0.0,0.0,0.0,0.0,0.0,0.0,0.0,0.0,1.292,0.0,0.0,0.0,0.0,0.0,0.0,0.0,0.0,0.0,0.0,0.0,0.0,0.0,0.0,2.8634,2.9913,3.1501,3.2377,0.0,0.0,3.2973,3.3099,3.3666,3.344,0.0,0.0,0.0,0.0,0.0,0.0,0.0,0.0,0.0,0.0,0.0,0.0,0.0,0.0,0.0,0.0,0.0,0.0,0.0,0.0,0.0,0.0,0.0,0.0,0.0,0.0,0.0,0.0,0.0,0.0,0.0,0.0,0.0,0.0,0.0,0.0,0.0,0.0,0.0,0.0,0.0,0.0,0.0,0.0,0.0,0.0,0.0,0.0,0.0,0.0,0.0,0.0,0.0,0.0,0.0,2.3818,2.579,2.6821,2.6778,2.6139,2.6124,2.6749,2.546,2.4447,0.0,0.0,0.0,0.0,0.0,0.0,0.0,0.0,0.0,0.0,0.0,0.0,0.0,0.0,0.0,0.0,0.0,0.0,0.0,0.0,0.0,0.0,0.0,0.0,0.0,0.0,0.0,0.0,0.0,0.0,0.0,0.0,0.0,0.0,0.0,0.0,0.0,0.0,0.0,0.0,0.0,3.0037,3.0806,3.2249,3.3269,0.0,0.0,3.4619,3.4568,3.4841,3.4761,3.3722,0.0,0.0,0.0,0.0,0.0,0.0,0.0,0.0,0.0,0.0,0.0,0.0,0.0,0.0,0.0,0.0,0.0,0.0,0.0,0.0,0.0,0.0,0.0,0.0,0.0,0.0,0.0,0.0,0.0,0.0,0.0,0.0,0.0,0.0,0.0,0.0,0.0,0.0,0.0,0.0,0.0,0.0,0.0,0.0,0.0,0.0,0.0,0.0,0.0,0.0,0.0,0.0,0.0,2.2748,2.3905,2.6589,2.778,2.7361,2.71,2.71,2.736,2.6097,2.5112,0.0,0.0,0.0,0.0,0.0,0.0,0.0,0.0,0.0,0.0,0.0,0.0,0.0,0.0,0.0,0.0,0.0,0.0,0.0,0.0,0.0,0.0,0.0,0.0,0.0,0.0,0.0,0.0,2.4801,2.587,2.5602,0.0,0.0,0.0,0.0,0.0,0.0,0.0,0.0,0.0,0.0,2.9927,3.0724,3.2485,0.0,0.0,3.3954,3.4524,3.4637,3.4753,3.4407,3.315,3.2264,0.0,0.0,0.0,0.0,0.0,0.0,0.0,0.0,0.0,0.0,0.0,0.0,0.0,0.0,0.0,0.0,0.0,0.0,0.0,0.0,0.0,0.0,0.0,0.0,0.0,0.0,0.0,0.0,0.0,0.0,0.0,0.0,0.0,0.0,0.0,0.0,0.0,0.0,0.0,0.0,0.0,0.0,0.0,0.0,0.0,0.0,0.0,0.0,0.0,0.0,0.0,0.0,2.3418,2.4469,2.7257,2.8376,2.7711,2.771,2.771,2.7681,2.6649,2.5778,0.0,0.0,0.0,0.0,0.0,0.0,0.0,0.0,0.0,0.0,0.0,0.0,0.0,0.0,0.0,0.0,0.0,0.0,0.0,0.0,0.0,0.0,0.0,0.0,0.0,0.0,0.0,0.0,2.7219,2.7741,2.6494,0.0,0.0,0.0,0.0,0.0,0.0,0.0,0.0,0.0,0.0,3.079,3.1615,3.3234,3.4228,3.3886,3.4487,3.4968,3.4878,3.5087,3.4808,3.36,0.0,0.0,0.0,0.0,0.0,0.0,0.0,0.0,0.0,0.0,0.0,0.0,0.0,0.0,0.0,0.0,0.0,0.0,0.0,0.0,0.0,0.0,0.0,0.0,0.0,0.0,0.0,0.0,0.0,0.0,0.8839,0.0,0.0,0.0,0.0,0.0,0.0,0.0,0.0,0.0,0.0,0.0,0.0,0.0,0.0,0.0,0.0,0.0,0.0,0.0,0.0,0.0,0.0,2.3879,2.5732,2.7722,2.8405,2.7768,2.771,2.7739,2.7724,2.7113,2.6473,2.579,0.0,0.0,0.0,0.0,0.0,0.0,0.0,0.0,0.0,0.0,0.0,0.0,0.0,0.0,0.0,0.0,0.0,0.0,0.0,0.0,0.0,0.0,0.0,0.0,0.0,0.0,2.563,2.7259,2.7979,0.0,0.0,0.0,0.0,0.0,0.0,0.0,0.0,0.0,0.0,3.1293,3.3037,3.3869,3.4667,3.5228,3.5404,3.6053,3.6305,3.5617,3.6204,3.6512,0.0,0.0,0.0,0.0,0.0,0.0,0.0,0.0,0.0,0.0,0.0,0.0,0.0,0.0,0.0,0.0,0.0,0.0,0.0,0.0,0.0,0.0,0.0,0.0,0.0,0.0,0.0,1.0929,1.117,0.0,0.0,0.0,0.0,0.0,0.0,0.0,0.0,0.0,0.0,0.0,2.173,2.1902,0.0,0.0,0.0,0.0,0.0,0.0,0.0,0.0,0.0,0.0,0.0,0.0,2.5371,2.6502,2.8781,2.9653,2.9,2.8957,2.8957,2.8957,2.8376,2.7562,2.6502,0.0,0.0,0.0,0.0,0.0,0.0,0.0,0.0,0.0,0.0,0.0,0.0,0.0,0.0,0.0,0.0,0.0,0.0,0.0,0.0,0.0,0.0,0.0,0.0,0.0,2.688,0.0,0.0,0.0,0.0,0.0,0.0,0.0,0.0,0.0,0.0,0.0,3.0236,3.0781,3.228,3.3676,3.4628,3.5324,3.5988,0.0,0.0,0.0,0.0,0.0,0.0,0.0,0.0,0.0,0.0,0.0,0.0,0.0,0.0,3.3019,3.1128,3.0619,3.0635,3.1198,0.0,0.0,0.0,0.0,0.0,0.0,0.0,0.0,0.0,0.0,0.0,0.0,0.0,0.0,0.0,0.0,1.5074,0.0,0.0,0.0,0.0,0.0,0.0,0.0,0.0,2.2916,2.3643,2.4026,2.3942,2.3717,0.0,2.3479,2.2301,0.0,0.0,0.0,0.0,0.0,0.0,0.0,0.0,2.6241,2.7157,2.9188,3.003,2.9639,2.9595,2.9595,2.9581,2.8768,2.8173,2.7781,2.6923,2.5689,0.0,0.0,0.0,0.0,0.0,0.0,0.0,0.0,0.0,0.0,0.0,0.0,0.0,0.0,0.0,0.0,0.0,0.0,0.0,0.0,0.0,0.0,0.0,2.9427,0.0,0.0,0.0,0.0,0.0,0.0,0.0,0.0,0.0,2.7589,3.0031,3.2114,3.2636,3.3917,3.5143,3.6139,0.0,0.0,0.0,0.0,0.0,0.0,0.0,3.8249,3.8014,3.8732,3.9297,3.9093,3.8738,3.9142,4.1168,0.0,0.0,3.5199,3.4626,3.4748,3.5303,3.5034,3.4958,3.5798,3.616,3.6015,0.0,0.0,0.0,0.0,0.0,0.0,0.0,0.0,1.6679,1.6967,0.0,1.7496,0.0,0.0,0.0,0.0,0.0,2.1354,0.0,0.0,2.5873,2.6422,2.5758,2.5843,2.5878,2.5836,2.5274,2.4969,2.4876,2.3122,0.0,0.0,0.0,0.0,0.0,0.0,2.6474,2.7738,2.9044,2.9653,2.9639,2.9668,2.9668,2.961,2.8493,2.842,2.9421,2.7331,2.6533,2.7565,2.4783,0.0,0.0,0.0,0.0,0.0,0.0,0.0,0.0,0.0,0.0,0.0,0.0,0.0,0.0,0.0,0.0,0.0,0.0,0.0,0.0,2.9946,0.0,0.0,0.0,0.0,0.0,0.0,0.0,0.0,0.0,0.0,3.0848,3.1969,3.3339,3.4684,0.0,0.0,0.0,0.0,3.9666,3.9873,3.9885,3.9849,3.9903,4.0703,4.1062,4.0325,0.0,0.0,4.0718,4.0717,4.1324,4.2702,4.2173,4.0714,3.8287,3.8558,3.9178,3.9334,3.9444,3.9934,4.0628,4.0221,3.9777,1.7532,0.0,0.0,0.0,0.0,1.6521,1.7195,1.835,1.8735,1.8976,1.9119,1.9514,0.0,0.0,0.0,0.0,0.0,0.0,2.3909,2.5228,2.6648,2.7577,2.8068,2.7946,2.7881,2.7867,2.8101,2.8014,2.7606,2.7505,2.6171,2.3778,0.0,0.0,0.0,0.0,2.7564,2.8462,3.0088,3.0741,3.0321,3.0727,3.0756,3.0306,3.0378,3.0146,2.9624,2.9769,2.9203,2.7782,2.8144,0.0,0.0,0.0,0.0,0.0,0.0,0.0,0.0,0.0,0.0,0.0,0.0,0.0,0.0,0.0,0.0,0.0,0.0,0.0,3.154,3.2501,3.2719,0.0,0.0,0.0,0.0,0.0,0.0,0.0,0.0,0.0,3.5173,3.5614,3.5991,0.0,0.0,3.8126,3.9088,3.9398,3.9736,4.0318,0.0,0.0,0.0,4.0839,4.1139,4.1002,4.234,4.3136,4.2339,4.32,4.4116,4.4558,4.4395,4.3916,4.3224,4.1994,4.1683,4.2636,4.2597,4.2524,4.3231,4.367,4.3426,2.0096,1.9514,1.8482,1.8289,1.8675,1.8662,1.9289,2.0273,2.0613,2.0745,2.0769,2.1091,2.081,2.0098,2.0306,0.0,0.0,0.0,2.4734,2.6375,2.7158,2.8183,2.923,2.9132,2.9203,2.9479,2.9813,2.9798,2.945,2.9813,2.9029,2.7143,0.0,0.0,2.6576,2.7564,2.855,2.945,3.0553,3.1206,3.1351,3.1713,3.1467,3.0656,3.1192,3.1133,3.0393,3.0596,3.0277,2.9262,2.9595,2.8666,0.0,0.0,0.0,0.0,0.0,0.0,0.0,0.0,0.0,0.0,0.0,2.1105,0.0,0.0,0.0,0.0,3.0075,3.2004,3.4642,3.4637,0.0,0.0,0.0,0.0,0.0,0.0,0.0,3.3568,3.4871,3.6246,3.7553,3.7935,3.8033,3.7973,3.858,3.9276,3.9848,0.0,4.1025,4.1516,4.1527,4.1591,4.2004,4.2527,4.2965,4.3171,4.383,4.4315,4.3987,4.4675,4.549,4.6025,4.5815,4.544,4.544,4.4438,4.3867,4.4916,4.4849,4.4888,4.5781,4.6129,4.5897,2.2351,2.2851,2.0408,1.9927,2.0771,2.0832,2.1407,2.2321,2.2318,2.2333,2.2333,2.2333,2.2093,2.1662,2.1401,0.0,2.3557,2.3985,2.5328,2.7387,2.7641,2.8493,2.9813,2.9827,3.0146,3.0743,3.0742,3.0757,3.0757,3.0757,3.0757,3.0713,2.9595,2.8637,2.7999,2.8594,2.9493,3.0656,3.0771,3.141,3.254,3.2511,3.1931,3.08,3.1293,3.1583,3.1539,3.0465,3.0364,3.1437,2.9842,2.9392,3.038,0.0,0.0,0.0,0.0,0.0,0.0,0.0,0.0,0.0,0.0,0.0,0.0,0.0,0.0,0.0,3.3315,0.0,3.6945,3.6426,0.0,0.0,0.0,3.3627,3.3007,3.427,3.5154,3.5163,0.0,0.0,3.8575,0.0,3.9641,3.9585,4.0165,4.064,4.0768,4.2011,4.3025,4.3072,4.3801,4.4314,4.4174,4.4823,4.541,4.5652,4.5472,4.5083,4.5204,4.549,4.6124,4.7327,4.668,4.5879,4.587,4.603,4.6246,4.6279,4.6434,4.6909,4.7897,4.7706,4.7624,2.2915,2.3565,2.2939,2.2574,2.2469,2.2879,2.3192,2.3433,2.3433,2.3416,2.3433,2.3416,2.3626,2.3976,2.3875,2.4142,2.4727,2.5374,2.6558,2.8137,2.8835,3.0088,3.177,3.1815,3.1887,3.2048,3.2063,3.2063,3.2047,3.2063,3.2032,3.2018,3.1742,3.1032,2.9973,3.0524,3.0973,3.1293,3.2296,3.2951,3.324,3.2758,3.2351,3.2061,3.2192,3.2264,3.225,3.1989,3.196,3.2206,3.0901,3.0263,3.0583,2.9223,0.0,0.0,0.0,0.0,0.0,0.0,0.0,0.0,0.0,2.7428,2.8244,0.0,3.3501,0.0,3.6278,3.7717,3.7835,3.7672,0.0,0.0,3.6648,3.6122,3.5966,3.6782,3.7382,3.7488,3.8503,3.9448,4.0002,4.0757,4.1415,4.1896,4.1604,4.1563,4.2182,4.3054,4.3669,4.3786,4.4454,4.49,4.5006,4.5205,4.5596,4.5766,4.5814,4.5693,4.5359,4.6341,4.7254,4.7616,4.7469,4.7231,4.7186,4.7284,4.7479,4.7859,4.7735,4.7834,4.8948,4.902,4.9002,2.2597,2.3623,2.3623,2.3632,2.3664,2.3782,2.3806,2.3806,2.3806,2.3806,2.3801,2.4013,2.4396,2.4862,2.5059,2.5296,2.5636,2.6633,2.7737,2.8929,2.996,3.1327,3.2917,3.2948,3.3093,3.3338,3.3338,3.3352,3.3352,3.3352,3.3483,3.3775,3.379,3.3558,3.3108,3.2353,3.209,3.2396,3.3692,3.4346,3.4361,3.4254,3.3788,3.2991,3.3499,3.3514,3.2962,3.2933,3.2948,3.2919,3.1975,3.1178,3.0642,3.1128,3.0595,0.0,0.0,0.0,0.0,0.0,0.0,0.0,0.0,0.0,0.0,0.0,3.5318,3.6118,3.7688,3.8647,3.8649,3.8645,3.8768,3.9129,3.848,3.8156,3.8518,3.8929,3.9195,3.9282,4.0278,4.114,4.1552,4.2244,4.2866,4.3237,4.3208,4.3184,4.336,4.4208,4.4928,4.4945,4.5888,4.6674,4.6803,4.7027,4.7245,4.7428,4.7597,4.7421,4.6579,4.7381,4.8123,4.7779,4.7689,4.7689,4.7689,4.7689,4.7858,4.8176,4.8145,4.8355,4.9276,4.9509,4.9509,2.2197,2.3488,2.3594,2.4061,2.4669,2.4271,2.4071,2.3998,2.4071,2.4143,2.4222,2.4656,2.4981,2.5232,2.5712,2.616,2.6643,2.7751,2.8855,2.9906,3.1073,3.2328,3.3603,3.362,3.3877,3.4382,3.4397,3.4457,3.453,3.4545,3.4864,3.5494,3.5505,3.5781,3.6199,3.4109,3.3282,3.385,3.4942,3.5523,3.5523,3.6025,3.5517,3.4012,3.4869,3.4884,3.3808,3.3647,3.3603,3.3605,3.305,3.2283,3.1256,3.2654,3.2972,0.0,2.9994,0.0,0.0,0.0,0.0,0.0,0.0,0.0,0.0,3.5566,3.685,3.75,3.8477,3.9197,3.9561,3.968,3.9989,4.0544,4.0288,4.0242,4.072,4.0948,4.1036,4.0941,4.2131,4.2945,4.2956,4.3605,4.4044,4.4115,4.4676,4.4945,4.4635,4.5507,4.6349,4.646,4.7618,4.8357,4.8778,4.901,4.9026,4.9279,4.9108,4.9066,4.8056,4.8298,4.8485,4.787,4.7689,4.7689,4.7689,4.7689,4.7785,4.8065,4.8098,4.8356,4.9113,4.9329,4.9393,2.37,2.4036,2.4667,2.5284,2.5781,2.5715,2.5408,2.5047,2.548,2.5913,2.6316,2.6584,2.6712,2.6779,2.7036,2.7644,2.8478,2.8727,2.9942,3.1862,3.2106,3.2924,3.4177,3.424,3.4281,3.4397,3.4397,3.4675,3.52,3.52,3.552,3.6112,3.6127,3.6185,3.6272,0.0,0.0,0.0,3.6011,3.6141,3.6127,3.6243,3.6141,3.5764,3.552,0.0,3.5043,3.4516,3.424,3.4225,3.4092,0.0,0.0,0.0,0.0,0.0,0.0,0.0,0.0,0.0,0.0,0.0,3.426,3.4853,3.5399,3.7385,3.8712,3.8938,4.0181,4.1028,4.1161,4.1769,4.1927,4.1499,4.2938,4.3605,4.2576,4.3447,4.4003,4.3336,4.3535,4.3711,4.3799,4.4378,4.4887,4.4992,4.5524,4.6174,4.669,4.6958,4.7397,4.8029,4.8398,4.8779,4.9442,4.8763,4.8329,4.8134,4.7916,4.8158,4.886,4.8435,4.8015,4.7772,4.7689,4.7743,4.7753,4.7689,4.7902,4.8082,4.8123,4.8222,4.8669,4.8795,4.8926,2.3714,0.0,2.515,2.5882,0.0,2.6496,2.634,2.6111,2.6394,2.6664,2.691,2.7276,2.7498,2.7631,2.807,2.8618,2.9217,2.9716,3.054,3.167,3.2441,3.314,3.3808,3.3808,3.42,3.4878,3.4485,3.485,3.5807,3.5839,3.6156,3.6809,3.6776,3.6936,3.723,3.7244,3.7099,3.6809,3.6791,3.6939,3.723,3.7244,3.7099,3.6809,0.0,0.0,0.0,0.0,0.0,0.0,0.0,0.0,0.0,0.0,0.0,3.6361,3.5233,3.4366,3.3971,3.5117,3.5994,3.6328,3.7582,3.8051,3.7349,3.9341,4.0665,4.0765,4.1747,4.2649,4.3284,4.3711,4.4079,4.4448,4.5185,4.5437,4.5168,4.5384,4.5472,4.5173,4.5396,4.5624,4.5642,4.594,4.6397,4.6748,4.6788,4.7222,4.8253,4.817,4.8222,4.8973,4.8891,4.8884,4.9222,4.9017,4.8733,4.8989,4.9084,4.925,4.9644,4.962,4.9347,4.9003,4.8876,4.8876,4.8876,4.8887,4.8948,4.9042,4.9094,4.93,4.975,4.954,4.927,2.3366,2.4449,2.5135,2.6054,2.703,2.6878,2.6964,2.7181,0.0,0.0,0.0,2.7688,2.8004,2.8171,2.8805,2.9294,2.9658,3.0462,3.1026,3.1347,3.2474,3.3143,3.3347,3.3205,3.3914,3.5261,3.4657,3.5077,3.6443,3.6475,3.6809,3.7386,3.7476,3.7723,3.8173,3.8202,3.7955,3.7473,3.7462,3.769,3.8188,3.8202,3.7955,3.7462,3.7462,3.7157,3.6486,3.6489,3.6417,3.6301,3.6054,3.5685,3.5215,3.6192,3.7111,3.7735,3.6869,3.6186,3.5993,3.7436,3.8523,3.8924,4.0719,4.1014,3.9223,4.1255,4.2626,4.2694,4.3615,4.4595,4.543,4.5642,4.6081,4.7099,4.6963,4.7034,4.7309,4.7134,4.6841,4.6735,4.7151,4.759,4.752,4.7538,4.7819,4.831,4.7924,4.8064,4.9254,4.91,4.9012,4.9723,4.9344,4.8927,4.9131,4.9169,4.9578,4.9874,5.0265,5.047,5.0301,5.0516,5.0703,5.0626,5.0427,5.0245,5.0282,5.0245,5.0354,5.0499,5.0535,5.0739,5.1317,5.1007,5.0587,2.3572,2.439,2.4399,2.5626,2.7531,2.6788,2.7152,2.8226,2.7794,2.7842,2.8294,2.8539,2.8662,2.8694,2.8976,2.9606,3.0418,3.0588,3.1439,0.0,3.2438,3.288,3.3902,3.3271,3.3684,3.4973,3.4927,3.5666,3.7026,3.7172,3.7458,3.7999,3.8072,3.8115,3.8188,3.8202,3.8159,3.8072,3.8072,3.8115,3.8202,3.8202,3.8173,3.8086,3.8072,3.7796,3.7186,3.7153,3.6896,3.6326,3.6635,3.6612,3.6204,3.7756,3.8847,3.9188,3.9044,3.8696,3.8128,3.8853,3.9843,4.1064,4.2479,4.24,4.0502,4.2899,4.4581,4.4691,4.6435,4.7562,4.7204,4.7608,4.7543,4.6775,4.8117,4.8762,4.7726,4.8499,4.8872,4.828,4.8262,4.8367,4.842,4.8433,4.8468,4.8525,4.8683,4.8754,4.957,4.9605,4.9886,5.0325,4.9477,4.8976,4.9371,4.9243,4.924,4.9093,4.9523,4.9979,5.0146,4.9958,5.0308,5.1843,5.1497,5.1086,5.1187,5.1133,5.1513,5.2021,5.2154,5.2307,5.2721,5.2903,5.2997,2.3856,2.4499,2.4889,2.5977,2.7422,2.7493,2.7893,2.8454,2.8238,2.8262,2.8518,2.8705,2.8823,2.8831,2.9118,2.9503,2.9935,3.0107,3.0608,3.1344,3.1729,3.2214,3.2764,3.2759,3.3731,3.5433,3.5074,3.5883,3.7626,3.7796,3.7922,3.8188,3.8202,3.8202,3.8202,3.8202,3.8202,3.8202,3.8202,3.8202,3.8202,3.8202,3.8202,3.8202,3.8202,3.826,3.8333,3.8333,3.8333,3.8362,3.8908,3.8648,3.7492,3.9383,4.0938,4.168,4.1051,4.0498,4.0198,4.1007,4.2029,4.3233,4.4065,4.4209,4.3413,4.5085,4.6285,4.6532,4.7784,4.8573,4.8639,4.896,4.903,4.8806,4.9763,5.0026,4.9534,4.9851,5.0202,4.9872,4.9802,4.9802,4.9802,4.9451,4.9412,4.9714,5.0087,5.0526,5.0873,5.0926,5.0908,5.0851,5.0272,4.9802,4.9745,4.9925,4.9973,4.9973,5.056,5.0787,5.0773,5.0744,5.1861,5.2964,5.2882,5.2867,5.3132,5.3259,5.344,5.3603,5.3784,5.3969,5.4468,5.5112,5.5389,2.3977,2.4552,2.4988,2.5851,2.6969,2.8047,2.851,2.851,2.851,2.853,2.8598,2.8732,2.885,2.8969,2.9263,2.9438,2.9521,2.9689,2.9951,3.031,3.1087,3.1669,3.2078,3.2395,3.3694,3.5618,3.527,3.6083,3.7975,3.8202,3.8202,3.8202,3.8202,3.8202,3.8202,3.8202,3.8275,3.8405,3.842,3.8434,3.8434,3.8551,3.8623,3.8623,3.8638,3.8851,3.9363,3.9407,3.9625,4.0065,4.0592,4.0309,3.9253,4.0794,4.2536,4.3805,4.2868,4.2078,4.2111,4.2902,4.3875,4.4933,4.5326,4.5763,4.6277,4.7048,4.7565,4.7798,4.8392,4.9059,4.9459,4.9666,5.0014,5.0636,5.0737,5.0694,5.0859,5.0891,5.0891,5.0891,5.0891,5.0855,5.0799,5.0377,5.0307,5.0996,5.1649,5.1983,5.2,5.2123,5.1961,5.14,5.1136,5.0834,5.0202,5.0834,5.1269,5.1238,5.1893,5.2106,5.1951,5.2732,5.3489,5.3943,5.4427,5.4578,5.4965,5.499,5.5087,5.5268,5.5414,5.5577,5.6054,5.6579,5.7022,2.3684,2.4317,2.3734,2.436,2.6101,2.7785,2.851,2.851,2.851,2.8598,2.8764,2.8791,2.9008,2.9302,2.9399,2.9541,2.9778,2.9792,3.0419,3.1319,3.094,3.16,3.2992,3.2546,3.3439,3.5405,3.5506,3.6328,3.8056,3.8146,3.8202,3.8202,3.8202,3.8217,3.8217,3.8217,3.8507,3.9102,3.9117,3.9117,3.9146,3.9639,3.9929,3.9929,3.9915,3.9944,4.0031,4.0017,4.0031,4.0104,4.0246,4.0669,4.1482,4.1842,4.3023,4.5304,4.4273,4.3515,4.3532,4.3873,4.4581,4.558,4.5994,4.6635,4.762,4.8216,4.8258,4.8,4.8919,4.9597,4.9492,4.9723,4.9984,5.0254,5.0292,5.0349,5.0792,5.0891,5.0891,5.0891,5.0891,5.0891,5.0873,5.0781,5.1013,5.1558,5.1842,5.2053,5.2176,5.2699,5.2839,5.219,5.193,5.1649,5.122,5.2045,5.2502,5.2155,5.2604,5.3145,5.3454,5.3394,5.3503,5.4598,5.5475,5.5964,5.5713,5.5587,5.5988,5.6725,5.6915,5.6971,5.708,5.7134,5.7148,2.3309,2.3626,2.3266,2.4145,2.5934,2.7733,2.851,2.851,2.851,2.8598,2.8803,2.8922,2.9126,2.9411,2.956,2.9864,3.0281,3.0281,3.0703,3.1496,3.1508,3.1973,3.2606,3.2756,3.3741,3.542,3.5115,3.5776,3.7169,3.7433,3.7682,3.8165,3.8202,3.8391,3.8768,3.8797,3.9102,3.9712,4.0133,4.0321,4.0307,4.0181,4.0104,4.0104,4.0104,4.0307,4.0641,4.0684,4.0873,4.1282,4.1957,4.2257,4.209,4.341,4.4687,4.5674,4.5268,4.4936,4.4936,4.5078,4.5526,4.6389,4.6559,4.7042,4.7886,4.8179,4.8142,4.8069,4.9099,4.9875,4.9786,4.9875,5.008,5.0481,5.0564,5.0647,5.0863,5.0891,5.0891,5.0891,5.0891,5.0891,5.0891,5.0891,5.1013,5.1382,5.1667,5.2123,5.2628,5.3348,5.3664,5.3541,5.3738,5.3506,5.2625,5.3099,5.3541,5.358,5.4033,5.4665,5.4717,5.4735,5.4792,5.5351,5.6375,5.6997,5.6804,5.7208,5.7666,5.8133,5.798,5.7786,5.7297,5.7188,5.7188,2.3101,2.3188,2.3626,2.4584,2.5944,2.7733,2.851,2.851,2.855,2.8697,2.8902,2.9099,2.9381,2.9701,2.9856,3.0113,3.0383,3.0651,3.1009,3.1542,3.1997,3.229,3.2478,3.2889,3.386,3.4972,3.4682,3.5277,3.6741,3.6897,3.7323,3.8104,3.8391,3.871,3.916,3.9334,3.9755,4.035,4.0873,4.1178,4.1265,4.0902,4.0641,4.0641,4.0641,4.0873,4.1337,4.1387,4.1584,4.2104,4.3095,4.3354,4.2743,4.4461,4.5609,4.5771,4.5807,4.5807,4.5807,4.5807,4.6116,4.6806,4.6893,4.7218,4.7803,4.8001,4.8001,4.8066,4.8842,4.9389,4.9492,4.9919,5.0296,5.0495,5.0582,5.0706,5.0877,5.0891,5.0891,5.0891,5.0891,5.0891,5.0891,5.0908,5.0978,5.1294,5.1716,5.2295,5.3029,5.3608,5.3945,5.4015,5.4472,5.4296,5.3503,5.4015,5.4454,5.4475,5.4843,5.5422,5.5651,5.5668,5.5944,5.6335,5.7299,5.7724,5.7547,5.8149,5.8684,5.89,5.8786,5.8352,5.7773,5.7447,5.7351,2.3101,2.3353,2.4935,2.5642,2.5944,2.7681,2.849,2.851,2.8685,2.8882,2.9072,2.9319,2.982,3.0465,3.0318,3.0118,3.0101,3.0774,3.1386,3.1892,3.2122,3.2516,3.304,3.309,3.3603,3.4488,3.4377,3.5175,3.6761,3.6897,3.7337,3.8208,3.8812,3.916,3.9363,3.9828,4.0394,4.0989,4.1134,4.141,4.1932,4.1976,4.1918,4.1889,4.1976,4.1947,4.2005,4.2055,4.2063,4.2092,4.2749,4.3299,4.3771,4.4472,4.5213,4.5716,4.5807,4.5807,4.5807,4.5807,4.6116,4.6771,4.6893,4.7201,4.7902,4.8001,4.8001,4.8001,4.8131,4.8244,4.8404,4.9718,5.0324,4.9744,4.9945,5.0408,5.0863,5.0891,5.0891,5.0891,5.0891,5.0891,5.0891,5.0891,5.1171,5.161,5.193,5.2225,5.2874,5.3204,5.3345,5.3433,5.352,5.3345,5.3398,5.4156,5.472,5.5001,5.5385,5.5826,5.5984,5.6227,5.6714,5.7203,5.7838,5.8158,5.8186,5.8355,5.8687,5.8945,5.9141,5.8813,5.8244,5.7655,5.7613,2.3101,2.3222,2.4445,2.5284,2.5923,2.7153,2.7966,2.849,2.857,2.8717,2.8995,2.9519,2.9942,3.0258,3.0968,3.1245,3.1195,3.1489,3.1903,3.2409,3.266,3.2889,3.3077,3.3124,3.3547,3.4209,3.3852,3.4421,3.6002,3.6629,3.757,3.8678,3.9073,3.9581,4.0321,4.0626,4.1062,4.1677,4.1744,4.186,4.2063,4.2092,4.2092,4.2092,4.2092,4.2092,4.2092,4.2092,4.2092,4.2107,4.305,4.3674,4.395,4.4862,4.552,4.5753,4.5807,4.5807,4.5807,4.5807,4.6116,4.679,4.6893,4.7201,4.7836,4.8001,4.8001,4.8001,4.8001,4.8001,4.826,4.9359,5.0151,4.9991,5.0278,5.0606,5.085,5.0891,5.0891,5.0891,5.0891,5.0891,5.0891,5.0891,5.1009,5.1224,5.1294,5.1698,5.233,5.2839,5.338,5.3889,5.4349,5.484,5.5367,5.477,5.4823,5.5613,5.6192,5.6648,5.6929,5.7035,5.7436,5.789,5.8421,5.8839,5.895,5.9211,5.9404,5.9272,5.9455,5.9319,5.8719,5.8331,5.8399,2.3101,2.3244,2.4122,2.4999,2.5882,2.6805,2.7704,2.8471,2.857,2.8677,2.894,2.9628,3.0052,3.038,3.1255,3.1836,3.2045,3.2122,3.2332,3.2612,3.2939,3.3102,3.3102,3.3102,3.3377,3.3823,3.3411,3.3839,3.5182,3.6288,3.7476,3.87,3.9396,4.022,4.1004,4.1294,4.1671,4.202,4.2092,4.2092,4.2092,4.2092,4.2092,4.2092,4.2092,4.2092,4.2092,4.2092,4.2092,4.2242,4.325,4.4082,4.4556,4.5318,4.5807,4.5807,4.5807,4.5807,4.5807,4.5807,4.6116,4.6807,4.6911,4.7218,4.7902,4.8001,4.8001,4.8001,4.8001,4.8001,4.8179,4.8903,4.9553,4.9701,5.0108,5.0411,5.0425,5.0554,5.0706,5.0863,5.0891,5.0891,5.0891,5.0891,5.0922,5.0908,5.108,5.154,5.2277,5.305,5.3836,5.4542,5.5071,5.5648,5.6069,5.5736,5.5859,5.6596,5.6912,5.7386,5.7807,5.793,5.8158,5.8597,5.9036,5.9475,5.9835,6.0084,6.0033,5.9787,5.9878,5.9888,5.9462,5.9159,5.9205,2.3101,2.3222,2.4091,2.4956,2.5851,2.6691,2.7632,2.8431,2.8685,2.8788,2.8981,2.9625,3.0282,3.0806,3.1235,3.1702,3.2296,3.2528,3.2553,3.2531,3.2909,3.3102,3.3102,3.3102,3.3124,3.324,3.3154,3.3615,3.4635,3.6061,3.7239,3.8251,4.0069,4.0974,4.1154,4.1715,4.2049,4.2092,4.2092,4.2092,4.2092,4.2092,4.2092,4.2092,4.2092,4.2092,4.2092,4.2092,4.2092,4.2236,4.3195,4.448,4.5355,4.5735,4.5807,4.5807,4.5807,4.5807,4.5807,4.5807,4.6116,4.6702,4.6876,4.7201,4.777,4.7968,4.8001,4.8001,4.8001,4.8001,4.8066,4.8519,4.8848,4.878,4.9284,4.9568,4.9598,4.9875,5.0321,5.0778,5.0891,5.0891,5.0891,5.1009,5.1045,5.1031,5.154,5.2155,5.2769,5.3524,5.4524,5.5191,5.5615,5.6089,5.6403,5.6666,5.7175,5.7632,5.7754,5.8037,5.8527,5.8773,5.8913,5.9282,5.9492,5.9914,5.9914,6.0146,6.0243,6.0123,6.0295,6.0283,5.9936,5.9621,5.9754,2.3101,2.3135,2.3418,2.4424,2.5735,2.6121,2.708,2.8431,2.857,2.8871,2.9399,2.9971,3.0645,3.128,3.1798,3.2163,3.241,3.2593,3.2646,3.268,3.2939,3.3102,3.3102,3.3102,3.3102,3.3219,3.3717,3.4312,3.5097,3.6641,3.8027,3.9209,4.042,4.1317,4.1744,4.2005,4.2092,4.2092,4.2092,4.2092,4.2092,4.2092,4.2092,4.2092,4.2092,4.2092,4.2092,4.2092,4.2092,4.2113,4.285,4.3834,4.4918,4.5539,4.5789,4.5807,4.5807,4.5807,4.5807,4.5807,4.5992,4.6425,4.6738,4.7099,4.7538,4.7853,4.7984,4.8001,4.8001,4.8001,4.81,4.8596,4.884,4.8722,4.9118,4.9391,4.9449,4.9835,5.0338,5.0778,5.0891,5.0891,5.1013,5.1242,5.1365,5.1132,5.1975,5.2801,5.2716,5.3752,5.4577,5.5317,5.5844,5.6616,5.721,5.7684,5.8123,5.8439,5.8562,5.8702,5.9176,5.944,5.9615,5.9756,5.9984,6.0089,6.0089,6.0121,6.0201,6.0216,6.0174,6.0131,6.0057,6.0041,6.0058,2.3198,2.3357,2.3357,2.4103,2.5285,2.5466,2.6496,2.7925,2.8251,2.8756,2.9519,3.028,3.084,3.1336,3.1891,3.2223,3.2388,3.2441,3.2593,3.2831,3.2982,3.3102,3.3102,3.3102,3.3102,3.3239,3.3849,3.4384,3.4826,3.6957,3.8477,3.9292,4.0715,4.1671,4.2063,4.2092,4.2092,4.2092,4.2092,4.2092,4.2092,4.2092,4.2092,4.2092,4.2092,4.2092,4.2092,4.2092,4.2092,4.2154,4.2494,4.3319,4.4662,4.5413,4.5807,4.5807,4.5807,4.5807,4.5807,4.5807,4.5938,4.6266,4.6669,4.7048,4.7387,4.777,4.7984,4.8001,4.8001,4.8001,4.8084,4.8365,4.8695,4.8872,4.9093,4.9299,4.9451,4.9929,5.0613,5.1109,5.1329,5.1294,5.1435,5.1294,5.1593,5.147,5.2379,5.352,5.3418,5.444,5.5335,5.6104,5.6719,5.7509,5.823,5.8687,5.9073,5.9247,5.9352,5.9492,5.9773,5.9843,5.9949,5.9931,6.0089,6.0089,6.0089,6.0089,6.0137,6.0089,6.0089,6.0083,6.0056,6.0078,6.0102,2.3396,2.3769,2.3831,2.4119,2.4665,2.5049,2.6076,2.7254,2.7863,2.8606,2.9489,3.0429,3.0922,3.1079,3.159,3.2003,3.23,3.2157,3.2463,3.2909,3.3081,3.3059,3.309,3.3102,3.3102,3.3187,3.3661,3.3963,3.4325,3.6964,3.8415,3.8824,4.085,4.2078,4.2092,4.2092,4.2092,4.2092,4.2092,4.2092,4.2092,4.2092,4.2092,4.2092,4.2092,4.2092,4.2092,4.2092,4.2092,4.2107,4.214,4.295,4.4469,4.5395,4.5807,4.5807,4.5807,4.5807,4.5807,4.5807,4.5918,4.6195,4.6651,4.7031,4.732,4.7704,4.8001,4.8001,4.8001,4.8001,4.8001,4.8199,4.8514,4.9044,4.931,4.942,4.9595,5.0218,5.0922,5.1759,5.2053,5.2018,5.2018,5.1681,5.1751,5.2102,5.2994,5.4173,5.4911,5.5721,5.6842,5.7386,5.7667,5.8105,5.8739,5.8792,5.9194,5.9598,5.9738,5.9879,6.0036,6.0072,6.0089,6.0089,6.0089,6.0089,6.0089,6.0089,6.0089,6.0089,6.0089,6.0089,6.0089,6.0089,6.0105,2.3682,2.3851,2.4121,2.4536,2.4968,2.5427,2.6389,2.7628,2.8189,2.8929,2.9912,3.0588,3.1117,3.1488,3.1633,3.1959,3.2235,3.2103,3.2397,3.2961,3.2887,3.2939,3.3081,3.3102,3.3115,3.3203,3.3696,3.4123,3.4659,3.7166,3.8575,3.9076,4.1028,4.2092,4.2092,4.2092,4.2092,4.2092,4.2092,4.2092,4.2092,4.2092,4.2092,4.2092,4.2092,4.2092,4.2092,4.2092,4.2092,4.2092,4.2092,4.2718,4.4105,4.5225,4.5807,4.5807,4.5807,4.5807,4.5807,4.5807,4.5862,4.5956,4.6546,4.6928,4.7031,4.7621,4.7935,4.8001,4.8001,4.8001,4.8084,4.8514,4.9094,4.9739,4.9955,5.0243,5.0744,5.0767,5.1116,5.2483,5.2355,5.2365,5.2734,5.3015,5.3102,5.3257,5.4188,5.556,5.6052,5.6666,5.7579,5.8053,5.8404,5.8737,5.9018,5.9018,5.9282,5.9791,5.9966,5.9984,6.0072,6.0072,6.0089,6.0089,6.0089,6.0089,6.0089,6.0089,6.0089,6.0089,6.0089,6.0089,6.0089,6.0089,6.0089,2.3828,2.4349,2.4394,2.4806,2.5389,2.5483,2.6505,2.7973,2.8313,2.9194,3.0305,3.1019,3.1394,3.1693,3.1705,3.1893,3.2169,3.1994,3.2266,3.2831,3.2896,3.2982,3.3081,3.3102,3.3203,3.3504,3.3972,3.4793,3.5875,3.7776,3.9011,3.9925,4.1325,4.2051,4.2092,4.2092,4.2092,4.2092,4.2092,4.2092,4.2092,4.2092,4.2092,4.2092,4.2092,4.2092,4.2113,4.2331,4.2494,4.2433,4.2325,4.2764,4.4182,4.521,4.5789,4.5807,4.5807,4.5807,4.5807,4.5823,4.588,4.6064,4.6581,4.6928,4.7184,4.7654,4.8001,4.8001,4.8001,4.8001,4.8199,4.8945,4.9822,5.0535,5.0932,5.1262,5.17,5.1497,5.2089,5.2962,5.3067,5.2786,5.3524,5.3822,5.398,5.4223,5.4682,5.5929,5.6929,5.7561,5.8176,5.8737,5.8983,5.9211,5.9299,5.9299,5.9229,5.9721,6.0054,6.0089,6.0089,6.0089,6.0089,6.0089,6.0089,6.0089,6.0089,6.0089,6.0089,6.0089,6.0089,6.0089,6.0089,6.0089,6.0089,2.3945,2.4994,2.458,2.4988,2.5799,2.5495,2.6681,2.8449,2.8589,2.938,3.0701,3.1442,3.1657,3.1705,3.1749,3.1849,3.2016,3.1871,3.2157,3.2615,3.2896,3.3102,3.3102,3.3102,3.3379,3.3822,3.4427,3.5481,3.6765,3.8407,3.964,4.051,4.1556,4.2051,4.2092,4.2092,4.2092,4.2092,4.2092,4.2092,4.2092,4.2092,4.2092,4.2092,4.2092,4.2092,4.2201,4.252,4.2875,4.3095,4.2576,4.3255,4.4643,4.5413,4.5753,4.5807,4.5807,4.5807,4.5807,4.5823,4.5954,4.6264,4.6635,4.7048,4.737,4.7754,4.8001,4.8001,4.8001,4.8067,4.8398,4.9409,5.0353,5.11,5.188,5.2184,5.1949,5.2098,5.286,5.4031,5.3613,5.3572,5.3998,5.4086,5.41,5.5297,5.5894,5.6929,5.7842,5.8421,5.9036,5.9633,5.9703,5.9615,5.9598,5.9563,5.9457,5.9563,5.9949,6.0089,6.0089,6.0089,6.0089,6.0089,6.0089,6.0089,6.0089,6.0089,6.0089,6.0089,6.0089,6.0089,6.0089,6.0089,6.0089,2.4284,2.4528,2.4453,2.5201,2.6326,2.637,2.7407,2.9253,2.96,3.0114,3.092,3.1466,3.1693,3.1705,3.1849,3.1972,3.1994,3.1981,3.2147,3.2463,3.2896,3.3081,3.3115,3.3128,3.3429,3.3947,3.4452,3.5567,3.7075,3.8536,3.9694,4.0681,4.1612,4.2092,4.2092,4.2092,4.2092,4.2092,4.2092,4.2092,4.2092,4.2092,4.2092,4.2092,4.2092,4.2092,4.2113,4.2222,4.2743,4.3413,4.3654,4.3985,4.479,4.545,4.5771,4.5807,4.5807,4.5807,4.5807,4.5825,4.5938,4.6283,4.6651,4.7048,4.7371,4.7787,4.7984,4.8001,4.8017,4.8233,4.8862,4.9674,5.0551,5.1367,5.2227,5.2604,5.2049,5.1554,5.2351,5.3644,5.3515,5.3305,5.4992,5.558,5.5859,5.6438,5.7142,5.8125,5.872,5.9211,5.9563,6.0001,5.9861,5.9703,5.9808,5.9756,5.9668,5.9633,5.9914,6.0089,6.0089,6.0089,6.0089,6.0089,6.0089,6.0089,6.0089,6.0089,6.0089,6.0089,6.0089,6.0089,6.0089,6.0089,6.0089,2.4355,2.4697,2.4489,2.5629,2.7281,2.6945,2.8079,3.0081,3.0224,3.0605,3.1227,3.1621,3.1705,3.1739,3.1906,3.2006,3.206,3.2245,3.2332,3.2519,3.2865,3.3102,3.319,3.3404,3.3746,3.4299,3.4841,3.6119,3.778,3.883,3.9948,4.1212,4.187,4.2071,4.2092,4.2092,4.2092,4.2092,4.2092,4.2092,4.2092,4.2092,4.2092,4.2092,4.2092,4.2092,4.2092,4.2412,4.301,4.3771,4.4427,4.4896,4.5194,4.5609,4.5771,4.5807,4.5807,4.5807,4.5807,4.5825,4.5972,4.6283,4.6663,4.7028,4.7386,4.777,4.7968,4.8001,4.81,4.8398,4.9475,5.027,5.1,5.1715,5.2357,5.2518,5.2051,5.1575,5.1942,5.3437,5.3192,5.402,5.5172,5.618,5.714,5.7458,5.7333,5.8246,5.9124,5.9545,5.9615,5.9826,5.9756,5.9738,5.9914,5.9931,5.9861,5.9861,6.0001,6.0089,6.0089,6.0089,6.0089,6.0089,6.0089,6.0089,6.0089,6.0089,6.0089,6.0089,6.0089,6.0089,6.0089,6.0089,6.0089,2.433,2.4955,2.4502,2.5929,2.8034,2.7165,2.8443,3.1114,3.0707,3.0851,3.156,3.1705,3.1705,3.1749,3.1981,3.206,3.2169,3.2388,3.2497,3.2475,3.2887,3.3081,3.3228,3.3696,3.4201,3.4728,3.5182,3.6741,3.8475,3.9329,4.0165,4.1731,4.2071,4.2092,4.2092,4.2092,4.2092,4.2092,4.2092,4.2092,4.2092,4.2092,4.2092,4.2092,4.2092,4.2092,4.216,4.25,4.3076,4.3786,4.4893,4.5429,4.5628,4.5771,4.5807,4.5807,4.5807,4.5807,4.5807,4.5825,4.5954,4.6283,4.6676,4.7023,4.7386,4.7737,4.7952,4.8084,4.8216,4.8763,5.0038,5.0551,5.1298,5.1963,5.2229,5.2092,5.1699,5.1566,5.2306,5.2976,5.3021,5.3614,5.5139,5.642,5.7493,5.8353,5.8193,5.8281,5.9141,5.9633,5.9563,5.9545,5.9457,5.9721,5.9949,6.0036,5.9966,5.9984,6.0089,6.0089,6.0089,6.0089,6.0089,6.0089,6.0089,6.0089,6.0089,6.0089,6.0089,6.0089,6.0089,6.0089,6.0089,6.0089,6.0089,2.4371,2.4492,2.4072,2.5315,2.7259,2.6856,2.829,3.0709,3.0862,3.1133,3.1659,3.1705,3.1705,3.1793,3.2147,3.23,3.2344,3.2453,3.2487,3.2509,3.2865,3.3115,3.3354,3.4048,3.4565,3.4803,3.543,3.6994,3.8675,3.9307,4.036,4.1731,4.2092,4.2092,4.2092,4.2092,4.2092,4.2092,4.2092,4.2092,4.2092,4.2092,4.2092,4.2092,4.2092,4.2092,4.2092,4.2201,4.2535,4.3155,4.383,4.437,4.4933,4.5484,4.5753,4.5807,4.5807,4.5807,4.5807,4.5807,4.5974,4.6299,4.6664,4.7027,4.7387,4.7754,4.7968,4.8183,4.8614,4.9293,5.0087,5.0485,5.0783,5.1368,5.176,5.1496,5.0526,5.0915,5.179,5.2314,5.2535,5.3135,5.4862,5.6368,5.7351,5.8193,5.8457,5.8369,5.8755,5.9089,5.909,5.909,5.909,5.9527,5.9966,6.0036,6.0054,6.0036,6.0089,6.0089,6.0089,6.0089,6.0089,6.0089,6.0089,6.0089,6.0089,6.0089,6.0089,6.0089,6.0089,6.0089,6.0089,6.0089,6.0089,2.4092,2.4062,2.3867,2.5151,2.6965,2.6791,2.8235,3.0675,3.0934,3.1211,3.1585,3.1705,3.1705,3.1815,3.2179,3.24,3.2422,3.2506,3.2497,3.254,3.2878,3.3291,3.353,3.4339,3.4816,3.5352,3.621,3.7459,3.9117,3.9746,4.0674,4.1696,4.2092,4.2092,4.2092,4.2092,4.2092,4.2092,4.2092,4.2092,4.2092,4.2092,4.2092,4.2092,4.2092,4.2092,4.2092,4.2092,4.2392,4.2855,4.2975,4.3806,4.4799,4.5481,4.5807,4.5807,4.5807,4.5807,4.5807,4.5807,4.5882,4.6062,4.6572,4.6939,4.7234,4.7588,4.8001,4.8249,4.911,4.9806,5.017,5.0501,5.1098,5.1615,5.1742,5.1094,5.0559,5.1095,5.1336,5.159,5.2156,5.3162,5.4866,5.6174,5.714,5.7877,5.8492,5.8579,5.8492,5.8527,5.8599,5.9053,5.9194,5.9633,6.0001,6.0036,6.0089,6.0089,6.0089,6.0089,6.0089,6.0089,6.0089,6.0089,6.0089,6.0089,6.0089,6.0089,6.0089,6.0089,6.0089,6.0089,6.0089,6.0089,6.0089,2.3811,2.3811,2.3811,2.5026,2.6759,2.6594,2.8054,3.0353,3.0732,3.1093,3.1669,3.1705,3.1705,3.1805,3.2025,3.2257,3.2322,3.2528,3.2506,3.254,3.2878,3.3391,3.3922,3.4439,3.4941,3.5617,3.7261,3.845,3.9219,4.0051,4.1107,4.1835,4.2092,4.2092,4.2092,4.2092,4.2092,4.2092,4.2092,4.2092,4.2092,4.2092,4.2092,4.2092,4.2092,4.2092,4.2092,4.2092,4.229,4.25,4.2637,4.3105,4.5002,4.5662,4.5789,4.5807,4.5807,4.5807,4.5807,4.5807,4.5825,4.5898,4.6497,4.6798,4.7177,4.7702,4.8233,4.8332,4.9491,5.027,5.0353,5.0833,5.1447,5.1748,5.152,5.1076,5.0709,5.074,5.0771,5.1178,5.1884,5.2977,5.4434,5.5981,5.6947,5.7316,5.7912,5.8176,5.8105,5.8053,5.8263,5.8983,5.944,5.9826,6.0072,6.0054,6.0089,6.0089,6.0089,6.0089,6.0089,6.0089,6.0089,6.0089,6.0089,6.0089,6.0089,6.0089,6.0089,6.0089,6.0089,6.0089,6.0089,6.0089,6.0089,2.3811,2.3811,2.3811,2.4657,2.589,2.5982,2.7556,3.0028,3.023,3.078,3.1705,3.1705,3.1705,3.1761,3.1761,3.1915,3.2091,3.2322,3.2453,3.2487,3.289,3.3407,3.3947,3.4439,3.5156,3.6019,3.7955,3.8925,3.9563,4.0303,4.1135,4.1933,4.2092,4.2092,4.2092,4.2092,4.2092,4.2092,4.2092,4.2092,4.2092,4.2092,4.2092,4.2092,4.2092,4.2092,4.2092,4.2092,4.2222,4.2263,4.2216,4.2799,4.4039,4.5262,4.568,4.5807,4.5807,4.5807,4.5807,4.5807,4.5807,4.5916,4.6452,4.6805,4.7263,4.8047,4.8614,4.8117,4.9806,5.0651,5.0419,5.0833,5.1265,5.1371,5.1276,5.0476,4.9992,5.06,5.0609,5.0888,5.1604,5.2491,5.3643,5.5262,5.6684,5.6964,5.7245,5.7509,5.7842,5.7895,5.8123,5.8895,5.9545,5.9966,6.0089,6.0089,6.0089,6.0089,6.0089,6.0089,6.0089,6.0089,6.0089,6.0089,6.0089,6.0089,6.0089,6.0089,6.0089,6.0089,6.0089,6.0089,6.0089,6.0089,6.0089,2.3811,2.3837,2.4081,2.4803,2.5809,2.6329,2.7914,2.9762,3.0098,3.0696,3.1573,3.1705,3.1761,3.1827,3.1761,3.1827,3.2038,3.2257,3.24,3.2509,3.2906,3.3533,3.4248,3.4695,3.5262,3.6903,3.8291,3.947,4.0065,4.088,4.1773,4.1974,4.2092,4.2092,4.2092,4.2092,4.2092,4.2092,4.2092,4.2092,4.2092,4.2092,4.2092,4.2092,4.2092,4.2092,4.2092,4.2092,4.2304,4.2412,4.2345,4.2677,4.3849,4.5024,4.5807,4.5807,4.5807,4.5807,4.5807,4.5807,4.5807,4.59,4.6298,4.6704,4.7297,4.8279,4.8812,4.8084,4.9624,5.0369,5.0303,5.0502,5.1131,5.1369,5.1126,5.0525,4.9993,5.0328,5.0688,5.0991,5.1408,5.238,5.3404,5.484,5.6034,5.6227,5.6438,5.6648,5.7386,5.8105,5.8406,5.8897,5.9527,6.0054,6.0089,6.0089,6.0089,6.0089,6.0089,6.0089,6.0089,6.0089,6.0089,6.0089,6.0089,6.0089,6.0089,6.0089,6.0089,6.0089,6.0089,6.0089,6.0089,6.0089,6.0089,2.3887,2.3852,2.4296,2.4999,2.5872,2.6805,2.8277,2.9984,3.0086,3.0696,3.1488,3.1705,3.1783,3.1871,3.1783,3.1771,3.1915,3.2245,3.2378,3.2553,3.2947,3.3699,3.4374,3.4846,3.578,3.7818,3.8635,3.9615,4.0596,4.1458,4.1995,4.2092,4.2092,4.2092,4.2092,4.2092,4.2092,4.2092,4.2092,4.2092,4.2092,4.2092,4.2092,4.2092,4.2092,4.2092,4.2092,4.2092,4.2372,4.25,4.293,4.3314,4.4004,4.5042,4.5735,4.5807,4.5807,4.5807,4.5807,4.5807,4.5807,4.5936,4.6229,4.6791,4.7434,4.8496,4.8895,4.8117,4.969,5.0204,5.0121,5.0187,5.0999,5.1297,5.1167,5.0651,5.0257,5.0329,5.0361,5.0474,5.1123,5.2537,5.3561,5.4688,5.5352,5.5493,5.5651,5.5876,5.6806,5.7965,5.8406,5.8757,5.9178,5.9685,5.9791,5.9843,5.9931,6.0089,6.0089,6.0089,6.0089,6.0089,6.0089,6.0089,6.0089,6.0089,6.0089,6.0089,6.0089,6.0089,6.0089,6.0089,6.0089,6.0089,6.0089,2.4141,2.383,2.4328,2.502,2.5882,2.6794,2.833,3.0074,3.011,3.0732,3.1633,3.1705,3.1705,3.1705,3.1727,3.1705,3.1761,3.2213,3.2378,3.2574,3.2931,3.368,3.4319,3.4944,3.58,3.7775,3.881,3.9681,4.0625,4.164,4.2016,4.2092,4.2092,4.2092,4.2092,4.2092,4.2092,4.2092,4.2092,4.2092,4.2092,4.2092,4.2092,4.2092,4.2092,4.2092,4.2092,4.2092,4.2236,4.2427,4.326,4.3989,4.437,4.5225,4.5771,4.5807,4.595,4.5965,4.5981,4.5871,4.5807,4.599,4.6386,4.696,4.7515,4.9122,4.9259,4.8614,5.0055,5.0403,5.0254,5.0304,5.1165,5.1447,5.1313,5.08,5.034,4.999,5.001,4.9983,5.0939,5.2492,5.3683,5.4776,5.5317,5.5493,5.5841,5.6069,5.6719,5.7702,5.8108,5.8476,5.881,5.9141,5.9299,5.9492,5.9949,6.0089,6.0089,6.0089,6.0089,6.0089,6.0089,6.0089,6.0089,6.0089,6.0089,6.0089,6.0089,6.0089,6.0089,6.0089,6.0089,6.0089,6.0089,2.3779,2.3479,2.4743,2.5484,2.5924,2.7713,2.9112,3.0053,3.0456,3.0995,3.1705,3.1705,3.1705,3.1705,3.1717,3.1783,3.1915,3.2235,3.2378,3.2475,3.2804,3.3504,3.415,3.4944,3.5913,3.8135,3.9121,4.01,4.1514,4.1912,4.1995,4.2092,4.2092,4.2092,4.2092,4.2092,4.2092,4.2092,4.2092,4.2092,4.2092,4.2092,4.2092,4.2092,4.2092,4.2092,4.2092,4.2092,4.229,4.2708,4.3403,4.4066,4.4764,4.5465,4.5753,4.5886,4.6108,4.6329,4.6281,4.6076,4.5823,4.5952,4.647,4.7124,4.7689,4.9266,4.982,4.9972,5.0353,5.0569,5.0801,5.095,5.1397,5.1662,5.1497,5.0932,5.039,4.9941,5.0023,5.0163,5.1343,5.2814,5.3865,5.4861,5.5229,5.5545,5.5929,5.6332,5.6894,5.7474,5.7948,5.8371,5.8737,5.9159,5.9352,5.9703,6.0072,6.0089,6.0089,6.0089,6.0089,6.0089,6.0089,6.0089,6.0089,6.0089,6.0089,6.0089,6.0089,6.0089,6.0089,6.0089,6.0089,6.0089,6.0089,2.3535,2.3341,2.5052,2.5777,2.6114,2.8304,2.9593,3.0143,3.0648,3.119,3.1705,3.1705,3.1705,3.1705,3.1717,3.1827,3.1981,3.2191,3.23,3.2431,3.2651,3.334,3.4028,3.4866,3.6013,3.8497,3.9365,4.0158,4.1933,4.2051,4.2092,4.2092,4.2092,4.2092,4.2092,4.2092,4.2092,4.2092,4.2092,4.2092,4.2092,4.2092,4.2092,4.2092,4.2092,4.2092,4.2092,4.2113,4.2263,4.2703,4.3299,4.4082,4.4893,4.5536,4.5753,4.601,4.6342,4.6771,4.6676,4.6455,4.6108,4.6278,4.6555,4.7227,4.8073,4.9146,4.9557,4.9739,5.027,5.0701,5.0734,5.0502,5.0502,5.0568,5.1347,5.1,5.0255,4.9776,5.0145,5.0489,5.1701,5.2698,5.3973,5.4896,5.5265,5.5633,5.6104,5.6403,5.6701,5.7298,5.7895,5.8334,5.8737,5.9176,5.9615,5.9861,6.0072,6.0089,6.0089,6.0089,6.0089,6.0089,6.0089,6.0089,6.0089,6.0089,6.0089,6.0089,6.0089,6.0089,6.0089,6.0089,6.0089,6.0089,6.0089,2.3525,2.3341,2.5052,2.5777,2.6093,2.8336,2.9617,3.0155,3.072,3.1226,3.1681,3.1705,3.1705,3.1705,3.1705,3.1827,3.1972,3.2038,3.2147,3.2322,3.2403,3.3207,3.396,3.4773,3.6013,3.8461,3.9351,4.0187,4.2092,4.2092,4.2092,4.2092,4.2092,4.2092,4.2092,4.2092,4.2092,4.2092,4.2092,4.2092,4.2092,4.2092,4.2092,4.2092,4.2092,4.2092,4.2092,4.2092,4.2181,4.2351,4.3334,4.3927,4.4197,4.5318,4.5735,4.5871,4.6518,4.685,4.6866,4.6834,4.6866,4.68,4.7066,4.7456,4.8003,4.8717,4.9475,4.9839,4.9806,4.9624,4.9409,4.9491,4.9856,5.0121,5.0966,5.0868,5.0106,4.9609,4.9936,5.0612,5.1399,5.2351,5.3798,5.4914,5.53,5.5738,5.6245,5.6508,5.6613,5.7017,5.7596,5.8211,5.8632,5.9211,5.9633,5.9896,6.0072,6.0072,6.0089,6.0089,6.0089,6.0089,6.0089,6.0089,6.0089,6.0089,6.0089,6.0089,6.0089,6.0089,6.0089,6.0089,6.0089,6.0089,6.0089,2.3249,2.3266,2.5052,2.5777,2.619,2.87,2.9962,3.0239,3.0997,3.1548,3.1681,3.1705,3.1705,3.1705,3.1705,3.1805,3.1972,3.2006,3.2103,3.2125,3.2159,3.2987,3.3781,3.4554,3.5958,3.8345,3.9343,4.0165,4.2092,4.2071,4.2092,4.2092,4.2092,4.2092,4.2092,4.2092,4.2092,4.2092,4.2092,4.2092,4.2092,4.2092,4.2092,4.2092,4.2092,4.2092,4.2092,4.2092,4.2092,4.2242,4.3255,4.3849,4.4101,4.5098,4.5771,4.6076,4.674,4.7735,4.8038,4.8197,4.7991,4.7757,4.7569,4.8068,4.9185,4.9066,4.9621,5.0221,5.0253,5.0303,5.0635,5.1149,5.1381,5.0933,5.1099,5.0469,4.9807,4.9525,4.9626,5.0615,5.1487,5.2929,5.4381,5.4889,5.5251,5.5495,5.5911,5.6104,5.621,5.6613,5.7158,5.7912,5.8494,5.9141,5.965,5.9931,6.0072,6.0089,6.0089,6.0089,6.0089,6.0089,6.0089,6.0089,6.0089,6.0089,6.0089,6.0089,6.0089,6.0089,6.0089,6.0089,6.0089,6.0089,6.0089,2.3288,2.3746,2.5179,2.5777,2.6255,2.8876,3.0287,3.0708,3.1416,3.1705,3.1705,3.1705,3.1705,3.1705,3.1705,3.1793,3.1959,3.1915,3.1972,3.2006,3.2028,3.2885,3.3631,3.4264,3.5934,3.8077,3.9219,4.0079,4.1458,4.1933,4.2071,4.2092,4.2092,4.2092,4.2092,4.2092,4.2092,4.2092,4.2092,4.2092,4.2092,4.2092,4.2092,4.2092,4.2092,4.2092,4.2092,4.2092,4.2092,4.2433,4.3076,4.3849,4.4255,4.4968,4.5716,4.6187,4.7071,4.8209,4.8936,4.9189,4.8968,4.8722,4.8352,4.8766,4.97,4.955,5.0113,5.0698,5.1049,5.1149,5.1298,5.1911,5.1596,5.1082,5.1016,5.0369,4.974,4.9442,4.9942,5.0908,5.1772,5.3338,5.4724,5.4902,5.5171,5.5341,5.5545,5.5791,5.6142,5.6736,5.7368,5.8158,5.879,5.9422,5.9826,5.9984,6.0089,6.0089,6.0089,6.0089,6.0089,6.0089,6.0089,6.0089,6.0089,6.0089,6.0089,6.0089,6.0089,6.0089,6.0089,6.0089,6.0089,6.0089,6.0089,2.3637,2.4552,2.5453,2.5851,2.635,2.8918,3.0672,3.1633,3.1693,3.1705,3.1705,3.1705,3.1705,3.1705,3.1705,3.1805,3.1915,3.1771,3.1849,3.1928,3.1928,3.2843,3.3559,3.4226,3.5621,3.7296,3.8649,3.9527,4.0639,4.1654,4.2092,4.2092,4.2092,4.2092,4.2092,4.2092,4.2092,4.2092,4.2092,4.2092,4.2092,4.2092,4.2092,4.2092,4.2092,4.2092,4.2092,4.2092,4.2092,4.2494,4.3215,4.3674,4.4274,4.5117,4.5554,4.6281,4.7356,4.8411,4.9501,4.9722,4.9817,4.9547,4.9037,4.9333,4.9712,4.9968,5.0342,5.0715,5.095,5.1066,5.1231,5.1032,5.0817,5.0867,5.1082,5.0502,4.979,4.9875,5.0542,5.1279,5.1967,5.3204,5.462,5.5093,5.5388,5.5794,5.6174,5.6826,5.7195,5.7634,5.8281,5.9001,5.9545,5.9861,6.0089,6.0089,6.0089,6.0089,6.0089,6.0089,6.0089,6.0089,6.0089,6.0089,6.0089,6.0089,6.0089,6.0089,6.0089,6.0089,6.0089,6.0089,6.0089,6.0089,6.0089,2.3647,2.4584,2.5432,2.6173,2.7076,2.916,3.0696,3.1611,3.1705,3.1705,3.1705,3.1705,3.1705,3.1705,3.1705,3.1761,3.1761,3.1727,3.1749,3.1783,3.1862,3.2443,3.3052,3.3793,3.5034,3.6479,3.7892,3.9139,4.0367,4.1493,4.2092,4.2092,4.2092,4.2092,4.2092,4.2092,4.2092,4.2092,4.2092,4.2092,4.2092,4.2092,4.2092,4.2092,4.2092,4.2092,4.2092,4.2092,4.2092,4.2304,4.3275,4.3869,4.3985,4.5123,4.6029,4.7229,4.7877,4.8427,4.958,4.9896,4.9995,5.0214,4.9952,5.0248,5.0489,5.0528,5.0543,5.093,5.1098,5.1265,5.148,5.1347,5.1148,5.1231,5.1347,5.0933,5.027,5.0172,5.0874,5.1559,5.2233,5.35,5.4836,5.5448,5.5778,5.6248,5.6824,5.7526,5.8141,5.8509,5.8895,5.958,5.9879,6.0054,6.0089,6.0089,6.0089,6.0089,6.0089,6.0089,6.0089,6.0089,6.0089,6.0089,6.0089,6.0089,6.0089,6.0089,6.0089,6.0089,6.0089,6.0089,6.0089,6.0089,6.0089,2.3864,2.5009,2.5558,2.6749,2.833,2.9188,3.0341,3.1519,3.1705,3.1705,3.1705,3.1705,3.1705,3.1705,3.1705,3.1717,3.1705,3.1705,3.1705,3.1739,3.1783,3.2313,3.2828,3.3465,3.4476,3.5836,3.7231,3.8693,3.9942,4.129,4.2092,4.2092,4.2092,4.2092,4.2092,4.2092,4.2092,4.2092,4.2092,4.2092,4.2092,4.2092,4.2092,4.2092,4.2092,4.2092,4.2092,4.2092,4.2092,4.2263,4.3255,4.3869,4.4101,4.5108,4.6437,4.7498,4.7893,4.8636,4.9596,4.988,5.0132,5.0409,5.0644,5.0954,5.1092,5.1159,5.1347,5.1608,5.1577,5.1613,5.1861,5.2027,5.1911,5.1795,5.1613,5.1414,5.1016,5.0601,5.1117,5.1815,5.285,5.4075,5.5007,5.5613,5.6257,5.6881,5.7403,5.7895,5.8544,5.9071,5.9334,5.9756,5.9949,6.0089,6.0089,6.0089,6.0089,6.0089,6.0089,6.0089,6.0089,6.0089,6.0089,6.0089,6.0089,6.0089,6.0089,6.0089,6.0089,6.0089,6.0089,6.0089,6.0089,6.0089,6.0089,2.4145,2.5798,2.5976,2.7609,2.977,2.9277,2.9993,3.1601,3.1705,3.1705,3.1705,3.1705,3.1705,3.1705,3.1705,3.1705,3.1705,3.1705,3.1705,3.1705,3.1827,3.218,3.2672,3.3544,3.4067,3.5235,3.6627,3.8107,3.9351,4.0859,4.2092,4.2092,4.2092,4.2092,4.2092,4.2092,4.2092,4.2092,4.2092,4.2092,4.2092,4.2092,4.2092,4.2092,4.2092,4.2092,4.2092,4.2092,4.2092,4.2494,4.311,4.383,4.4575,4.5145,4.6481,4.7387,4.7861,4.8683,4.9469,4.988,5.0116,5.0451,5.0854,5.1229,5.1414,5.1676,5.1915,5.2023,5.201,5.1994,5.2176,5.2242,5.2159,5.211,5.201,5.1845,5.1579,5.1397,5.173,5.2327,5.2866,5.4119,5.5349,5.5956,5.6729,5.7477,5.7825,5.8176,5.886,5.9475,5.9685,5.9879,6.0001,6.0089,6.0089,6.0089,6.0089,6.0089,6.0089,6.0089,6.0089,6.0089,6.0089,6.0089,6.0089,6.0089,6.0089,6.0089,6.0089,6.0089,6.0089,6.0089,6.0089,6.0089,6.0089,2.4145,2.5902,2.7264,2.8753,3.0004,2.9884,3.0494,3.1681,3.1705,3.1705,3.1705,3.1705,3.1705,3.1705,3.1705,3.1705,3.1705,3.1705,3.1705,3.1705,3.1783,3.1888,3.2181,3.308,3.3563,3.4197,3.5564,3.7756,3.9431,4.1015,4.2092,4.2092,4.2092,4.2092,4.2092,4.2092,4.2092,4.2092,4.2092,4.2092,4.2092,4.2092,4.2092,4.2092,4.2092,4.2092,4.2092,4.2092,4.2092,4.2304,4.3294,4.4289,4.5318,4.5628,4.6497,4.7577,4.794,4.8667,4.9438,4.9935,5.0136,5.049,5.0892,5.132,5.1707,5.2068,5.2283,5.2356,5.2391,5.2391,5.2391,5.2391,5.2391,5.2391,5.2375,5.2226,5.2077,5.2209,5.2358,5.264,5.3003,5.4125,5.5417,5.6437,5.7196,5.7585,5.7738,5.8158,5.9018,5.9668,5.9721,5.9879,6.0019,6.0089,6.0089,6.0089,6.0089,6.0089,6.0089,6.0089,6.0089,6.0089,6.0089,6.0089,6.0089,6.0089,6.0089,6.0089,6.0089,6.0089,6.0089,6.0089,6.0089,6.0089,6.0089,2.4167,2.5998,2.7999,2.9328,3.007,3.0359,3.0925,3.1609,3.1705,3.1705,3.1705,3.1705,3.1705,3.1705,3.1705,3.1705,3.1705,3.1705,3.1705,3.1705,3.1705,3.1717,3.2163,3.2754,3.3174,3.3829,3.6044,3.8185,3.9708,4.1156,4.2092,4.2092,4.2092,4.2092,4.2092,4.2092,4.2092,4.2092,4.2092,4.2092,4.2092,4.2092,4.2092,4.2092,4.2092,4.2092,4.2092,4.2092,4.2092,4.2412,4.329,4.448,4.5371,4.5753,4.6532,4.7451,4.8051,4.8478,4.9438,4.9975,5.0171,5.0583,5.0911,5.1303,5.1997,5.2336,5.2338,5.2391,5.2391,5.2391,5.2391,5.2391,5.2391,5.2391,5.2343,5.2209,5.2077,5.2077,5.1994,5.1878,5.2778,5.4378,5.5698,5.7054,5.7809,5.8567,5.8593,5.872,5.9457,5.9685,5.9756,5.9896,6.0019,6.0089,6.0089,6.0089,6.0089,6.0089,6.0089,6.0089,6.0089,6.0089,6.0089,6.0089,6.0089,6.0089,6.0089,6.0089,6.0089,6.0089,6.0089,6.0089,6.0089,6.0089,6.0089,2.4349,2.6209,2.8386,2.9593,3.0143,3.066,3.119,3.1657,3.1705,3.1705,3.1705,3.1705,3.1705,3.1705,3.1705,3.1705,3.1705,3.1705,3.1705,3.1705,3.1705,3.1705,3.2032,3.2611,3.3126,3.4528,3.6705,3.8219,3.9615,4.1128,4.2092,4.2092,4.2092,4.2092,4.2092,4.2092,4.2092,4.2092,4.2092,4.2092,4.2092,4.2092,4.2092,4.2092,4.2092,4.2092,4.2092,4.2092,4.2092,4.2555,4.327,4.448,4.5371,4.5855,4.6708,4.7482,4.7909,4.8652,4.9533,4.9916,5.0273,5.0679,5.0949,5.1397,5.2069,5.2338,5.2356,5.2391,5.2391,5.2391,5.2391,5.2391,5.2391,5.2391,5.231,5.2227,5.211,5.2027,5.1795,5.1564,5.2833,5.4477,5.5784,5.7182,5.8238,5.906,5.9581,5.986,6.0,5.9721,5.9633,5.9843,6.0054,6.0089,6.0089,6.0089,6.0089,6.0089,6.0089,6.0089,6.0089,6.0089,6.0089,6.0089,6.0089,6.0089,6.0089,6.0089,6.0089,6.0089,6.0089,6.0089,6.0089,6.0089,6.0089,2.5284,2.7076,2.8656,2.9605,3.0113,3.0684,3.119,3.1657,3.1705,3.1705,3.1705,3.1705,3.1705,3.1705,3.1705,3.1705,3.1705,3.1705,3.1705,3.1705,3.1705,3.1705,3.1936,3.2561,3.3267,3.4897,3.6779,3.8336,3.9426,4.1043,4.2071,4.2051,4.2071,4.2092,4.2092,4.2092,4.2092,4.2092,4.2092,4.2092,4.2092,4.2092,4.2092,4.2092,4.2092,4.2092,4.2092,4.2092,4.2092,4.2453,4.3255,4.448,4.5318,4.5902,4.6629,4.7498,4.7928,4.8667,4.9406,4.9817,5.0234,5.0448,5.0739,5.1212,5.1782,5.223,5.2284,5.2391,5.2391,5.2391,5.2391,5.2391,5.2391,5.2391,5.2359,5.2275,5.2176,5.2209,5.2159,5.2275,5.2858,5.4177,5.5307,5.667,5.7928,5.8648,5.9215,5.9527,6.0019,5.9791,5.9545,5.9791,6.0072,6.0089,6.0089,6.0089,6.0089,6.0089,6.0089,6.0089,6.0089,6.0089,6.0089,6.0089,6.0089,6.0089,6.0089,6.0089,6.0089,6.0089,6.0089,6.0089,6.0089,6.0089,6.0089]},{"header":{"parameterUnit":"m.s-1","parameterCategory":1,"la1":31.0,"la2":29.5877,"lo1":-88.7671,"lo2":-86.6584,"dx":0.0162,"dy":0.0185,"nx":115,"ny":88,"refTime":"2023-01-11T18:00:00:Z","depth":0,"parameterNumber":3,"parameterNumberName":"V-component_of_WINDS"},"data":[0.0,0.0,0.0,0.0,0.0,0.0,0.0,0.0,0.0,0.0,0.0,0.0,0.0,0.0,0.0,0.0,0.0,0.0,0.0,0.0,0.0,0.0,0.0,0.0,0.0,0.0,0.0,0.0,0.0,0.0,0.0,0.0,0.0,0.0,0.0,0.0,0.0,0.0,0.0,0.0,0.0,0.0,0.0,0.0,0.0,0.0,0.0,0.0,0.0,0.0,0.0,0.0,0.0,0.0,0.0,0.0,0.0,0.0,0.0,0.0,0.0,0.0,0.0,0.0,0.0,0.0,0.0,0.0,0.0,0.0,0.0,0.0,0.0,0.0,0.0,0.0,0.0,0.0,0.0,0.0,0.0,0.0,0.0,0.0,0.0,0.0,0.0,0.0,0.0,0.0,0.0,0.0,0.0,0.0,0.0,0.0,0.0,0.0,0.0,0.0,0.0,0.0,0.0,0.0,0.0,0.0,0.0,0.0,0.0,0.0,0.0,0.0,0.0,0.0,0.0,0.0,0.0,0.0,0.0,0.0,0.0,0.0,0.0,0.0,0.0,0.0,0.0,0.0,0.0,0.0,0.0,0.0,0.0,0.0,0.0,0.0,0.0,0.0,0.0,0.0,0.0,0.0,0.0,0.0,0.0,0.0,0.0,0.0,0.0,0.0,0.0,0.0,0.0,0.0,0.0,0.0,0.0,0.0,0.0,0.0,0.0,0.0,0.0,0.0,0.0,0.0,0.0,0.0,0.0,0.0,0.0,0.0,0.0,0.0,0.0,0.0,0.0,0.0,0.0,0.0,0.0,0.0,0.0,0.0,0.0,0.0,0.0,0.0,0.0,0.0,0.0,0.0,0.0,0.0,0.0,0.0,0.0,0.0,0.0,0.0,0.0,0.0,0.0,0.0,0.0,0.0,0.0,0.0,0.0,0.0,0.0,0.0,0.0,0.0,0.0,0.0,0.0,0.0,0.0,0.0,0.0,0.0,0.0,0.0,0.0,0.0,0.0,0.0,0.0,0.0,0.0,0.0,0.0,0.0,0.0,0.0,0.0,0.0,0.0,0.0,0.0,0.0,0.0,0.0,0.0,0.0,0.0,0.0,0.0,0.0,0.0,0.0,0.0,0.0,0.0,0.0,0.0,0.0,0.0,0.0,0.0,0.0,0.0,0.0,0.0,0.0,0.0,0.0,0.0,0.0,0.0,0.0,0.0,0.0,0.0,0.0,0.0,0.0,0.0,0.0,0.0,0.0,0.0,0.0,0.0,0.0,0.0,0.0,0.0,0.0,0.0,0.0,0.0,0.0,0.0,0.0,0.0,0.0,0.0,0.0,0.0,0.0,0.0,0.0,0.0,0.0,0.0,0.0,0.0,0.0,0.0,0.0,0.0,0.0,0.0,0.0,0.0,0.0,0.0,0.0,0.0,0.0,0.0,0.0,0.0,0.0,0.0,0.0,0.0,0.0,0.0,0.0,0.0,0.0,0.0,0.0,0.0,0.0,0.0,0.0,0.0,0.0,0.0,0.0,0.0,0.0,0.0,0.0,0.0,0.0,0.0,0.0,0.0,0.0,0.0,0.0,0.0,0.0,0.0,0.0,0.0,0.0,0.0,0.0,0.0,0.0,0.0,0.0,0.0,0.0,0.0,0.0,0.0,0.0,0.0,0.0,0.0,0.0,0.0,0.0,0.0,0.0,0.0,0.0,0.0,0.0,0.0,0.0,0.0,0.0,0.0,0.0,0.0,0.0,0.0,0.0,0.0,0.0,0.0,0.0,0.0,0.0,0.0,0.0,0.0,0.0,0.0,0.0,0.0,0.0,0.0,0.0,0.0,0.0,0.0,0.0,0.0,0.0,0.0,0.0,0.0,0.0,0.0,0.0,0.0,0.0,0.0,0.0,0.0,0.0,0.0,0.0,0.0,0.0,0.0,0.0,0.0,0.0,0.0,0.0,0.0,0.0,0.0,0.0,0.0,0.0,0.0,0.0,0.0,0.0,0.0,0.0,0.0,0.0,0.0,0.0,0.0,0.0,0.0,0.0,0.0,0.0,0.0,0.0,0.0,0.0,0.0,0.0,0.0,0.0,0.0,0.0,0.0,0.0,0.0,0.0,0.0,0.0,0.0,0.0,0.0,0.0,0.0,0.0,0.0,0.0,0.0,0.0,0.0,0.0,0.0,0.0,0.0,0.0,0.0,0.0,0.0,0.0,0.0,0.0,0.0,0.0,0.0,0.0,0.0,0.0,0.0,0.0,0.0,0.0,0.0,0.0,0.0,0.0,0.0,0.0,0.0,0.0,0.0,0.0,0.0,0.0,0.0,0.0,0.0,0.0,0.0,0.0,0.0,0.0,0.0,0.0,0.0,0.0,0.0,0.0,0.0,0.0,0.0,0.0,0.0,0.0,0.0,0.0,0.0,0.0,0.0,0.0,0.0,0.0,0.0,0.0,0.0,0.0,0.0,0.0,0.0,0.0,0.0,0.0,0.0,0.0,0.0,0.0,0.0,0.0,0.0,0.0,0.0,0.0,0.0,0.0,0.0,0.0,0.0,0.0,0.0,0.0,0.0,0.0,0.0,0.0,0.0,0.0,0.0,0.0,0.0,0.0,0.0,0.0,0.0,0.0,0.0,0.0,0.0,0.0,0.0,0.0,0.0,0.0,0.0,0.0,0.0,0.0,0.0,0.0,0.0,0.0,0.0,0.0,0.0,0.0,0.0,0.0,0.0,0.0,0.0,0.0,0.0,0.0,0.0,0.0,0.0,0.0,0.0,0.0,0.0,0.0,0.0,0.0,0.0,0.0,0.0,0.0,0.0,0.0,0.0,0.0,0.0,0.0,0.0,0.0,0.0,0.0,0.0,0.0,0.0,0.0,0.0,0.0,0.0,0.0,0.0,0.0,0.0,0.0,0.0,0.0,0.0,0.0,0.0,0.0,0.0,0.0,0.0,0.0,0.0,0.0,0.0,0.0,0.0,0.0,0.0,0.0,0.0,0.0,0.0,0.0,0.0,0.0,0.0,0.0,0.0,0.0,0.0,0.0,0.0,0.0,0.0,0.0,0.0,0.0,0.0,0.0,0.0,0.0,0.0,0.0,0.0,0.0,0.0,0.0,0.0,0.0,0.0,0.0,0.0,0.0,0.0,0.0,0.0,0.0,0.0,0.0,0.0,0.0,0.0,0.0,0.0,0.0,0.0,0.0,0.0,0.0,0.0,0.0,0.0,0.0,0.0,0.0,0.0,0.0,0.0,0.0,0.0,0.0,0.0,0.0,0.0,0.0,0.0,0.0,0.0,0.0,0.0,0.0,0.0,0.0,0.0,0.0,0.0,0.0,0.0,0.0,0.0,0.0,0.0,0.0,0.0,0.0,0.0,0.0,0.0,0.0,0.0,0.0,0.0,0.0,0.0,0.0,0.0,0.0,0.0,0.0,0.0,0.0,0.0,0.0,0.0,0.0,0.0,0.0,0.0,0.0,0.0,0.0,0.0,0.0,0.0,0.0,0.0,0.0,0.0,0.0,0.0,0.0,0.0,0.0,0.0,0.0,0.0,0.0,0.0,0.0,0.0,0.0,0.0,0.0,0.0,0.0,0.0,0.0,0.0,0.0,0.0,0.0,0.0,0.0,0.0,0.0,0.0,0.0,0.0,0.0,0.0,0.0,0.0,0.0,0.0,0.0,0.0,0.0,0.0,0.0,0.0,0.0,0.0,0.0,0.0,0.0,0.0,0.0,0.0,0.0,0.0,0.0,0.0,0.0,0.0,0.0,0.0,0.0,0.0,0.0,0.0,0.0,0.0,0.0,0.0,0.0,0.0,0.0,0.0,0.0,0.0,0.0,0.0,0.0,0.0,0.0,0.0,0.0,0.0,0.0,0.0,0.0,0.0,0.0,0.0,0.0,0.0,0.0,0.0,0.0,0.0,0.0,0.0,0.0,0.0,0.0,0.0,0.0,0.0,0.0,0.0,0.0,0.0,0.0,0.0,0.0,0.0,0.0,0.0,0.0,0.0,0.0,0.0,0.0,0.0,0.0,0.0,0.0,0.0,0.0,0.0,0.0,0.0,0.0,0.0,0.0,0.0,0.0,0.0,0.0,0.0,0.0,0.0,0.0,0.0,0.0,0.0,0.0,0.0,0.0,0.0,0.0,0.0,0.0,0.0,0.0,0.0,0.0,0.0,0.0,0.0,0.0,0.0,0.0,0.0,0.0,0.0,0.0,0.0,0.0,0.0,0.0,0.0,0.0,0.0,0.0,0.0,0.0,0.7898,0.0,0.0,0.0,0.8075,0.0,0.0,0.0,0.0,0.0,0.0,0.0,0.0,0.0,0.0,0.0,0.0,0.0,0.0,0.0,0.0,0.0,0.0,0.0,0.0,0.0,0.0,0.0,0.0,0.0,0.0,0.0,0.0,0.0,0.0,0.0,0.0,0.0,0.0,0.0,0.0,0.0,0.0,0.0,0.0,0.0,0.0,0.0,0.0,0.0,0.0,0.0,0.0,0.0,0.0,0.0,0.0,0.0,0.0,0.0,0.0,0.0,0.0,0.0,0.0,0.0,0.0,0.0,0.0,0.0,0.0,0.0,0.0,0.0,0.0,0.0,0.0,0.0,0.0,0.0,0.0,0.0,0.0,0.0,0.0,0.0,0.0,0.0,0.0,0.0,0.0,0.0,0.0,0.0,0.0,0.0,0.0,0.0,0.0,0.0,0.0,0.0,0.0,0.0,0.0,0.0,0.0,0.0,0.0,0.0,0.0,0.0,0.0,0.0,0.0,0.7899,0.7903,0.815,0.8158,0.7856,0.0,0.0,0.0,0.0,0.0,0.0,0.0,0.0,0.0,0.0,0.0,0.0,0.0,0.0,0.0,0.0,0.0,0.0,0.0,0.0,0.0,0.0,0.0,0.0,0.0,0.0,0.0,0.0,0.0,0.0,0.0,0.0,0.0,0.0,0.0,0.0,0.0,0.0,0.0,0.0,0.0,0.0,0.0,0.0,0.0,0.0,0.0,0.0,0.0,0.0,0.0,0.0,0.0,0.0,0.0,0.0,0.0,0.0,0.0,0.0,0.0,0.0,0.0,0.0,0.0,0.0,0.0,0.0,0.0,0.0,0.0,0.0,0.0,0.0,0.0,0.0,0.0,0.0,0.0,0.0,0.0,0.0,0.0,0.0,0.0,0.0,0.0,0.0,0.0,0.0,0.0,0.0,0.0,0.0,0.0,0.0,0.0,0.0,0.0,0.0,0.0,0.0,0.0,0.0,0.0,0.0,0.0,0.0,0.0,0.0,0.0,0.0,0.789,0.7779,0.7787,0.0,0.0,0.0,0.0,0.0,0.0,0.0,0.0,0.0,0.0,0.0,0.0,0.0,0.0,0.0,0.0,0.0,0.0,0.0,0.0,0.0,0.0,0.0,0.0,0.0,0.0,0.0,0.0,0.0,0.0,0.0,0.0,0.0,0.0,0.0,0.0,0.0,0.0,0.0,0.0,0.0,0.0,0.0,0.0,0.0,0.0,0.0,0.0,0.0,0.0,0.0,0.0,0.0,0.0,0.0,0.0,0.0,0.0,0.0,0.0,0.0,0.0,0.0,0.0,0.0,0.0,0.0,0.0,0.0,0.0,0.0,0.0,0.0,0.0,0.0,0.0,0.0,0.0,0.0,0.0,0.0,0.0,0.0,0.0,0.0,0.0,0.0,0.0,0.0,0.0,0.0,0.0,0.0,0.0,0.0,0.0,0.0,0.0,0.0,0.0,0.0,0.0,0.0,0.0,0.0,0.0,0.0,0.0,0.0,0.0,0.8071,0.86,0.8097,0.0,0.7713,0.0,0.0,0.0,0.0,0.0,0.0,0.0,0.0,0.0,0.0,0.0,0.0,0.0,0.0,0.0,0.0,0.0,0.0,0.0,0.0,0.0,0.0,0.0,0.0,0.0,0.0,0.0,0.0,0.0,0.0,0.0,0.0,0.0,0.0,0.0,0.0,0.0,0.0,0.0,0.0,0.0,0.0,0.0,0.0,0.0,0.0,0.0,0.0,0.0,0.0,0.0,0.0,0.0,0.0,0.0,0.0,0.0,0.0,0.0,0.0,0.0,0.0,0.0,0.0,0.0,0.0,0.0,0.0,0.0,0.0,0.0,0.0,0.0,0.0,0.0,0.0,0.0,0.0,0.0,0.0,0.0,0.0,0.0,0.0,0.0,0.0,0.0,0.0,0.0,0.0,0.0,0.0,0.0,0.0,0.0,0.0,0.0,0.0,0.0,0.0,0.0,0.0,0.0,0.0,0.0,0.0,0.0,0.0,0.0,0.0,0.863,0.9275,0.8676,0.8267,0.0,0.0,0.0,0.0,0.0,0.0,0.0,0.0,0.0,0.0,0.0,0.0,0.0,0.0,0.0,0.0,0.0,0.0,0.0,0.0,0.0,0.0,0.0,0.0,0.0,0.0,0.0,0.0,0.0,0.0,0.0,0.0,0.0,0.0,0.0,0.0,0.0,0.0,0.0,0.0,0.0,0.0,0.0,0.0,0.0,0.0,0.0,0.0,0.0,0.0,0.0,0.0,0.0,0.0,0.0,0.0,0.0,0.0,0.0,0.0,0.0,0.0,0.0,0.0,0.0,0.0,0.0,0.0,0.0,0.0,0.0,0.0,0.0,0.0,0.0,0.0,0.0,0.0,0.0,0.0,0.0,0.0,0.0,0.0,0.0,0.0,0.0,0.0,0.0,0.0,0.0,0.0,0.0,0.0,0.0,0.0,0.0,0.0,0.0,0.0,0.0,0.0,0.0,0.0,0.0,0.0,0.0,0.0,0.0,0.0,0.8855,0.9148,0.9578,0.9304,0.8912,0.8422,0.0,0.0,0.0,0.0,0.0,0.0,0.0,0.0,0.0,0.0,0.0,0.0,0.0,0.0,0.0,0.0,0.0,0.0,0.0,0.0,0.0,0.0,0.0,0.0,0.0,0.0,0.0,0.0,0.0,0.0,0.0,0.0,0.0,0.0,0.0,0.0,0.0,0.0,0.0,0.0,0.0,0.0,0.0,0.0,0.0,0.0,0.0,0.0,0.0,0.0,0.0,0.0,0.0,0.0,0.0,0.0,0.0,0.0,0.0,0.0,0.0,0.0,0.0,0.0,0.0,0.0,0.0,0.0,0.0,0.0,0.0,0.0,0.0,0.0,0.0,0.0,0.0,0.0,0.0,0.0,0.0,0.0,0.0,0.0,0.0,0.0,0.0,0.0,0.0,0.0,0.0,0.0,0.0,0.0,0.0,0.0,0.0,0.0,0.0,0.0,0.0,0.0,0.0,0.0,0.0,0.0,0.0,0.0,0.8652,0.9189,0.9456,0.9461,0.9941,0.965,0.0,0.0,0.0,0.0,0.0,0.0,0.0,0.0,0.0,0.0,0.0,0.0,0.0,0.0,0.0,0.0,0.0,0.0,0.0,0.0,0.0,0.0,0.0,0.0,0.0,0.0,0.0,0.0,0.0,0.0,0.0,0.0,0.0,0.0,0.0,0.0,0.0,0.0,0.0,0.0,0.0,0.0,0.0,0.0,0.0,0.0,0.0,0.0,0.0,0.0,0.0,0.0,0.0,0.0,0.0,0.0,0.0,0.0,0.0,0.0,0.0,0.0,0.0,0.0,0.0,0.0,0.0,0.0,0.0,0.0,0.0,0.0,0.0,0.0,0.0,0.0,0.0,0.0,0.0,0.0,0.0,0.0,0.0,0.0,0.0,0.0,0.0,0.0,0.0,0.0,0.0,0.0,0.0,0.0,0.0,0.0,0.0,0.0,0.0,0.0,0.0,0.0,0.0,0.0,0.0,0.0,0.0,0.0,0.0,0.9797,1.0363,1.0626,1.055,1.0394,1.0081,0.0,0.0,0.0,0.0,0.0,0.0,0.0,0.0,0.0,0.0,0.0,0.0,0.0,0.0,0.0,0.0,0.0,0.0,0.0,0.0,0.0,0.0,0.0,0.0,0.0,0.0,0.0,0.0,0.0,0.0,0.0,0.0,0.0,0.0,0.0,0.0,0.0,0.0,0.0,0.0,0.0,0.0,0.0,0.0,0.0,0.0,0.0,0.0,0.0,0.0,0.0,0.0,0.0,0.0,0.0,0.0,0.0,0.0,0.0,0.0,0.0,0.0,0.0,0.0,0.0,0.0,0.0,0.0,0.0,0.0,0.0,0.0,0.0,0.0,0.0,0.0,0.0,0.0,0.0,0.0,0.0,0.0,0.0,0.0,0.0,0.0,0.0,0.0,0.0,0.0,0.0,0.0,0.0,0.0,0.0,0.0,0.0,0.0,0.0,0.0,0.0,0.0,0.0,0.0,0.0,0.0,0.0,0.0,0.0,1.0676,1.1022,1.1172,1.1094,1.0737,1.0423,0.0,0.0,0.0,0.0,0.0,0.0,0.0,0.0,0.0,0.0,0.0,0.0,0.0,0.0,0.0,0.0,0.0,0.0,0.0,0.0,0.0,0.0,0.0,0.0,0.0,0.0,0.0,0.0,0.0,0.0,0.0,0.0,0.0,0.0,0.0,0.0,0.0,0.0,0.0,0.0,0.0,0.0,0.0,0.0,0.0,0.0,0.0,0.0,0.0,0.0,0.0,0.0,0.0,0.0,0.0,0.0,0.0,0.0,0.0,0.0,0.0,0.0,0.0,0.0,0.0,0.0,0.0,0.0,0.0,0.0,0.0,0.0,0.0,0.0,0.0,0.0,0.0,0.0,0.0,0.0,0.0,0.0,0.0,0.0,0.0,0.0,0.0,0.0,0.0,0.0,0.0,0.0,0.0,0.0,0.0,0.0,0.0,0.0,0.0,0.0,0.0,0.0,0.0,0.0,0.0,0.0,0.0,0.0,1.0652,1.1074,1.1068,1.1065,1.093,1.0995,1.0738,0.0,0.0,0.0,0.0,0.0,0.0,0.0,0.0,0.0,0.0,0.0,0.0,0.0,0.0,0.0,0.0,0.0,0.0,0.0,0.0,0.0,0.0,0.0,0.0,0.0,0.0,0.0,0.0,0.0,0.0,0.0,0.0,0.0,0.0,0.0,0.0,0.0,0.0,0.0,0.0,0.0,0.0,0.0,0.0,0.0,0.0,0.0,0.0,0.0,0.0,0.0,0.0,0.0,0.0,0.0,0.0,0.0,0.0,0.0,0.0,0.0,0.0,0.0,0.0,0.0,0.0,0.0,0.0,0.0,0.0,0.0,0.0,0.0,0.0,0.0,0.0,0.0,0.0,0.0,0.0,0.0,0.0,0.0,0.0,0.0,0.0,0.0,0.0,0.0,0.0,0.0,0.0,0.0,0.0,0.0,0.0,0.0,0.0,0.0,0.0,0.0,0.0,0.0,0.0,0.0,0.0,0.0,0.0,0.0,1.1657,1.1992,1.2154,1.2134,1.1752,1.151,0.0,0.0,0.0,0.0,0.0,0.0,0.0,0.0,0.0,0.0,0.0,0.0,0.0,0.0,0.0,0.0,0.0,0.0,0.0,0.0,0.0,0.0,0.0,0.0,0.0,0.0,0.0,0.0,0.0,0.0,0.0,0.0,0.0,0.0,0.0,0.0,0.0,0.0,0.0,0.0,0.0,0.0,0.0,0.0,0.0,0.0,0.0,0.0,0.0,0.0,0.0,0.0,0.0,0.0,0.0,0.0,0.0,0.0,0.0,0.0,0.0,0.0,0.0,0.0,0.0,0.0,0.0,0.0,0.0,0.0,0.0,0.0,0.0,0.0,0.0,0.0,0.0,0.0,0.0,0.0,0.0,0.0,0.0,0.0,0.0,0.0,0.0,0.0,0.0,0.0,0.0,0.0,0.0,0.0,0.0,0.0,0.0,0.0,0.0,0.0,0.0,0.0,0.0,0.0,0.0,0.0,0.0,0.0,0.0,1.338,1.3501,1.3573,1.3483,1.2988,1.2519,1.2146,0.0,0.0,0.0,0.0,0.0,0.0,0.0,0.0,0.0,0.0,0.0,0.0,0.0,0.0,0.0,0.0,0.0,0.0,0.0,0.0,0.0,0.0,0.0,0.0,0.0,0.0,0.0,0.0,0.0,0.0,0.0,0.0,0.0,0.0,0.0,0.0,0.0,0.0,0.0,0.0,0.0,0.0,0.0,0.0,0.0,0.0,0.0,0.0,0.0,0.0,0.0,0.0,0.0,0.0,0.0,0.0,0.0,0.0,0.0,0.0,0.0,0.0,0.0,0.0,0.0,0.0,0.0,0.0,0.0,0.0,0.0,0.0,0.0,0.0,0.0,0.0,0.0,0.0,0.0,0.0,0.0,0.0,0.0,0.0,0.0,0.0,0.0,0.0,0.0,0.0,0.0,0.0,0.0,0.0,0.0,0.0,0.0,0.0,0.0,0.0,0.0,0.0,0.0,0.0,0.0,0.0,0.0,0.0,1.5967,1.5609,1.5287,1.4955,1.4471,1.371,0.0,0.0,0.0,0.0,0.0,0.0,0.0,0.0,0.0,0.0,0.0,0.0,0.0,0.0,0.0,0.0,0.0,0.0,0.0,0.0,0.0,0.0,0.0,0.0,0.0,0.0,0.0,0.0,0.0,0.0,0.0,0.0,0.0,0.0,0.0,0.0,0.0,0.0,0.0,0.0,0.0,0.0,0.0,0.0,0.0,0.0,0.0,0.0,0.0,0.0,0.0,0.0,0.0,0.0,0.0,0.0,0.0,0.0,0.0,0.0,0.0,0.0,0.0,0.0,0.0,0.0,0.0,0.0,0.0,0.0,0.0,0.0,0.0,0.0,0.0,0.0,0.0,0.0,0.0,0.0,0.0,0.0,0.0,0.0,0.0,0.0,0.0,0.0,0.0,0.0,0.0,0.0,0.0,0.0,0.0,0.0,0.0,0.0,0.0,0.0,0.0,0.0,0.0,0.0,0.0,0.0,0.0,0.0,0.0,1.8162,1.8929,1.8502,1.6837,1.5451,1.4614,0.0,0.0,0.0,0.0,0.0,0.0,0.0,0.0,0.0,0.0,0.0,0.0,0.0,0.0,0.0,0.0,0.0,0.0,0.0,0.0,0.0,0.0,0.0,0.0,0.0,0.0,0.0,0.0,0.0,0.0,0.0,0.0,0.0,0.0,0.0,0.0,0.0,0.0,0.0,0.0,0.0,0.0,0.0,0.0,0.0,0.0,0.0,0.0,0.0,0.0,0.0,0.0,0.0,0.0,0.0,0.0,0.0,0.0,0.0,0.0,0.0,0.0,0.0,0.0,0.0,0.0,0.0,0.0,0.0,0.0,0.0,0.0,0.0,0.0,0.0,0.0,0.0,0.0,0.0,0.0,0.0,0.0,0.0,0.0,0.0,0.0,0.0,0.0,0.0,0.0,0.0,0.0,0.0,0.0,0.0,0.0,0.0,0.0,0.0,0.0,0.0,0.0,0.0,0.0,0.0,0.0,0.0,0.0,1.7639,1.937,2.0501,2.0367,1.8882,1.7432,1.6214,0.0,0.0,0.0,0.0,0.0,0.0,0.0,0.0,0.0,0.0,0.0,0.0,0.0,0.0,0.0,0.0,0.0,0.0,0.0,0.0,0.0,0.0,0.0,0.0,0.0,0.0,0.0,0.0,0.0,0.0,0.0,0.0,0.0,0.0,0.0,0.0,0.0,0.0,0.0,0.0,0.0,0.0,0.0,0.0,0.0,0.0,0.0,0.0,0.0,0.0,0.0,0.0,0.0,0.0,0.0,0.0,0.0,0.0,0.0,0.0,0.0,0.0,0.0,0.0,0.0,0.0,0.0,0.0,0.0,0.0,0.0,0.0,0.0,0.0,0.0,0.0,0.0,0.0,0.0,0.0,0.0,0.0,0.0,0.0,0.0,0.0,0.0,0.0,0.0,0.0,0.0,0.0,0.0,0.0,0.0,0.0,0.0,0.0,0.0,0.0,0.0,0.0,0.0,0.0,0.0,0.0,0.0,0.0,1.883,1.9957,2.1054,2.1355,2.0857,1.9657,1.7995,0.0,0.0,0.0,0.0,0.0,0.0,0.0,0.0,0.0,0.0,0.0,0.0,0.0,0.0,0.0,0.0,0.0,0.0,0.0,0.0,0.0,0.0,0.0,0.0,0.0,0.0,0.0,0.0,0.0,0.0,0.0,0.0,0.0,0.0,0.0,0.0,0.0,0.0,0.0,0.0,0.0,0.0,0.0,0.0,0.0,0.0,0.0,0.0,0.0,0.0,0.0,0.0,0.0,0.0,0.0,0.0,0.0,0.0,0.0,0.0,0.0,0.0,0.0,0.0,0.0,0.0,0.0,0.0,0.0,0.0,0.0,0.0,0.0,0.0,0.0,0.0,0.0,0.0,0.0,0.0,0.0,0.0,0.0,0.0,0.0,0.0,0.0,0.0,0.0,0.0,0.0,0.0,0.0,0.0,0.0,0.0,0.0,0.0,0.0,0.0,0.0,0.0,0.0,0.0,0.0,0.0,0.0,0.0,1.9536,2.1094,2.1838,2.2165,2.2021,1.9602,1.7858,0.0,0.0,0.0,0.0,0.0,0.0,0.0,0.0,0.0,0.0,0.0,0.0,0.0,0.0,0.0,0.0,0.0,0.0,0.0,0.0,0.0,0.0,0.0,0.0,0.0,0.0,0.0,0.0,0.0,0.0,0.0,0.0,0.0,0.0,0.0,0.0,0.0,0.0,0.0,0.0,0.0,0.0,0.0,0.0,0.0,0.0,0.0,0.0,0.5361,0.0,0.0,0.0,0.0,0.0,0.0,0.0,0.0,0.0,0.0,0.0,0.0,0.0,0.0,0.0,0.0,0.0,0.0,0.0,0.0,0.0,0.0,0.0,0.0,0.0,0.0,0.0,0.0,0.0,0.0,0.0,0.0,0.0,0.0,0.0,0.0,0.0,0.0,0.0,0.0,0.0,0.0,0.0,0.0,0.0,0.0,0.0,0.0,0.0,0.0,0.0,0.0,0.0,0.0,0.0,0.0,0.0,0.0,0.0,1.9904,2.1106,2.1969,2.2283,2.1916,1.9982,1.8506,0.0,0.0,0.0,0.0,0.0,0.0,0.0,0.0,0.0,0.0,0.0,0.0,0.0,0.0,0.0,0.0,0.0,0.0,0.0,0.0,0.0,0.0,0.0,0.0,0.0,0.0,0.0,0.0,0.0,0.0,0.0,0.0,0.0,0.0,0.0,0.0,0.0,0.0,0.0,0.0,0.0,0.0,0.0,0.0,0.0,0.0,0.0,0.0,0.0,0.0,0.0,0.0,0.0,0.0,0.0,0.0,0.0,0.0,0.0,0.0,0.0,0.0,0.0,0.0,0.0,0.0,0.0,0.0,0.0,0.0,0.0,0.0,0.0,0.0,0.0,0.0,0.0,0.0,0.0,0.0,0.0,0.0,0.0,0.0,0.0,0.0,0.0,0.0,0.0,0.0,0.0,0.0,0.0,0.0,0.0,0.0,0.0,0.0,0.0,0.0,0.0,0.0,0.0,0.0,0.0,0.0,0.0,1.9224,2.0348,2.0974,2.1904,2.2166,2.1642,2.0531,1.9433,1.8375,0.0,0.0,0.0,0.0,0.0,0.0,0.0,0.0,0.0,0.0,0.0,0.0,0.0,0.0,0.0,0.0,0.0,0.0,0.0,0.0,0.0,0.0,0.0,0.0,0.0,0.0,0.0,0.0,0.0,0.0,0.0,0.0,0.0,0.0,0.0,0.0,0.0,0.0,0.5079,0.5804,0.0,0.0,0.0,0.0,0.0,0.0,0.0,0.0,0.6883,0.0,0.0,0.0,0.0,0.0,0.0,0.0,0.0,0.0,0.0,0.0,0.0,0.0,0.0,0.0,0.0,0.0,0.0,0.0,0.0,0.0,0.0,0.0,0.0,0.0,0.0,0.0,0.0,0.0,0.0,0.0,0.0,0.0,0.0,0.0,0.0,0.0,0.0,0.0,0.0,0.0,0.0,0.0,0.0,0.0,0.0,0.0,0.0,0.0,0.0,0.0,0.0,0.0,0.0,0.0,0.0,1.933,2.0584,2.1524,2.21,2.2296,2.2349,2.2218,2.1158,2.0229,1.9447,0.0,0.0,0.0,0.0,0.0,0.0,0.0,0.0,0.0,0.0,0.0,0.0,0.0,0.0,0.0,0.0,0.0,0.0,0.0,0.0,0.0,0.0,0.0,0.0,0.0,0.0,0.0,0.0,0.0,0.0,0.0,0.0,0.0,0.0,0.0,0.0,0.0,0.0,0.0,0.6646,0.7342,0.0,0.0,0.0,0.0,0.0,0.0,0.0,0.0,0.7138,0.0,0.0,0.0,0.0,0.0,0.0,0.0,0.0,0.0,0.0,0.0,0.0,0.0,0.0,0.0,0.0,0.0,0.0,0.0,0.0,0.0,0.0,0.0,0.0,0.0,0.0,0.0,0.0,0.0,0.0,0.0,0.0,0.0,0.0,0.0,0.0,0.0,0.0,0.0,0.0,0.0,0.0,0.0,0.0,0.0,0.0,0.0,0.0,0.0,0.0,0.0,0.0,0.0,0.0,0.0,1.929,2.1067,2.21,2.2388,2.2401,2.2532,2.278,2.1446,2.0555,0.0,0.0,0.0,0.0,0.0,0.0,0.0,0.0,0.0,0.0,0.0,0.0,0.0,0.0,0.0,0.0,0.0,0.0,0.0,0.0,0.0,0.0,0.0,0.0,0.0,0.0,0.0,0.0,0.0,0.0,0.0,0.0,0.0,0.0,0.0,0.0,0.0,0.0,0.0,0.0,0.747,0.8377,0.9345,0.0,0.0,0.0,0.0,0.0,0.0,0.8748,0.8349,0.0,0.0,0.0,0.0,0.0,0.0,0.0,0.0,0.0,0.0,0.0,0.0,0.0,0.0,0.0,0.0,0.0,0.0,0.0,0.0,0.0,0.0,0.0,0.0,0.0,0.0,0.0,0.0,0.0,0.0,0.0,0.0,0.0,0.0,0.0,0.0,0.0,0.0,0.0,0.0,0.0,0.0,0.0,0.0,0.0,0.0,0.0,0.0,0.0,0.0,0.0,0.0,0.0,0.0,0.0,1.9264,2.1446,2.2556,2.2556,2.2453,2.2662,2.3144,2.1564,2.0699,0.0,0.0,0.0,0.0,0.0,0.0,0.0,0.0,0.0,0.0,0.0,0.0,0.0,0.0,0.0,0.0,0.0,0.0,0.0,0.0,0.0,0.0,0.0,0.0,0.0,0.0,0.0,0.0,0.0,0.0,0.0,0.0,0.0,0.0,0.0,0.0,0.0,0.0,0.0,0.0,0.0,0.9393,1.0515,1.0418,0.0,0.0,0.0,0.0,1.0178,0.9727,0.0,0.0,0.0,0.0,0.0,0.0,0.0,0.0,0.0,0.0,0.0,0.0,0.0,0.0,0.0,0.0,0.0,0.0,0.0,0.0,0.0,0.0,0.0,0.0,0.0,0.0,0.0,0.0,0.0,0.0,0.0,0.0,0.0,0.0,0.0,0.0,0.0,0.0,0.0,0.0,0.0,0.0,0.0,0.0,0.0,0.0,0.0,0.0,0.0,0.0,0.0,0.0,0.0,0.0,0.0,0.0,2.049,2.2204,2.3118,2.3079,2.2648,2.2648,2.3157,2.1577,2.0699,0.0,0.0,0.0,0.0,0.0,0.0,0.0,0.0,0.0,0.0,0.0,0.0,0.0,0.0,0.0,0.0,0.0,0.0,0.0,0.0,0.0,0.0,0.0,0.0,0.0,0.0,0.0,0.0,0.0,0.0,0.0,0.0,0.0,0.0,0.0,0.0,0.0,0.0,0.0,0.0,0.0,1.0284,1.1477,1.1609,1.1509,0.0,0.0,1.0844,1.1466,1.0255,0.0,0.0,0.0,0.0,0.0,0.0,0.0,0.0,0.0,0.0,0.0,0.0,0.0,0.0,0.0,0.0,0.0,0.0,0.0,0.0,0.0,0.0,0.0,0.0,0.0,0.0,0.0,0.0,0.0,0.0,0.0,0.0,0.0,0.0,0.0,0.0,0.0,0.0,0.0,0.0,0.0,0.0,0.0,0.0,0.0,0.0,0.0,0.0,0.0,0.0,0.0,0.0,0.0,0.0,0.0,1.9262,2.0725,2.2688,2.3719,2.3693,2.3144,2.3131,2.3693,2.2047,2.1014,0.0,0.0,0.0,0.0,0.0,0.0,0.0,0.0,0.0,0.0,0.0,0.0,0.0,0.0,0.0,0.0,0.0,0.0,0.0,0.0,0.0,0.0,0.0,0.0,0.0,0.0,0.0,0.0,0.0,0.0,0.0,0.0,0.0,0.0,0.0,0.0,0.0,0.0,0.0,0.0,0.0,0.0,1.1756,1.2171,0.0,0.0,0.0,1.1875,1.1857,0.0,0.0,0.0,0.0,0.0,0.0,0.0,0.0,0.0,0.0,0.0,0.0,0.0,0.0,0.0,0.0,0.0,0.0,0.0,0.0,0.0,0.0,0.0,0.0,0.0,0.0,0.0,0.0,0.0,0.0,0.0,0.0,0.0,0.0,0.0,0.0,0.0,0.0,0.0,0.0,0.0,0.0,0.0,0.0,0.0,0.0,0.0,0.0,0.0,0.0,0.0,0.0,0.0,0.0,0.0,0.0,0.0,2.0896,2.3014,2.4111,2.4084,2.3523,2.3469,2.4045,2.2543,0.0,0.0,0.0,0.0,0.0,0.0,0.0,0.0,0.0,0.0,0.0,0.0,0.0,0.0,0.0,0.0,0.0,0.0,0.0,0.0,0.0,0.0,0.0,0.0,0.0,0.0,0.0,0.5795,0.0,0.0,0.0,0.0,0.0,0.0,0.0,0.0,0.0,0.0,0.0,0.0,0.0,0.0,1.1135,1.1991,1.2647,1.2876,0.0,0.0,1.2802,1.2416,1.2462,1.2171,0.0,0.0,0.0,0.0,0.0,0.0,0.0,0.0,0.0,0.0,0.0,0.0,0.0,0.0,0.0,0.0,0.0,0.0,0.0,0.0,0.0,0.0,0.0,0.0,0.0,0.0,0.0,0.0,0.0,0.0,0.0,0.0,0.0,0.0,0.0,0.0,0.0,0.0,0.0,0.0,0.0,0.0,0.0,0.0,0.0,0.0,0.0,0.0,0.0,0.0,0.0,0.0,0.0,0.0,0.0,2.1446,2.3196,2.4124,2.4084,2.351,2.3497,2.4058,2.295,2.2061,0.0,0.0,0.0,0.0,0.0,0.0,0.0,0.0,0.0,0.0,0.0,0.0,0.0,0.0,0.0,0.0,0.0,0.0,0.0,0.0,0.0,0.0,0.0,0.0,0.0,0.0,0.0,0.0,0.0,0.0,0.0,0.0,0.0,0.0,0.0,0.0,0.0,0.0,0.0,0.0,0.0,1.1889,1.2388,1.3194,1.359,0.0,0.0,1.3419,1.3551,1.2832,1.2246,1.2253,0.0,0.0,0.0,0.0,0.0,0.0,0.0,0.0,0.0,0.0,0.0,0.0,0.0,0.0,0.0,0.0,0.0,0.0,0.0,0.0,0.0,0.0,0.0,0.0,0.0,0.0,0.0,0.0,0.0,0.0,0.0,0.0,0.0,0.0,0.0,0.0,0.0,0.0,0.0,0.0,0.0,0.0,0.0,0.0,0.0,0.0,0.0,0.0,0.0,0.0,0.0,0.0,0.0,2.0504,2.1525,2.3915,2.4986,2.4663,2.4428,2.4428,2.4635,2.3498,2.2636,0.0,0.0,0.0,0.0,0.0,0.0,0.0,0.0,0.0,0.0,0.0,0.0,0.0,0.0,0.0,0.0,0.0,0.0,0.0,0.0,0.0,0.0,0.0,0.0,0.0,0.0,0.0,0.0,1.1042,1.1282,1.0917,0.0,0.0,0.0,0.0,0.0,0.0,0.0,0.0,0.0,0.0,1.2473,1.2844,1.3894,0.0,0.0,1.3978,1.408,1.3906,1.3559,1.31,1.2559,1.1803,0.0,0.0,0.0,0.0,0.0,0.0,0.0,0.0,0.0,0.0,0.0,0.0,0.0,0.0,0.0,0.0,0.0,0.0,0.0,0.0,0.0,0.0,0.0,0.0,0.0,0.0,0.0,0.0,0.0,0.0,0.0,0.0,0.0,0.0,0.0,0.0,0.0,0.0,0.0,0.0,0.0,0.0,0.0,0.0,0.0,0.0,0.0,0.0,0.0,0.0,0.0,0.0,2.1132,2.2008,2.4516,2.555,2.5033,2.5005,2.5005,2.4979,2.3995,2.321,0.0,0.0,0.0,0.0,0.0,0.0,0.0,0.0,0.0,0.0,0.0,0.0,0.0,0.0,0.0,0.0,0.0,0.0,0.0,0.0,0.0,0.0,0.0,0.0,0.0,0.0,0.0,0.0,1.219,1.217,1.1314,0.0,0.0,0.0,0.0,0.0,0.0,0.0,0.0,0.0,0.0,1.3388,1.3644,1.4623,1.5128,1.4493,1.4728,1.4843,1.4402,1.4355,1.4108,1.3236,0.0,0.0,0.0,0.0,0.0,0.0,0.0,0.0,0.0,0.0,0.0,0.0,0.0,0.0,0.0,0.0,0.0,0.0,0.0,0.0,0.0,0.0,0.0,0.0,0.0,0.0,0.0,0.0,0.0,0.0,1.1038,0.0,0.0,0.0,0.0,0.0,0.0,0.0,0.0,0.0,0.0,0.0,0.0,0.0,0.0,0.0,0.0,0.0,0.0,0.0,0.0,0.0,0.0,2.1524,2.3144,2.4933,2.5576,2.5057,2.5005,2.5031,2.5018,2.4413,2.381,2.3196,0.0,0.0,0.0,0.0,0.0,0.0,0.0,0.0,0.0,0.0,0.0,0.0,0.0,0.0,0.0,0.0,0.0,0.0,0.0,0.0,0.0,0.0,0.0,0.0,0.0,0.0,1.1816,1.2101,1.2111,0.0,0.0,0.0,0.0,0.0,0.0,0.0,0.0,0.0,0.0,1.3892,1.473,1.4925,1.539,1.557,1.5165,1.5536,1.5692,1.5164,1.5181,1.5101,0.0,0.0,0.0,0.0,0.0,0.0,0.0,0.0,0.0,0.0,0.0,0.0,0.0,0.0,0.0,0.0,0.0,0.0,0.0,0.0,0.0,0.0,0.0,0.0,0.0,0.0,0.0,1.3942,1.4249,0.0,0.0,0.0,0.0,0.0,0.0,0.0,0.0,0.0,0.0,0.0,2.0598,2.007,0.0,0.0,0.0,0.0,0.0,0.0,0.0,0.0,0.0,0.0,0.0,0.0,2.2844,2.3836,2.5858,2.6671,2.6141,2.613,2.613,2.613,2.555,2.479,2.3836,0.0,0.0,0.0,0.0,0.0,0.0,0.0,0.0,0.0,0.0,0.0,0.0,0.0,0.0,0.0,0.0,0.0,0.0,0.0,0.0,0.0,0.0,0.0,0.0,0.0,1.2875,0.0,0.0,0.0,0.0,0.0,0.0,0.0,0.0,0.0,0.0,0.0,1.372,1.3745,1.4839,1.5636,1.5667,1.6261,1.6638,0.0,0.0,0.0,0.0,0.0,0.0,0.0,0.0,0.0,0.0,0.0,0.0,0.0,0.0,1.1068,0.961,0.8997,0.8803,0.8964,0.0,0.0,0.0,0.0,0.0,0.0,0.0,0.0,0.0,0.0,0.0,0.0,0.0,0.0,0.0,0.0,1.9229,0.0,0.0,0.0,0.0,0.0,0.0,0.0,0.0,2.1675,2.1927,2.2576,2.1891,2.1355,0.0,2.121,2.0124,0.0,0.0,0.0,0.0,0.0,0.0,0.0,0.0,2.3601,2.4452,2.6253,2.7069,2.6716,2.6706,2.6706,2.6693,2.5931,2.5367,2.5014,2.4215,2.3105,0.0,0.0,0.0,0.0,0.0,0.0,0.0,0.0,0.0,0.0,0.0,0.0,0.0,0.0,0.0,0.0,0.0,0.0,0.0,0.0,0.0,0.0,0.0,1.4115,0.0,0.0,0.0,0.0,0.0,0.0,0.0,0.0,0.0,1.2464,1.3745,1.4826,1.5046,1.6042,1.6739,1.6684,0.0,0.0,0.0,0.0,0.0,0.0,0.0,1.6211,1.5965,1.5969,1.5877,1.5597,1.5113,1.5099,1.6087,0.0,0.0,1.1628,1.0793,1.0396,1.0583,1.0253,1.0024,1.0286,1.0369,1.0306,0.0,0.0,0.0,0.0,0.0,0.0,0.0,0.0,2.1396,2.1741,0.0,2.2394,0.0,0.0,0.0,0.0,0.0,2.1706,0.0,0.0,2.3917,2.3895,2.3552,2.3371,2.3275,2.3263,2.2807,2.2532,2.2374,2.0819,0.0,0.0,0.0,0.0,0.0,0.0,2.3838,2.5003,2.6209,2.6758,2.6745,2.6771,2.6771,2.6719,2.5712,2.5646,2.6549,2.4609,2.389,2.4874,2.2388,0.0,0.0,0.0,0.0,0.0,0.0,0.0,0.0,0.0,0.0,0.0,0.0,0.0,0.0,0.0,0.0,0.0,0.0,0.0,0.0,1.4565,0.0,0.0,0.0,0.0,0.0,0.0,0.0,0.0,0.0,0.0,1.4119,1.4674,1.548,1.6567,0.0,0.0,0.0,0.0,1.8365,1.7909,1.7836,1.782,1.7844,1.7724,1.7483,1.7169,0.0,0.0,1.6477,1.6219,1.633,1.7145,1.5585,1.392,1.3582,1.2855,1.24,1.2426,1.1801,1.1451,1.165,1.151,1.1359,2.3399,0.0,0.0,0.0,0.0,2.1123,2.1984,2.3486,2.3953,2.4261,2.4471,2.5005,0.0,0.0,0.0,0.0,0.0,0.0,2.4014,2.5813,2.5205,2.5325,2.606,2.5384,2.5049,2.5064,2.533,2.5251,2.4829,2.4766,2.3591,2.1433,0.0,0.0,0.0,0.0,2.4846,2.56,2.7121,2.771,2.7271,2.7697,2.7723,2.7288,2.7383,2.7203,2.6732,2.6834,2.6295,2.507,2.5369,0.0,0.0,0.0,0.0,0.0,0.0,0.0,0.0,0.0,0.0,0.0,0.0,0.0,0.0,0.0,0.0,0.0,0.0,0.0,1.5575,1.5742,1.565,0.0,0.0,0.0,0.0,0.0,0.0,0.0,0.0,0.0,1.6308,1.6702,1.7047,0.0,0.0,1.8467,1.8539,1.866,1.8767,1.8908,0.0,0.0,0.0,1.8477,1.7995,1.7722,1.7619,1.7428,1.7106,1.7372,1.7712,1.7974,1.7488,1.6995,1.6727,1.428,1.2496,1.2579,1.2365,1.2194,1.2422,1.2522,1.2452,2.7066,2.5005,2.3656,2.3409,2.3876,2.3887,2.4661,2.5949,2.6353,2.6522,2.6553,2.6995,2.6546,2.5466,2.55,0.0,0.0,0.0,2.5585,2.6986,2.6198,2.6252,2.6932,2.6432,2.6266,2.6485,2.6844,2.6831,2.6488,2.6844,2.6138,2.4467,0.0,0.0,2.3929,2.4846,2.5707,2.6488,2.751,2.8098,2.8229,2.8586,2.8364,2.7542,2.8085,2.8063,2.7396,2.7579,2.7291,2.6405,2.6648,2.5782,0.0,0.0,0.0,0.0,0.0,0.0,0.0,0.0,0.0,0.0,0.0,1.3364,0.0,0.0,0.0,0.0,1.6033,1.6088,1.6966,1.68,0.0,0.0,0.0,0.0,0.0,0.0,0.0,1.5497,1.5983,1.6638,1.7536,1.7917,1.8166,1.829,1.8739,1.905,1.9033,0.0,1.9513,1.9663,1.9503,1.9505,1.9866,1.9577,1.9129,1.8659,1.8408,1.8158,1.7772,1.805,1.8379,1.8566,1.825,1.7871,1.7871,1.5519,1.37,1.3947,1.3632,1.3297,1.3236,1.3227,1.3188,2.9965,2.9215,2.6092,2.5476,2.6526,2.6603,2.7369,2.8538,2.8565,2.8553,2.8553,2.8553,2.8245,2.7664,2.6725,0.0,2.7552,2.705,2.7042,2.7387,2.7074,2.6921,2.6902,2.6915,2.7174,2.762,2.765,2.7633,2.7633,2.7633,2.7633,2.7624,2.6589,2.5785,2.5238,2.5746,2.6527,2.7542,2.7676,2.8251,2.9331,2.9305,2.8782,2.7702,2.8177,2.8468,2.8429,2.7491,2.737,2.8338,2.684,2.6406,2.7264,0.0,0.0,0.0,0.0,0.0,0.0,0.0,0.0,0.0,0.0,0.0,0.0,0.0,0.0,0.0,1.7343,0.0,1.7994,1.7766,0.0,0.0,0.0,1.6062,1.5545,1.6163,1.6579,1.656,0.0,0.0,1.8116,0.0,1.9014,1.9307,1.959,1.9684,1.9554,2.0123,2.0493,2.0257,2.0541,2.0782,2.0804,2.0753,2.0456,1.9761,1.939,1.8905,1.8407,1.8379,1.8635,1.9151,1.8241,1.7439,1.7407,1.6811,1.6207,1.5935,1.5227,1.4509,1.3933,1.368,1.3684,3.0617,3.0094,2.9294,2.8861,2.8695,2.9218,2.9617,2.9925,2.9925,2.9938,2.9925,2.9938,3.0071,3.0243,2.9221,2.9254,3.0063,2.8586,2.8325,2.8978,2.8367,2.8304,2.8669,2.8678,2.8743,2.8856,2.8869,2.8869,2.8887,2.8869,2.8874,2.8861,2.8612,2.7941,2.6958,2.7484,2.7919,2.8177,2.9048,2.9604,2.9897,2.9528,2.9161,2.89,2.9018,2.9083,2.907,2.8834,2.8808,2.9031,2.7824,2.7219,2.7447,2.4849,0.0,0.0,0.0,0.0,0.0,0.0,0.0,0.0,0.0,1.7579,1.7972,0.0,2.0279,0.0,1.9877,1.9374,1.853,1.8374,0.0,0.0,1.78,1.7496,1.7372,1.7791,1.8031,1.7856,1.8314,1.8737,1.9027,1.944,1.9921,2.0406,2.0292,2.0243,2.0488,2.0883,2.1181,2.112,2.1442,2.1687,2.1648,2.1411,2.099,2.0377,1.9831,1.9219,1.8442,1.8723,1.9122,1.9268,1.9058,1.8813,1.8766,1.8626,1.7958,1.6801,1.5712,1.4824,1.4238,1.4056,1.4051,3.1863,3.1208,3.1208,3.0833,3.0289,3.0371,3.0402,3.0402,3.0402,3.0402,3.043,3.0735,3.0981,3.1185,3.0876,3.0961,3.1237,3.0236,2.9842,2.9924,2.9506,2.9438,2.9671,2.9666,2.9797,3.0051,3.0051,3.0064,3.0064,3.0064,3.0181,3.0411,3.0424,3.0215,2.981,2.9131,2.8926,2.917,3.027,3.0857,3.0871,3.0843,3.0456,2.9706,3.0163,3.0176,2.968,2.9653,2.9666,2.964,2.8791,2.8042,2.7499,2.5461,2.3397,0.0,0.0,0.0,0.0,0.0,0.0,0.0,0.0,0.0,0.0,0.0,2.1274,2.08,2.0516,1.9958,1.8955,1.8874,1.8934,1.9085,1.8768,1.8584,1.8734,1.8961,1.9038,1.8948,1.9401,1.9816,2.0042,2.0405,2.0734,2.1088,2.1103,2.1062,2.1148,2.1592,2.1943,2.1952,2.2381,2.2639,2.2418,2.1898,2.1375,2.0869,2.048,1.9946,1.8967,1.9173,1.9474,1.9334,1.9298,1.9298,1.9298,1.9298,1.8821,1.7654,1.6813,1.5887,1.4508,1.4196,1.4196,3.3182,3.2329,3.2252,3.2003,3.1611,3.103,3.074,3.0648,3.074,3.0832,3.0968,3.1522,3.1689,3.1615,3.2181,3.2197,3.1823,3.1749,3.1283,3.0499,3.0436,3.0312,3.0223,3.0205,3.0503,3.0992,3.1005,3.1026,3.1091,3.1104,3.1392,3.1889,3.1934,3.2182,3.2594,3.0712,2.9967,3.0445,3.1393,3.1915,3.1915,3.2437,3.198,3.0557,3.1327,3.134,3.0375,3.0262,3.0223,3.0192,2.9758,2.9004,2.7897,2.5713,2.4066,0.0,2.1518,0.0,0.0,0.0,0.0,0.0,0.0,0.0,0.0,2.1955,2.1679,2.0493,2.0324,1.9999,1.9402,1.938,1.9504,1.9747,1.965,1.9654,1.9833,1.9944,1.9987,1.9913,2.0549,2.0974,2.0951,2.1268,2.1482,2.1516,2.179,2.1952,2.174,2.2226,2.2637,2.2723,2.3289,2.3422,2.3038,2.24,2.1796,2.1363,2.0972,2.067,1.9844,1.9667,1.962,1.9371,1.9298,1.9298,1.9298,1.9298,1.9004,1.812,1.7864,1.7153,1.525,1.4671,1.4455,3.3188,3.2969,3.2549,3.2618,3.2998,3.2876,3.2521,3.2059,3.2613,3.3167,3.372,3.3684,3.3657,3.3628,3.3648,3.3201,3.2437,3.2399,3.1899,3.0971,3.0971,3.0904,3.0841,3.083,3.0901,3.1005,3.1005,3.1222,3.166,3.166,3.1947,3.2515,3.2529,3.2581,3.2659,0.0,0.0,0.0,3.2424,3.2542,3.2529,3.2633,3.2542,3.2202,3.1947,0.0,3.1484,3.1078,3.083,3.0817,3.0731,0.0,0.0,0.0,0.0,0.0,0.0,0.0,0.0,0.0,0.0,0.0,2.2622,2.2715,2.2552,2.227,2.193,2.1445,2.0861,2.04,2.0131,2.04,2.0477,2.024,2.0942,2.1268,2.0794,2.1191,2.1432,2.1107,2.1234,2.1319,2.1362,2.1645,2.1893,2.1944,2.2234,2.2552,2.2741,2.2903,2.3117,2.3425,2.3605,2.3758,2.3914,2.2933,2.2152,2.1968,2.1021,2.0659,2.1055,2.0155,1.943,1.9301,1.9298,1.932,1.9294,1.9298,1.9081,1.8187,1.8022,1.7641,1.6491,1.6238,1.5838,3.4584,0.0,3.4066,3.3882,0.0,3.3951,3.3751,3.3458,3.3783,3.4167,3.452,3.4755,3.4803,3.4698,3.4897,3.4677,3.4096,3.3662,3.3183,3.2652,3.1914,3.1586,3.1561,3.1561,3.1511,3.1405,3.1808,3.2074,3.2241,3.2235,3.2555,3.3143,3.315,3.3294,3.3522,3.3535,3.3404,3.3143,3.3163,3.326,3.3522,3.3535,3.3404,3.3143,0.0,0.0,0.0,0.0,0.0,0.0,0.0,0.0,0.0,0.0,0.0,2.6478,2.5306,2.457,2.4484,2.4761,2.4767,2.4274,2.4465,2.4096,2.2859,2.3145,2.292,2.1847,2.1617,2.1439,2.1169,2.1319,2.1499,2.1679,2.2038,2.2192,2.203,2.2166,2.2209,2.2063,2.2141,2.2252,2.2261,2.2407,2.2629,2.28,2.2852,2.3032,2.3502,2.3494,2.352,2.3852,2.3484,2.3316,2.3379,2.2759,2.2209,2.2164,2.147,2.0937,2.1009,2.0458,1.9938,1.9798,1.9747,1.9747,1.9747,1.9721,1.9621,1.9225,1.9092,1.9048,1.8632,1.7787,1.6845,3.6153,3.6163,3.5689,3.517,3.4674,3.4792,3.4824,3.4829,0.0,0.0,0.0,3.5399,3.5523,3.5416,3.581,3.5815,3.5463,3.4697,3.4194,3.3874,3.2794,3.2286,3.2273,3.2418,3.2359,3.2204,3.2853,3.3034,3.2849,3.2842,3.3143,3.3699,3.3744,3.3966,3.4371,3.4397,3.4175,3.3777,3.3731,3.3974,3.4384,3.4397,3.4175,3.3731,3.3731,3.3456,3.2888,3.2855,3.279,3.2685,3.2463,3.185,3.0849,2.9636,2.8508,2.7511,2.6542,2.602,2.6121,2.6488,2.6569,2.6224,2.616,2.5288,2.3306,2.4089,2.4055,2.2462,2.2554,2.2569,2.225,2.2261,2.2475,2.2972,2.2937,2.2972,2.3074,2.2989,2.2877,2.2826,2.2997,2.3211,2.3177,2.3186,2.3323,2.3562,2.3374,2.3443,2.3989,2.3948,2.3905,2.4185,2.3668,2.3043,2.2976,2.257,2.2236,2.2434,2.1986,2.1261,2.0547,2.0538,2.0647,2.0422,2.0342,2.0269,2.0283,2.0269,2.0312,2.0371,2.0386,2.0403,2.0376,1.923,1.8225,3.6648,3.6203,3.6173,3.5844,3.5397,3.5914,3.6155,3.6168,3.5614,3.5676,3.6215,3.6121,3.6074,3.6073,3.6023,3.5558,3.4762,3.4612,3.3788,0.0,3.283,3.3024,3.299,3.3599,3.3795,3.3625,3.3729,3.3662,3.3485,3.347,3.3764,3.4214,3.428,3.4319,3.4384,3.4397,3.4358,3.428,3.428,3.4319,3.4397,3.4397,3.4371,3.4293,3.428,3.4031,3.3483,3.349,3.3221,3.2744,3.2986,3.2894,3.2384,3.1055,2.9775,2.8602,2.8335,2.8082,2.7702,2.8099,2.8158,2.7731,2.7323,2.6462,2.5002,2.4799,2.468,2.436,2.3819,2.3358,2.3023,2.322,2.322,2.2877,2.3468,2.375,2.3245,2.3622,2.3836,2.358,2.3572,2.3623,2.3649,2.3622,2.3639,2.37,2.3777,2.3812,2.4143,2.416,2.4297,2.4511,2.4065,2.3755,2.3747,2.329,2.2928,2.2827,2.2406,2.1764,2.0771,2.0917,2.1193,2.1111,2.0872,2.064,2.0649,2.0627,2.078,2.0985,2.1072,2.0901,2.0436,2.0506,2.0643,3.7718,3.777,3.7514,3.7056,3.6514,3.6484,3.6475,3.6461,3.6184,3.6215,3.6461,3.6289,3.6195,3.6164,3.5958,3.5592,3.5204,3.5134,3.4673,3.3982,3.4212,3.432,3.4338,3.5014,3.5006,3.4442,3.4807,3.4651,3.4103,3.4031,3.4183,3.4384,3.4397,3.4397,3.4397,3.4397,3.4397,3.4397,3.4397,3.4397,3.4397,3.4397,3.4397,3.4397,3.4397,3.445,3.4515,3.4515,3.4515,3.4541,3.431,3.4043,3.361,3.2213,3.1059,3.0422,2.9825,2.9424,2.9206,2.9419,2.9463,2.9195,2.8719,2.8062,2.7127,2.6128,2.5393,2.4937,2.4183,2.3691,2.369,2.3879,2.3913,2.3837,2.4237,2.4366,2.4126,2.428,2.4451,2.4324,2.429,2.429,2.429,2.4119,2.4066,2.4247,2.4463,2.4677,2.4812,2.4838,2.483,2.4768,2.4485,2.429,2.4229,2.4081,2.3936,2.3936,2.361,2.3212,2.2672,2.2593,2.2382,2.2584,2.1972,2.1393,2.1467,2.1518,2.1591,2.1657,2.173,2.1531,2.149,2.1987,2.1923,3.8794,3.9149,3.8849,3.828,3.7549,3.68,3.6492,3.6492,3.6492,3.6476,3.6398,3.6243,3.6148,3.6054,3.5816,3.5672,3.5653,3.5539,3.5498,3.5449,3.5526,3.5638,3.5822,3.6456,3.6251,3.5424,3.5852,3.5537,3.4532,3.4397,3.4397,3.4397,3.4397,3.4397,3.4397,3.4397,3.4463,3.458,3.4593,3.4607,3.4607,3.4711,3.4776,3.4776,3.4789,3.502,3.5443,3.5482,3.5678,3.6035,3.5559,3.4963,3.4272,3.3108,3.2345,3.2082,3.1146,3.0572,3.056,3.0496,3.0437,3.0343,2.9859,2.9366,2.8882,2.761,2.6468,2.5717,2.4924,2.456,2.4895,2.483,2.4834,2.5074,2.509,2.5,2.484,2.4821,2.4821,2.4821,2.4821,2.4804,2.4742,2.4537,2.4502,2.4872,2.5226,2.5389,2.5397,2.5457,2.5343,2.5069,2.4941,2.4759,2.4451,2.4759,2.4936,2.4956,2.4856,2.4818,2.478,2.431,2.392,2.4052,2.3384,2.2677,2.2557,2.2497,2.2467,2.2435,2.2389,2.2454,2.2576,2.2788,2.2786,3.9612,3.9295,3.9696,3.9269,3.811,3.6998,3.6492,3.6492,3.6492,3.6398,3.6242,3.6196,3.6022,3.5784,3.5704,3.5637,3.5567,3.5504,3.5459,3.5478,3.6067,3.6633,3.7127,3.7855,3.7671,3.6784,3.6768,3.6012,3.453,3.446,3.4397,3.4397,3.4397,3.441,3.441,3.441,3.4672,3.5208,3.5221,3.5221,3.5247,3.5691,3.5953,3.5953,3.594,3.5966,3.6044,3.6031,3.6044,3.6109,3.6039,3.5353,3.4119,3.377,3.3538,3.3142,3.2203,3.1652,3.1628,3.1186,3.0927,3.0816,3.0371,2.9997,2.9792,2.9007,2.8249,2.7643,2.6803,2.6371,2.6977,2.6508,2.6055,2.5744,2.5798,2.5689,2.4979,2.4821,2.4821,2.4821,2.4821,2.4821,2.4812,2.4733,2.4881,2.5146,2.532,2.5423,2.5483,2.5703,2.5771,2.5455,2.5363,2.5226,2.4947,2.5349,2.5571,2.5437,2.5586,2.5813,2.5891,2.579,2.5519,2.4882,2.5026,2.4552,2.3756,2.3452,2.3406,2.3207,2.3104,2.3018,2.3062,2.3084,2.2944,3.9969,3.976,3.9995,3.9401,3.8224,3.7013,3.6492,3.6492,3.6492,3.6398,3.6211,3.6116,3.5927,3.5719,3.5621,3.5749,3.6088,3.6088,3.6268,3.6593,3.7302,3.7727,3.8009,3.8651,3.8264,3.704,3.741,3.6805,3.5426,3.5175,3.4909,3.4439,3.4397,3.4567,3.4907,3.4933,3.5208,3.5757,3.6136,3.6305,3.6292,3.614,3.6109,3.6109,3.6109,3.6292,3.6593,3.6632,3.6802,3.7048,3.6312,3.5932,3.6187,3.453,3.3483,3.3298,3.2927,3.2686,3.2686,3.2489,3.2063,3.1363,3.111,3.0732,3.0068,2.9669,2.9357,2.9025,2.7567,2.6554,2.6681,2.6554,2.6209,2.5514,2.5348,2.5183,2.4876,2.4821,2.4821,2.4821,2.4821,2.4821,2.4821,2.4821,2.4881,2.5061,2.5234,2.5457,2.5669,2.602,2.6174,2.6114,2.6246,2.6097,2.5631,2.5862,2.6114,2.6169,2.6354,2.6662,2.6687,2.6696,2.6355,2.5627,2.6251,2.6163,2.5068,2.5023,2.4999,2.4452,2.3647,2.3347,2.3149,2.3106,2.3106,4.0113,4.0062,3.976,3.9106,3.8193,3.7013,3.6492,3.6492,3.646,3.632,3.6132,3.5974,3.5921,3.591,3.5858,3.6127,3.6613,3.6772,3.716,3.7758,3.8217,3.8482,3.8706,3.9152,3.8653,3.7544,3.7891,3.7337,3.587,3.5709,3.5264,3.4535,3.4567,3.4855,3.526,3.5417,3.5796,3.6332,3.6802,3.7077,3.7155,3.6828,3.6593,3.6593,3.6593,3.6802,3.722,3.7224,3.7442,3.7828,3.6604,3.6298,3.7074,3.4933,3.3519,3.3331,3.3281,3.3281,3.3281,3.3281,3.2818,3.1757,3.1593,3.1142,3.0271,2.9994,2.9994,2.9853,2.8448,2.7447,2.7222,2.6472,2.5835,2.5486,2.5357,2.5109,2.4849,2.4821,2.4821,2.4821,2.4821,2.4821,2.4821,2.483,2.4864,2.5018,2.5223,2.5506,2.5828,2.611,2.6311,2.6345,2.6568,2.6482,2.6059,2.6345,2.6559,2.6606,2.6786,2.7069,2.718,2.7189,2.7248,2.6795,2.7676,2.7649,2.6415,2.6271,2.6128,2.5343,2.4613,2.3873,2.3379,2.3247,2.3171,4.0113,3.9944,3.8859,3.8421,3.8193,3.7027,3.6507,3.6492,3.6305,3.6148,3.6021,3.5845,3.6014,3.6469,3.6616,3.6781,3.7047,3.7456,3.7989,3.8559,3.8495,3.8751,3.9331,3.9391,3.8955,3.8094,3.8221,3.7433,3.585,3.5709,3.5277,3.4478,3.4946,3.526,3.5443,3.5861,3.6371,3.6907,3.7037,3.7286,3.7756,3.7795,3.7743,3.7717,3.7795,3.7769,3.7821,3.7825,3.7874,3.79,3.7038,3.6332,3.5763,3.4824,3.3954,3.3406,3.3281,3.3281,3.3281,3.3281,3.2818,3.1808,3.1593,3.1167,3.0151,2.9994,2.9994,2.9994,2.9748,2.9564,2.9264,2.6889,2.578,2.6799,2.6382,2.5615,2.4876,2.4821,2.4821,2.4821,2.4821,2.4821,2.4821,2.4821,2.4958,2.5172,2.5363,2.5472,2.5788,2.5914,2.5982,2.6025,2.6068,2.5982,2.6008,2.6414,2.6726,2.6863,2.7013,2.7266,2.7343,2.7424,2.7585,2.7784,2.8131,2.8052,2.7404,2.6902,2.6552,2.5975,2.5524,2.4851,2.4237,2.3514,2.346,4.0113,4.002,3.9216,3.8657,3.8208,3.7416,3.6861,3.6507,3.6445,3.6305,3.6208,3.6413,3.6647,3.6869,3.765,3.8029,3.8096,3.8284,3.8702,3.9272,3.9139,3.9152,3.9376,3.9388,3.8977,3.8371,3.8686,3.8102,3.6557,3.5956,3.5458,3.5094,3.5182,3.5639,3.6305,3.658,3.6972,3.7485,3.7586,3.7691,3.7874,3.79,3.79,3.79,3.79,3.79,3.79,3.79,3.79,3.7913,3.6687,3.5882,3.5511,3.4385,3.3607,3.3356,3.3281,3.3281,3.3281,3.3281,3.2818,3.1746,3.1593,3.1131,3.0256,2.9994,2.9994,2.9994,2.9994,2.9994,2.9538,2.7501,2.6072,2.6336,2.5826,2.5266,2.4904,2.4821,2.4821,2.4821,2.4821,2.4821,2.4821,2.4821,2.4845,2.4984,2.5018,2.5215,2.5523,2.5771,2.5999,2.6247,2.6508,2.6747,2.7004,2.6713,2.6739,2.7124,2.7407,2.7629,2.7766,2.7818,2.7975,2.8157,2.8494,2.8618,2.8118,2.7886,2.7425,2.7012,2.651,2.5947,2.5418,2.4835,2.4676,4.0113,4.0007,3.9461,3.8865,3.8236,3.7666,3.7058,3.6523,3.6445,3.6336,3.6302,3.6751,3.7112,3.7475,3.8425,3.9009,3.9091,3.9053,3.931,3.9737,3.9517,3.9406,3.9406,3.9406,3.9123,3.8738,3.9119,3.8671,3.74,3.6686,3.6151,3.5735,3.5785,3.6214,3.692,3.7181,3.7521,3.7835,3.79,3.79,3.79,3.79,3.79,3.79,3.79,3.79,3.79,3.79,3.79,3.7703,3.6452,3.5379,3.4811,3.3879,3.3281,3.3281,3.3281,3.3281,3.3281,3.3281,3.2818,3.1721,3.1567,3.1142,3.0151,2.9994,2.9994,2.9994,2.9994,2.9994,2.9669,2.8305,2.7151,2.688,2.6154,2.5651,2.5624,2.5412,2.5109,2.4876,2.4821,2.4821,2.4821,2.4821,2.4802,2.483,2.4879,2.5138,2.5497,2.5874,2.6221,2.6602,2.6897,2.7141,2.7347,2.7184,2.7244,2.7604,2.7758,2.7989,2.8194,2.8254,2.8366,2.858,2.8794,2.9008,2.8982,2.8779,2.8433,2.8038,2.7564,2.6977,2.6591,2.6262,2.6012,4.0113,4.002,3.9457,3.8892,3.828,3.7723,3.7088,3.6554,3.6305,3.6273,3.6394,3.6829,3.7479,3.8085,3.8918,3.9545,3.9793,3.968,3.971,3.9905,3.9568,3.9406,3.9406,3.9406,3.9388,3.9265,3.9337,3.897,3.8172,3.767,3.7117,3.6697,3.6757,3.6894,3.7015,3.756,3.7861,3.79,3.79,3.79,3.79,3.79,3.79,3.79,3.79,3.79,3.79,3.79,3.79,3.7739,3.6487,3.4908,3.383,3.3381,3.3281,3.3281,3.3281,3.3281,3.3281,3.3281,3.2818,3.191,3.1618,3.1167,3.0323,3.0047,2.9994,2.9994,2.9994,2.9994,2.9889,2.9225,2.8594,2.8555,2.7636,2.7124,2.707,2.6554,2.5743,2.5006,2.4821,2.4821,2.4821,2.4845,2.4862,2.4889,2.5138,2.5437,2.5737,2.6105,2.6593,2.6919,2.7163,2.7394,2.7509,2.7638,2.7886,2.8109,2.8169,2.8346,2.8545,2.8665,2.8734,2.8914,2.9016,2.9222,2.9222,2.9011,2.8855,2.8516,2.8196,2.7991,2.7671,2.7328,2.7035,4.0113,4.007,3.9905,3.9229,3.8334,3.8096,3.7445,3.6554,3.6445,3.6581,3.696,3.7553,3.814,3.8757,3.9443,3.9851,3.9978,3.9803,3.9735,3.9732,3.9517,3.9406,3.9406,3.9406,3.9406,3.9283,3.883,3.8698,3.8596,3.7572,3.7125,3.7617,3.7241,3.7243,3.7586,3.7821,3.79,3.79,3.79,3.79,3.79,3.79,3.79,3.79,3.79,3.79,3.79,3.79,3.79,3.7877,3.6922,3.5655,3.4311,3.3582,3.3306,3.3281,3.3281,3.3281,3.3281,3.3281,3.2958,3.2243,3.1823,3.1285,3.0614,3.0193,3.002,2.9994,2.9994,2.9994,2.9983,3.0109,2.9637,2.8807,2.7931,2.7484,2.734,2.6672,2.5752,2.5006,2.4821,2.4821,2.4881,2.4992,2.5052,2.4904,2.5315,2.5717,2.5711,2.6217,2.6619,2.7017,2.7274,2.7652,2.7903,2.8134,2.8349,2.8503,2.8563,2.8631,2.8862,2.8991,2.9076,2.9145,2.9256,2.9307,2.9307,2.9242,2.9078,2.9045,2.8863,2.8681,2.8565,2.8277,2.7966,4.0282,4.0506,4.0506,3.977,3.875,3.8888,3.8194,3.7015,3.7111,3.7265,3.7487,3.8281,3.8858,3.9263,3.9869,4.0104,3.9996,3.9927,3.9803,3.9607,3.9481,3.9406,3.9406,3.9406,3.9406,3.9394,3.9154,3.9207,3.9494,3.8354,3.806,3.857,3.7843,3.7521,3.7874,3.79,3.79,3.79,3.79,3.79,3.79,3.79,3.79,3.79,3.79,3.79,3.79,3.79,3.79,3.7831,3.739,3.6309,3.4581,3.3719,3.3281,3.3281,3.3281,3.3281,3.3281,3.3281,3.3033,3.2471,3.1888,3.1362,3.0847,3.0323,3.002,2.9994,2.9994,2.9994,3.0046,3.0222,3.006,2.9547,2.9063,2.8284,2.7658,2.7074,2.6242,2.5482,2.5035,2.5018,2.5086,2.5018,2.5163,2.5104,2.5512,2.6068,2.6054,2.6589,2.7026,2.7364,2.7664,2.8049,2.844,2.8663,2.8852,2.8896,2.8948,2.9016,2.9153,2.9188,2.9239,2.923,2.9307,2.9307,2.9307,2.9307,2.9209,2.9307,2.9307,2.9142,2.8927,2.9018,2.8788,4.0574,4.117,4.1225,4.049,3.9424,3.999,3.9211,3.7728,3.8131,3.8091,3.7957,3.8859,3.949,3.969,4.0207,4.0279,4.0066,4.0156,3.991,3.9568,3.9424,3.9442,3.9391,3.9406,3.9406,3.9463,3.9983,4.0341,4.0367,3.9639,3.9606,3.9507,3.847,3.7887,3.79,3.79,3.79,3.79,3.79,3.79,3.79,3.79,3.79,3.79,3.79,3.79,3.79,3.79,3.79,3.7913,3.7818,3.6805,3.486,3.3744,3.3281,3.3281,3.3281,3.3281,3.3281,3.3281,3.3094,3.2572,3.195,3.1388,3.095,3.0391,2.9994,2.9994,2.9994,2.9994,2.9994,3.0118,3.0278,3.0646,3.0477,2.9621,2.7881,2.7765,2.704,2.5841,2.5423,2.5406,2.5406,2.5206,2.5241,2.5412,2.5811,2.6422,2.6782,2.7214,2.7723,2.7989,2.8126,2.834,2.8689,2.8714,2.8871,2.9068,2.9136,2.9205,2.9282,2.9299,2.9307,2.9307,2.9307,2.9307,2.9307,2.9307,2.9307,2.9307,2.9307,2.9307,2.9307,2.9307,2.9275,4.1018,4.1258,4.1779,4.1241,4.0201,4.079,4.0011,3.8422,3.8933,3.8874,3.8544,3.9107,3.9784,4.0213,4.0397,4.0314,4.0119,4.0224,3.9963,3.9499,3.9586,3.9517,3.9424,3.9406,3.9421,3.9526,4.0157,4.0666,4.1032,4.0118,3.9859,4.0244,3.868,3.79,3.79,3.79,3.79,3.79,3.79,3.79,3.79,3.79,3.79,3.79,3.79,3.79,3.79,3.79,3.79,3.79,3.79,3.7134,3.5319,3.4003,3.3281,3.3281,3.3281,3.3281,3.3281,3.3281,3.3206,3.3008,3.2102,3.1542,3.1388,3.0521,3.0099,2.9994,2.9994,2.9994,3.0046,3.0315,3.0714,3.1118,3.1253,3.045,2.8746,2.8104,2.7465,2.6096,2.5606,2.554,2.572,2.5857,2.59,2.5939,2.6393,2.7098,2.7338,2.7638,2.8083,2.8314,2.8485,2.8648,2.8785,2.8785,2.8914,2.9162,2.9248,2.9256,2.9299,2.9299,2.9307,2.9307,2.9307,2.9307,2.9307,2.9307,2.9307,2.9307,2.9307,2.9307,2.9307,2.9307,2.9307,4.1271,4.2121,4.2252,4.1695,4.0929,4.1788,4.0961,3.9352,3.9877,3.9771,3.9228,3.9613,4.0137,4.0474,4.0489,4.0366,4.0172,4.0312,4.0069,3.9607,3.9553,3.9481,3.9424,3.9406,3.9526,3.9885,4.0487,4.0918,4.1043,4.0377,4.0089,3.9707,3.8621,3.7946,3.79,3.79,3.79,3.79,3.79,3.79,3.79,3.79,3.79,3.79,3.79,3.79,3.7877,3.7575,3.739,3.7459,3.7611,3.7051,3.5223,3.3991,3.3306,3.3281,3.3281,3.3281,3.3281,3.3292,3.3181,3.2857,3.2052,3.1542,3.1157,3.0469,2.9994,2.9994,2.9994,2.9994,3.0118,3.0584,3.117,3.1578,3.1826,3.0992,2.8879,2.8033,2.7297,2.6406,2.5883,2.5746,2.6105,2.6251,2.6328,2.641,2.667,2.7278,2.7766,2.8075,2.8374,2.8648,2.8768,2.8879,2.8922,2.8922,2.8888,2.9128,2.929,2.9307,2.9307,2.9307,2.9307,2.9307,2.9307,2.9307,2.9307,2.9307,2.9307,2.9307,2.9307,2.9307,2.9307,2.9307,2.9307,4.1474,4.3237,4.2574,4.1949,4.164,4.2694,4.1731,4.0068,4.0782,4.0578,3.9785,4.0199,4.0428,4.0489,4.0455,4.0401,4.0294,4.0383,4.0156,3.9785,3.9553,3.9406,3.9406,3.9406,3.9735,4.0307,4.1074,4.1178,4.1011,4.0695,4.0074,3.9334,3.8372,3.7946,3.79,3.79,3.79,3.79,3.79,3.79,3.79,3.79,3.79,3.79,3.79,3.79,3.7749,3.733,3.6862,3.6604,3.7297,3.6416,3.4605,3.3719,3.3356,3.3281,3.3281,3.3281,3.3281,3.3292,3.3044,3.2507,3.1939,3.1362,3.0873,3.0313,2.9994,2.9994,2.9994,3.0036,3.0243,3.0874,3.1464,3.1853,3.23,3.1239,2.9391,2.803,2.7298,2.6755,2.6366,2.6274,2.6336,2.6379,2.635,2.697,2.7261,2.7766,2.8212,2.8494,2.8794,2.9085,2.9119,2.9076,2.9068,2.9051,2.8999,2.9051,2.9239,2.9307,2.9307,2.9307,2.9307,2.9307,2.9307,2.9307,2.9307,2.9307,2.9307,2.9307,2.9307,2.9307,2.9307,2.9307,2.9307,4.2113,4.2536,4.2354,4.2255,4.2232,4.2458,4.1703,4.0356,4.1118,4.0743,3.9888,4.023,4.0474,4.0489,4.0401,4.0329,4.0312,4.0296,4.0189,3.991,3.9553,3.9424,3.9421,3.9436,3.9795,4.0457,4.1104,4.1232,4.0995,4.0653,4.013,3.9157,3.834,3.79,3.79,3.79,3.79,3.79,3.79,3.79,3.79,3.79,3.79,3.79,3.79,3.79,3.7877,3.7726,3.7074,3.6227,3.5906,3.5499,3.4446,3.3669,3.3331,3.3281,3.3281,3.3281,3.3281,3.3256,3.3033,3.2446,3.195,3.1362,3.0836,3.0297,3.002,2.9994,3.0005,3.0139,3.0569,3.104,3.1588,3.1942,3.1848,3.1374,3.0316,2.969,2.8832,2.8074,2.7304,2.6941,2.697,2.7146,2.7244,2.7527,2.7909,2.8389,2.864,2.8879,2.9051,2.9265,2.9196,2.9119,2.917,2.9145,2.9102,2.9085,2.9222,2.9307,2.9307,2.9307,2.9307,2.9307,2.9307,2.9307,2.9307,2.9307,2.9307,2.9307,2.9307,2.9307,2.9307,2.9307,2.9307,4.2185,4.2777,4.2469,4.2339,4.2413,4.2397,4.1678,4.0792,4.122,4.0938,4.0194,4.0382,4.0489,4.0487,4.0381,4.0327,4.0259,4.0086,4.0016,3.9889,3.9604,3.9406,3.9511,3.9765,4.0217,4.0876,4.1568,4.1504,4.096,4.0562,3.9905,3.8684,3.8116,3.7923,3.79,3.79,3.79,3.79,3.79,3.79,3.79,3.79,3.79,3.79,3.79,3.79,3.79,3.7482,3.6734,3.5763,3.4945,3.4372,3.3979,3.3519,3.3331,3.3281,3.3281,3.3281,3.3281,3.3256,3.3019,3.2446,3.207,3.1497,3.092,3.0323,3.0047,2.9994,3.0056,3.0243,3.0953,3.1412,3.1829,3.2158,3.2085,3.1595,3.0737,2.9927,2.9126,2.8301,2.7506,2.7302,2.7357,2.7477,2.7869,2.8063,2.7963,2.8408,2.8837,2.9042,2.9076,2.9179,2.9145,2.9136,2.9222,2.923,2.9196,2.9196,2.9265,2.9307,2.9307,2.9307,2.9307,2.9307,2.9307,2.9307,2.9307,2.9307,2.9307,2.9307,2.9307,2.9307,2.9307,2.9307,2.9307,4.2087,4.3169,4.2439,4.2157,4.2154,4.193,4.124,4.0503,4.0935,4.0802,4.0578,4.0489,4.0489,4.0455,4.0296,4.0259,4.0172,3.9996,3.9907,3.9925,3.9586,3.9424,3.9556,4.0157,4.0804,4.1433,4.2021,4.1712,4.09,4.0461,3.9686,3.8239,3.7923,3.79,3.79,3.79,3.79,3.79,3.79,3.79,3.79,3.79,3.79,3.79,3.79,3.79,3.7795,3.7353,3.6628,3.5775,3.4409,3.3731,3.3494,3.3331,3.3281,3.3281,3.3281,3.3281,3.3281,3.3256,3.3044,3.2446,3.2155,3.168,3.092,3.0339,3.0073,3.0046,3.0129,3.0507,3.1305,3.1588,3.2016,3.2352,3.2478,3.1844,3.0796,2.9472,2.8548,2.7835,2.7454,2.7281,2.7379,2.7518,2.808,2.85,2.8383,2.8426,2.8845,2.9085,2.9051,2.9042,2.8999,2.9128,2.9239,2.9282,2.9248,2.9256,2.9307,2.9307,2.9307,2.9307,2.9307,2.9307,2.9307,2.9307,2.9307,2.9307,2.9307,2.9307,2.9307,2.9307,2.9307,2.9307,2.9307,4.2266,4.2422,4.1694,4.1158,4.0699,4.0099,3.9845,3.9706,3.9859,4.0118,4.0476,4.0489,4.0489,4.042,4.0189,4.0066,4.0031,3.9943,3.994,3.9922,3.9604,3.9421,3.9705,4.0576,4.1239,4.1523,4.1991,4.1723,4.0844,4.0482,3.9489,3.8239,3.79,3.79,3.79,3.79,3.79,3.79,3.79,3.79,3.79,3.79,3.79,3.79,3.79,3.79,3.79,3.7749,3.7343,3.6534,3.5691,3.5017,3.4323,3.3656,3.3356,3.3281,3.3281,3.3281,3.3281,3.3281,3.2983,3.2457,3.2034,3.1534,3.0884,3.0349,3.0047,3.0108,3.0377,3.0801,3.1336,3.1547,3.1733,3.1865,3.1602,3.1057,3.051,2.9507,2.823,2.7415,2.7203,2.7147,2.7278,2.7492,2.7972,2.8383,2.8511,2.8468,2.8657,2.8819,2.886,2.886,2.886,2.9033,2.9248,2.9282,2.929,2.9282,2.9307,2.9307,2.9307,2.9307,2.9307,2.9307,2.9307,2.9307,2.9307,2.9307,2.9307,2.9307,2.9307,2.9307,2.9307,2.9307,2.9307,4.1728,4.1677,4.1339,4.0892,4.0308,3.9625,3.9357,3.9484,3.9505,3.9859,4.0336,4.0489,4.0489,4.0403,4.0139,4.0011,3.9993,3.9874,3.9907,3.9872,3.9619,3.9631,3.9915,4.0969,4.1538,4.1852,4.207,4.1648,4.0639,4.0051,3.9193,3.8249,3.79,3.79,3.79,3.79,3.79,3.79,3.79,3.79,3.79,3.79,3.79,3.79,3.79,3.79,3.79,3.79,3.7505,3.6886,3.6745,3.5751,3.4531,3.3693,3.3281,3.3281,3.3281,3.3281,3.3281,3.3281,3.3144,3.2894,3.2271,3.1735,3.1152,3.0573,3.0067,3.0149,3.0688,3.1122,3.1388,3.1595,3.193,3.2135,3.1669,3.1005,3.0341,2.9351,2.8164,2.7071,2.7042,2.7051,2.7094,2.7398,2.7869,2.8229,2.8528,2.8571,2.8528,2.8545,2.862,2.8802,2.8871,2.9085,2.9265,2.9282,2.9307,2.9307,2.9307,2.9307,2.9307,2.9307,2.9307,2.9307,2.9307,2.9307,2.9307,2.9307,2.9307,2.9307,2.9307,2.9307,2.9307,2.9307,2.9307,4.1191,4.1191,4.1191,4.0739,3.9953,3.9381,3.915,3.929,3.9291,3.9753,4.0443,4.0489,4.0489,4.0436,4.0261,4.0101,4.0049,3.9857,3.9874,3.9872,3.9619,3.975,4.0427,4.1089,4.1688,4.2166,4.1747,4.1323,4.0568,3.9746,3.8796,3.8125,3.79,3.79,3.79,3.79,3.79,3.79,3.79,3.79,3.79,3.79,3.79,3.79,3.79,3.79,3.79,3.79,3.7621,3.7353,3.7227,3.6653,3.4298,3.3481,3.3306,3.3281,3.3281,3.3281,3.3281,3.3281,3.3256,3.3156,3.2482,3.1976,3.1485,3.0757,3.0139,3.0201,3.0926,3.1412,3.1464,3.1764,3.2109,3.2179,3.1843,3.1185,3.0206,2.9147,2.7854,2.714,2.6973,2.6811,2.6733,2.7304,2.7775,2.7955,2.8246,2.8374,2.834,2.8314,2.8417,2.8768,2.8991,2.9179,2.9299,2.929,2.9307,2.9307,2.9307,2.9307,2.9307,2.9307,2.9307,2.9307,2.9307,2.9307,2.9307,2.9307,2.9307,2.9307,2.9307,2.9307,2.9307,2.9307,2.9307,4.1191,4.1191,4.1191,4.0187,3.8701,3.8474,3.8498,3.8651,3.8692,3.9353,4.0489,4.0489,4.0489,4.047,4.047,4.0349,4.0209,4.0049,3.9943,3.994,3.9634,3.9813,4.0457,4.1089,4.1712,4.208,4.133,4.0795,4.026,3.9519,3.8738,3.8047,3.79,3.79,3.79,3.79,3.79,3.79,3.79,3.79,3.79,3.79,3.79,3.79,3.79,3.79,3.79,3.79,3.7726,3.768,3.7762,3.7041,3.5464,3.3953,3.3456,3.3281,3.3281,3.3281,3.3281,3.3281,3.3281,3.3131,3.2375,3.1794,3.1357,3.0979,3.0414,3.0067,3.1122,3.165,3.1505,3.1764,3.1995,3.175,3.1307,3.0931,3.0261,2.892,2.7622,2.7022,2.6792,2.6386,2.6127,2.6953,2.7646,2.7783,2.792,2.8049,2.8212,2.8237,2.8349,2.8725,2.9042,2.9248,2.9307,2.9307,2.9307,2.9307,2.9307,2.9307,2.9307,2.9307,2.9307,2.9307,2.9307,2.9307,2.9307,2.9307,2.9307,2.9307,2.9307,2.9307,2.9307,2.9307,2.9307,4.1191,4.1131,4.0376,3.9406,3.8308,3.7953,3.807,3.8438,3.8523,3.9245,4.032,4.0489,4.047,4.0418,4.047,4.0418,4.0277,4.0101,4.0011,3.9922,3.9697,3.9963,4.0816,4.1257,4.1699,4.1803,4.1152,4.0296,3.976,3.9006,3.8194,3.8001,3.79,3.79,3.79,3.79,3.79,3.79,3.79,3.79,3.79,3.79,3.79,3.79,3.79,3.79,3.79,3.79,3.7634,3.7482,3.7588,3.718,3.5667,3.4237,3.3281,3.3281,3.3281,3.3281,3.3281,3.3281,3.3281,3.3119,3.2493,3.1837,3.1305,3.0906,3.0538,3.0046,3.1008,3.1474,3.1433,3.1557,3.195,3.1827,3.1253,3.1038,3.0486,2.8765,2.7557,2.7077,2.6619,2.6259,2.6083,2.6747,2.733,2.7424,2.7527,2.7629,2.7989,2.834,2.8526,2.8766,2.9033,2.929,2.9307,2.9307,2.9307,2.9307,2.9307,2.9307,2.9307,2.9307,2.9307,2.9307,2.9307,2.9307,2.9307,2.9307,2.9307,2.9307,2.9307,2.9307,2.9307,2.9307,2.9307,4.1373,4.1054,3.9744,3.8865,3.8266,3.7666,3.7825,3.8464,3.8508,3.9245,4.0213,4.0489,4.0453,4.0383,4.0453,4.0437,4.0349,4.0086,4.0028,3.9887,3.979,4.0206,4.0965,4.1436,4.1616,4.1955,4.107,4.0181,3.9246,3.8449,3.7979,3.79,3.79,3.79,3.79,3.79,3.79,3.79,3.79,3.79,3.79,3.79,3.79,3.79,3.79,3.79,3.79,3.79,3.7528,3.7353,3.6828,3.6345,3.5475,3.4212,3.3381,3.3281,3.3281,3.3281,3.3281,3.3281,3.3281,3.3069,3.2558,3.171,3.1025,3.0784,3.059,3.0067,3.105,3.1371,3.1319,3.1398,3.1868,3.2054,3.1856,3.165,3.11,2.9388,2.7951,2.7298,2.6826,2.6337,2.6341,2.6747,2.7034,2.7103,2.718,2.7253,2.7706,2.8271,2.8526,2.8697,2.8903,2.9111,2.9162,2.9188,2.923,2.9307,2.9307,2.9307,2.9307,2.9307,2.9307,2.9307,2.9307,2.9307,2.9307,2.9307,2.9307,2.9307,2.9307,2.9307,2.9307,2.9307,2.9307,4.1813,4.1067,3.9748,3.8851,3.8236,3.765,3.781,3.8492,3.8539,3.9291,4.0397,4.0489,4.0489,4.0489,4.0472,4.0489,4.047,4.0137,4.0028,3.9869,3.9727,4.0272,4.1036,4.1507,4.1548,4.1678,4.0986,4.0116,3.9188,3.8281,3.7956,3.79,3.79,3.79,3.79,3.79,3.79,3.79,3.79,3.79,3.79,3.79,3.79,3.79,3.79,3.79,3.79,3.79,3.7739,3.7495,3.638,3.5463,3.5017,3.4003,3.3331,3.3281,3.3384,3.3396,3.3407,3.3327,3.3281,3.2994,3.2367,3.1563,3.1152,3.1219,3.0892,3.0377,3.1278,3.1457,3.1364,3.1395,3.1933,3.2109,3.2064,3.1743,3.1151,3.0037,2.8692,2.7706,2.7049,2.6602,2.6401,2.679,2.7017,2.7103,2.7235,2.7347,2.7664,2.8143,2.838,2.856,2.8723,2.8845,2.8922,2.9016,2.9239,2.9307,2.9307,2.9307,2.9307,2.9307,2.9307,2.9307,2.9307,2.9307,2.9307,2.9307,2.9307,2.9307,2.9307,2.9307,2.9307,2.9307,2.9307,4.1187,4.0413,3.9167,3.8502,3.8254,3.7709,3.7854,3.8509,3.8938,3.9582,4.0489,4.0489,4.0489,4.0489,4.0505,4.0453,4.0349,4.0119,4.0028,3.9925,3.9883,4.0419,4.1152,4.1507,4.145,4.1164,4.0689,3.9752,3.8417,3.807,3.7979,3.79,3.79,3.79,3.79,3.79,3.79,3.79,3.79,3.79,3.79,3.79,3.79,3.79,3.79,3.79,3.79,3.79,3.7621,3.7085,3.6178,3.5367,3.4543,3.3681,3.3356,3.3338,3.3499,3.366,3.3625,3.3476,3.3292,3.3081,3.235,3.1599,3.1527,3.1537,3.132,3.1226,3.1426,3.1561,3.1705,3.1798,3.2078,3.2243,3.214,3.1826,3.1182,3.0194,2.9099,2.7985,2.7372,2.6874,2.6783,2.6794,2.6974,2.7129,2.7278,2.7475,2.7749,2.8032,2.8263,2.8509,2.8648,2.8854,2.8948,2.9119,2.9299,2.9307,2.9307,2.9307,2.9307,2.9307,2.9307,2.9307,2.9307,2.9307,2.9307,2.9307,2.9307,2.9307,2.9307,2.9307,2.9307,2.9307,2.9307,4.0764,3.9973,3.8808,3.8306,3.8219,3.7732,3.7877,3.8538,3.9184,3.9876,4.0489,4.0489,4.0489,4.0489,4.0505,4.0418,4.0296,4.0154,4.0066,3.996,4.0008,4.058,4.1279,4.1598,4.1337,4.0745,4.0453,3.9722,3.8047,3.7946,3.79,3.79,3.79,3.79,3.79,3.79,3.79,3.79,3.79,3.79,3.79,3.79,3.79,3.79,3.79,3.79,3.79,3.7877,3.768,3.7121,3.6332,3.5379,3.4409,3.3618,3.3356,3.3467,3.3708,3.3981,3.3912,3.3752,3.3499,3.343,3.2296,3.2005,3.2008,3.1688,3.1079,3.1118,3.1412,3.1643,3.1664,3.1519,3.1519,3.1598,3.2047,3.1829,3.1289,3.0428,2.9317,2.8203,2.778,2.7397,2.6873,2.6812,2.6992,2.7172,2.7364,2.7509,2.7655,2.7946,2.8237,2.8451,2.8648,2.8862,2.9076,2.9196,2.9299,2.9307,2.9307,2.9307,2.9307,2.9307,2.9307,2.9307,2.9307,2.9307,2.9307,2.9307,2.9307,2.9307,2.9307,2.9307,2.9307,2.9307,2.9307,4.0747,3.9973,3.8808,3.8306,3.8234,3.7732,3.7908,3.8553,3.9276,3.9922,4.0459,4.0489,4.0489,4.0489,4.0489,4.0418,4.0329,4.0277,4.0189,4.0049,4.0059,4.0689,4.1334,4.1625,4.1337,4.0751,4.0439,3.9664,3.79,3.79,3.79,3.79,3.79,3.79,3.79,3.79,3.79,3.79,3.79,3.79,3.79,3.79,3.79,3.79,3.79,3.79,3.79,3.79,3.7772,3.7551,3.6321,3.5571,3.5235,3.3879,3.3381,3.3327,3.3798,3.4039,3.405,3.4027,3.405,3.3808,3.2689,3.2085,3.2112,3.1561,3.0953,3.1143,3.1122,3.1008,3.0874,3.0926,3.1153,3.1319,3.1809,3.1709,3.1158,3.0811,2.9709,2.8781,2.8454,2.8055,2.7264,2.682,2.7009,2.7223,2.7432,2.7561,2.7612,2.7809,2.8092,2.8391,2.8597,2.8879,2.9085,2.9213,2.9299,2.9299,2.9307,2.9307,2.9307,2.9307,2.9307,2.9307,2.9307,2.9307,2.9307,2.9307,2.9307,2.9307,2.9307,2.9307,2.9307,2.9307,2.9307,4.032,3.9995,3.8808,3.8306,3.8286,3.8216,3.8307,3.8661,3.963,4.029,4.0459,4.0489,4.0489,4.0489,4.0489,4.0436,4.0329,4.0327,4.0224,4.0207,4.0204,4.0918,4.1531,4.1731,4.1411,4.0807,4.0475,3.9686,3.79,3.7923,3.79,3.79,3.79,3.79,3.79,3.79,3.79,3.79,3.79,3.79,3.79,3.79,3.79,3.79,3.79,3.79,3.79,3.79,3.79,3.7703,3.6416,3.5667,3.5355,3.4139,3.3331,3.3476,3.3958,3.4682,3.4862,3.4977,3.4828,3.4183,3.3231,3.2575,3.2981,3.156,3.1233,3.1343,3.1402,3.1433,3.1602,3.1922,3.2067,3.1788,3.1891,3.1498,3.1085,3.0872,3.0262,2.9518,2.9019,2.8217,2.741,2.718,2.7284,2.7142,2.727,2.7364,2.7415,2.7612,2.7878,2.8246,2.8569,2.8845,2.9093,2.923,2.9299,2.9307,2.9307,2.9307,2.9307,2.9307,2.9307,2.9307,2.9307,2.9307,2.9307,2.9307,2.9307,2.9307,2.9307,2.9307,2.9307,2.9307,2.9307,3.9982,3.9666,3.8726,3.8306,3.8336,3.845,3.8722,3.9261,4.012,4.0489,4.0489,4.0489,4.0489,4.0489,4.0489,4.042,4.0314,4.0349,4.0329,4.0327,4.0309,4.0974,4.1577,4.1843,4.1612,4.1057,4.0568,3.9774,3.8449,3.8047,3.7923,3.79,3.79,3.79,3.79,3.79,3.79,3.79,3.79,3.79,3.79,3.79,3.79,3.79,3.79,3.79,3.79,3.79,3.79,3.7459,3.6628,3.5667,3.5162,3.431,3.3406,3.3556,3.4199,3.5026,3.5554,3.5738,3.5577,3.5317,3.3817,3.332,3.3405,3.2178,3.1772,3.1795,3.186,3.1922,3.2016,3.2398,3.2202,3.1881,3.184,3.1474,3.1081,3.0895,3.0792,3.0062,2.9703,2.8735,2.7771,2.7635,2.762,2.7366,2.7129,2.7249,2.742,2.7672,2.798,2.8366,2.8674,2.8982,2.9179,2.9256,2.9307,2.9307,2.9307,2.9307,2.9307,2.9307,2.9307,2.9307,2.9307,2.9307,2.9307,2.9307,2.9307,2.9307,2.9307,2.9307,2.9307,2.9307,2.9307,3.9731,3.9149,3.8546,3.828,3.8295,3.8419,3.9214,4.0397,4.0474,4.0489,4.0489,4.0489,4.0489,4.0489,4.0489,4.0436,4.0349,4.0437,4.0401,4.0364,4.0364,4.1059,4.1535,4.1798,4.1753,4.1558,4.1085,4.0267,3.9202,3.8294,3.79,3.79,3.79,3.79,3.79,3.79,3.79,3.79,3.79,3.79,3.79,3.79,3.79,3.79,3.79,3.79,3.79,3.79,3.79,3.739,3.6463,3.5882,3.5138,3.4114,3.3593,3.3625,3.4406,3.5213,3.6006,3.6167,3.607,3.571,3.4777,3.4184,3.3492,3.2682,3.1994,3.1806,3.1798,3.1871,3.1974,3.1888,3.1754,3.1747,3.1881,3.1557,3.1112,3.0939,3.0934,3.0736,3.0649,2.991,2.8737,2.8337,2.8145,2.7552,2.7398,2.7754,2.7934,2.8149,2.8426,2.8777,2.9042,2.9196,2.9307,2.9307,2.9307,2.9307,2.9307,2.9307,2.9307,2.9307,2.9307,2.9307,2.9307,2.9307,2.9307,2.9307,2.9307,2.9307,2.9307,2.9307,2.9307,2.9307,2.9307,3.9747,3.9152,3.856,3.8037,3.7785,3.826,3.9245,4.0414,4.0489,4.0489,4.0489,4.0489,4.0489,4.0489,4.0489,4.047,4.047,4.0472,4.0455,4.0453,4.0416,4.0878,4.1366,4.1824,4.189,4.1734,4.1307,4.0618,3.9453,3.844,3.79,3.79,3.79,3.79,3.79,3.79,3.79,3.79,3.79,3.79,3.79,3.79,3.79,3.79,3.79,3.79,3.79,3.79,3.79,3.7634,3.6392,3.5643,3.5499,3.4235,3.3442,3.4314,3.4785,3.5225,3.6063,3.6293,3.6157,3.5817,3.514,3.4818,3.4015,3.2931,3.2006,3.1941,3.193,3.1995,3.2129,3.2085,3.1961,3.1974,3.2047,3.1788,3.1412,3.1237,3.1252,3.1518,3.1462,3.0772,2.9619,2.9134,2.8882,2.8044,2.7715,2.8057,2.8357,2.8537,2.8725,2.9059,2.9205,2.929,2.9307,2.9307,2.9307,2.9307,2.9307,2.9307,2.9307,2.9307,2.9307,2.9307,2.9307,2.9307,2.9307,2.9307,2.9307,2.9307,2.9307,2.9307,2.9307,2.9307,2.9307,3.9618,3.8835,3.8477,3.8113,3.7981,3.8558,3.9496,4.0387,4.0489,4.0489,4.0489,4.0489,4.0489,4.0489,4.0489,4.0505,4.0489,4.0489,4.0489,4.0487,4.0453,4.0806,4.127,4.1836,4.2149,4.2005,4.1668,4.1042,3.9855,3.863,3.79,3.79,3.79,3.79,3.79,3.79,3.79,3.79,3.79,3.79,3.79,3.79,3.79,3.79,3.79,3.79,3.79,3.79,3.79,3.768,3.6416,3.5643,3.5355,3.4223,3.3777,3.4509,3.4796,3.5336,3.6075,3.6282,3.5966,3.5543,3.5174,3.4653,3.4098,3.3144,3.2633,3.2366,3.2268,3.2212,3.2367,3.2471,3.2398,3.2326,3.2212,3.2088,3.184,3.1619,3.1825,3.2182,3.1913,3.1338,3.0727,3.0195,2.9442,2.8437,2.7997,2.8237,2.8554,2.8811,2.8939,2.9145,2.9239,2.9307,2.9307,2.9307,2.9307,2.9307,2.9307,2.9307,2.9307,2.9307,2.9307,2.9307,2.9307,2.9307,2.9307,2.9307,2.9307,2.9307,2.9307,2.9307,2.9307,2.9307,2.9307,3.9401,3.8292,3.8195,3.8219,3.8579,3.9029,3.9712,4.0447,4.0489,4.0489,4.0489,4.0489,4.0489,4.0489,4.0489,4.0489,4.0489,4.0489,4.0489,4.0489,4.0418,4.0637,4.112,4.1748,4.2305,4.246,4.2227,4.1587,4.0439,3.9029,3.79,3.79,3.79,3.79,3.79,3.79,3.79,3.79,3.79,3.79,3.79,3.79,3.79,3.79,3.79,3.79,3.79,3.79,3.79,3.739,3.6617,3.5691,3.4787,3.4174,3.4081,3.4429,3.4773,3.537,3.5983,3.6282,3.5954,3.5449,3.4869,3.4351,3.3789,3.3279,3.2796,3.2587,3.246,3.245,3.2564,3.2605,3.2553,3.2522,3.246,3.2357,3.2191,3.2078,3.2246,3.2579,3.2674,3.2037,3.0997,3.0421,2.9847,2.8774,2.8203,2.8374,2.8708,2.9008,2.9111,2.9205,2.9265,2.9307,2.9307,2.9307,2.9307,2.9307,2.9307,2.9307,2.9307,2.9307,2.9307,2.9307,2.9307,2.9307,2.9307,2.9307,2.9307,2.9307,2.9307,2.9307,2.9307,2.9307,2.9307,3.9401,3.8222,3.7311,3.7514,3.8447,3.864,3.9427,4.0459,4.0489,4.0489,4.0489,4.0489,4.0489,4.0489,4.0489,4.0489,4.0489,4.0489,4.0489,4.0489,4.0453,4.0495,4.096,4.1868,4.2432,4.2752,4.2618,4.1932,4.0389,3.8922,3.79,3.79,3.79,3.79,3.79,3.79,3.79,3.79,3.79,3.79,3.79,3.79,3.79,3.79,3.79,3.79,3.79,3.79,3.79,3.7634,3.6369,3.515,3.3879,3.3494,3.386,3.4567,3.4831,3.5359,3.596,3.6239,3.5927,3.5394,3.4814,3.425,3.3699,3.3211,3.2908,3.2755,3.2698,3.2698,3.2698,3.2698,3.2698,3.2698,3.2688,3.2595,3.2502,3.2584,3.2677,3.2853,3.312,3.2522,3.1473,3.0723,3.0092,2.9341,2.8512,2.8366,2.8785,2.9102,2.9128,2.9205,2.9273,2.9307,2.9307,2.9307,2.9307,2.9307,2.9307,2.9307,2.9307,2.9307,2.9307,2.9307,2.9307,2.9307,2.9307,2.9307,2.9307,2.9307,2.9307,2.9307,2.9307,2.9307,2.9307,3.9388,3.8228,3.7326,3.7538,3.8445,3.8814,3.9537,4.0366,4.0489,4.0489,4.0489,4.0489,4.0489,4.0489,4.0489,4.0489,4.0489,4.0489,4.0489,4.0489,4.0489,4.0505,4.1074,4.1876,4.2365,4.272,4.2342,4.1489,4.0144,3.88,3.79,3.79,3.79,3.79,3.79,3.79,3.79,3.79,3.79,3.79,3.79,3.79,3.79,3.79,3.79,3.79,3.79,3.79,3.79,3.7482,3.6405,3.4908,3.3841,3.3356,3.3846,3.4475,3.4911,3.5221,3.596,3.6184,3.5911,3.5295,3.4786,3.4239,3.3285,3.2823,3.2784,3.2698,3.2698,3.2698,3.2698,3.2698,3.2698,3.2698,3.2628,3.2584,3.2502,3.2502,3.245,3.2377,3.2779,3.316,3.2279,3.1789,3.1102,3.0164,2.9293,2.864,2.8999,2.9111,2.9145,2.9213,2.9273,2.9307,2.9307,2.9307,2.9307,2.9307,2.9307,2.9307,2.9307,2.9307,2.9307,2.9307,2.9307,2.9307,2.9307,2.9307,2.9307,2.9307,2.9307,2.9307,2.9307,2.9307,2.9307,3.9252,3.8178,3.767,3.7877,3.8538,3.9199,3.9876,4.0428,4.0489,4.0489,4.0489,4.0489,4.0489,4.0489,4.0489,4.0489,4.0489,4.0489,4.0489,4.0489,4.0489,4.0489,4.0953,4.174,4.2304,4.2308,4.19,4.1165,4.0181,3.8774,3.79,3.79,3.79,3.79,3.79,3.79,3.79,3.79,3.79,3.79,3.79,3.79,3.79,3.79,3.79,3.79,3.79,3.79,3.79,3.732,3.6428,3.4908,3.3841,3.3315,3.3935,3.4498,3.4808,3.5347,3.6029,3.6266,3.5735,3.5157,3.473,3.4099,3.3172,3.2784,3.2755,3.2698,3.2698,3.2698,3.2698,3.2698,3.2698,3.2698,3.2607,3.2556,3.2522,3.2471,3.2326,3.2142,3.2654,3.3261,3.2982,3.2517,3.1785,3.0868,3.0154,2.9641,2.9223,2.9128,2.9085,2.9188,2.929,2.9307,2.9307,2.9307,2.9307,2.9307,2.9307,2.9307,2.9307,2.9307,2.9307,2.9307,2.9307,2.9307,2.9307,2.9307,2.9307,2.9307,2.9307,2.9307,2.9307,2.9307,2.9307,3.8657,3.7568,3.7514,3.7892,3.8586,3.923,3.9876,4.0428,4.0489,4.0489,4.0489,4.0489,4.0489,4.0489,4.0489,4.0489,4.0489,4.0489,4.0489,4.0489,4.0489,4.0489,4.083,4.163,4.2342,4.2334,4.1938,4.111,4.0339,3.8863,3.7923,3.7946,3.7923,3.79,3.79,3.79,3.79,3.79,3.79,3.79,3.79,3.79,3.79,3.79,3.79,3.79,3.79,3.79,3.79,3.7436,3.6416,3.4908,3.3879,3.335,3.3878,3.4509,3.4782,3.5359,3.5937,3.6236,3.579,3.5488,3.5035,3.434,3.3547,3.2955,3.2869,3.2698,3.2698,3.2698,3.2698,3.2698,3.2698,3.2698,3.2638,3.2626,3.2564,3.2584,3.2553,3.2626,3.2909,3.3078,3.2904,3.239,3.1863,3.0938,2.9969,2.9477,2.9273,2.9162,2.9042,2.9162,2.9299,2.9307,2.9307,2.9307,2.9307,2.9307,2.9307,2.9307,2.9307,2.9307,2.9307,2.9307,2.9307,2.9307,2.9307,2.9307,2.9307,2.9307,2.9307,2.9307,2.9307,2.9307,2.9307]}]]